GFSSW_sfc_thetae_003.txt.gz
Theta_e
321 321 321 322 322 322 322 322 322 323 322 322 322 322 321 321 321 321 314 321 323 352 351 326 325 327 328 319 320 318 312 312 317 317 317 324 321 327 329 328 331 335 335 341 350
320 320 320 321 321 322 322 322 322 322 321 320 321 321 320 321 319 315 330 348 348 348 317 323 322 325 316 315 315 312 308 313 321 321 321 323 323 323 323 321 324 327 347 350 349
319 320 320 320 320 321 321 321 321 321 320 320 320 320 320 320 319 321 348 349 348 342 318 320 320 320 312 312 312 313 316 320 320 323 325 320 322 324 324 321 323 323 342 345 344
319 319 319 319 320 320 320 320 320 320 319 319 319 320 320 320 312 329 346 347 348 323 315 318 318 312 307 306 313 309 319 324 324 326 324 317 319 324 324 325 332 329 342 344 341
318 318 319 319 319 319 320 319 318 319 319 320 319 320 318 319 321 336 345 342 325 318 315 320 315 311 306 308 311 312 317 321 325 322 321 322 319 323 325 329 333 330 341 342 342
317 317 318 318 318 318 318 318 318 318 320 321 320 319 318 316 326 330 323 318 315 314 318 319 314 314 310 309 309 316 316 316 321 321 322 318 319 317 324 331 329 331 338 338 341
317 317 317 317 318 318 318 317 317 317 320 321 320 320 320 319 323 322 314 314 315 316 318 319 318 312 312 311 316 317 312 313 316 319 318 321 315 314 322 331 332 336 338 339 340
316 316 316 316 316 317 317 316 316 317 321 320 320 320 315 328 325 322 316 317 318 322 322 319 319 314 313 318 317 311 310 304 316 319 321 317 306 318 322 323 323 337 339 341 338
315 315 315 315 316 316 315 315 316 318 322 322 320 318 315 327 320 323 322 320 321 321 318 322 318 314 316 309 304 307 301 308 312 319 318 315 310 323 324 326 325 327 335 338 336
315 315 315 315 315 315 314 317 319 320 322 326 325 315 321 319 320 322 322 324 318 315 314 316 311 307 307 303 297 303 306 310 309 317 315 313 312 321 324 322 324 326 324 328 335
314 314 314 314 314 313 311 312 313 318 317 317 315 313 317 324 324 320 320 321 318 312 304 310 302 300 305 307 309 308 306 310 313 319 313 312 312 320 321 322 321 323 321 323 335
313 313 313 313 312 312 310 310 309 309 302 312 313 314 318 321 317 319 321 313 312 305 308 303 299 306 311 311 309 306 303 303 309 316 313 310 310 318 320 318 317 319 321 326 331
312 313 312 311 311 313 313 313 315 312 302 308 312 311 313 314 316 316 317 313 309 306 307 301 305 311 309 306 304 302 301 303 304 309 310 311 307 313 317 317 318 324 326 324 324
312 312 311 308 309 311 312 316 314 314 297 304 306 310 313 312 308 320 319 313 309 306 308 306 311 310 308 305 304 296 306 306 307 302 296 306 294 309 311 311 315 319 321 323 327
312 312 310 308 307 308 313 314 313 309 290 310 308 316 312 308 309 311 320 313 307 308 308 305 309 308 306 306 307 301 307 305 308 301 299 301 296 306 311 309 313 317 322 321 325
311 310 309 310 309 314 317 315 309 296 290 305 308 306 305 307 309 311 313 316 315 309 310 310 314 311 307 310 309 310 305 304 303 299 291 297 297 301 307 311 314 318 321 320 324
309 308 306 309 306 311 311 308 293 291 306 302 303 306 304 303 305 306 309 307 304 299 300 307 308 311 312 306 308 306 300 291 291 291 290 305 302 302 311 316 318 318 321 333 341
307 307 309 310 309 311 310 299 290 300 299 306 305 306 302 305 305 305 303 304 309 306 301 299 298 308 311 306 302 302 299 292 287 290 295 306 300 308 314 319 322 334 337 332 330
306 309 311 312 312 310 303 292 294 300 305 304 304 301 301 304 304 304 302 301 304 307 299 299 302 313 313 311 307 301 298 303 295 295 293 299 305 312 319 320 320 333 333 328 328
303 306 308 316 315 308 299 294 298 304 305 304 298 302 298 301 299 299 302 306 306 309 310 304 298 308 313 311 309 303 305 295 295 289 287 297 302 303 312 312 322 326 330 328 333
306 306 315 316 313 302 293 296 300 305 305 302 300 299 300 300 301 300 302 307 310 309 311 307 301 303 308 304 303 303 299 298 298 296 289 293 300 311 313 318 319 321 332 332 330
306 300 313 316 300 300 296 300 300 303 305 304 304 302 299 301 299 301 302 306 311 311 305 307 303 298 302 309 311 305 302 300 294 295 298 300 303 316 316 317 320 323 323 334 333
300 305 315 313 296 297 300 300 302 302 303 302 302 304 303 299 297 304 306 311 312 310 306 310 298 294 297 303 306 303 304 303 303 302 295 295 300 317 319 319 318 317 324 330 331
302 301 306 310 307 302 300 300 300 305 303 305 303 304 301 298 301 301 303 310 311 314 325 314 304 297 294 301 306 305 306 305 300 296 295 297 306 311 313 312 316 317 319 326 331
305 304 306 300 302 304 304 301 299 300 307 305 302 303 300 296 298 299 304 305 309 316 308 308 301 303 306 309 308 309 307 308 302 301 299 300 308 311 315 314 316 327 322 330 334
302 300 303 301 305 303 303 303 302 302 304 304 301 303 302 298 302 300 302 302 304 309 303 307 303 305 305 310 310 308 310 311 310 307 303 306 307 318 316 321 324 320 320 315 332
305 306 302 300 300 299 301 302 303 305 304 307 307 303 301 303 310 309 307 307 308 311 307 307 303 304 298 308 308 301 309 311 310 311 306 304 309 315 314 320 326 327 325 333 333

GFSSW_sfc_thetae_006.txt.gz
Theta_e
321 321 321 321 322 322 322 322 322 322 322 322 320 321 321 321 321 319 310 317 319 349 347 323 326 321 322 320 318 317 311 309 314 316 319 326 324 330 331 328 332 333 332 338 347
320 320 320 320 321 321 321 321 321 321 320 320 319 321 321 321 318 314 329 343 345 352 316 320 320 323 317 313 313 309 306 312 320 323 318 323 324 324 322 323 326 333 344 346 348
319 319 320 320 321 321 321 321 321 320 319 320 319 321 321 320 319 321 347 349 349 341 315 320 319 318 312 310 309 310 310 317 319 323 323 320 321 323 321 316 321 332 340 343 345
319 319 319 320 320 320 320 320 320 319 319 320 320 321 321 318 311 329 351 349 348 322 315 313 314 309 305 304 309 305 314 318 321 324 324 321 321 322 323 322 327 343 345 344 343
318 318 318 319 319 319 319 319 319 318 319 321 321 321 317 315 318 334 347 345 323 316 311 311 314 310 303 305 308 305 309 314 319 322 321 322 321 323 324 329 332 346 344 342 344
317 317 317 318 318 318 318 318 318 318 318 320 321 320 317 311 328 335 324 319 314 313 313 316 314 312 307 306 305 309 312 314 316 318 321 317 319 321 326 328 337 342 341 341 343
316 316 317 317 317 318 318 318 317 317 318 320 320 320 318 310 323 326 313 310 312 311 314 318 317 309 309 308 314 314 309 311 315 317 316 318 313 311 325 326 336 338 338 339 342
316 316 316 316 316 317 317 316 316 317 318 320 320 318 306 325 319 317 311 312 312 311 316 320 319 310 308 314 314 310 307 303 313 316 318 315 305 316 327 329 328 329 327 330 330
315 315 315 316 316 316 315 315 318 318 319 321 316 316 313 326 317 316 314 315 314 313 316 322 314 309 312 306 301 302 298 306 309 316 316 315 309 318 324 328 320 322 324 325 331
315 315 315 315 315 315 314 316 319 318 321 324 324 309 313 318 318 318 317 319 316 313 312 312 308 304 303 300 294 299 303 307 307 312 314 311 310 314 321 325 322 323 327 327 332
314 314 314 314 314 313 309 306 304 306 315 314 308 311 315 322 321 317 320 318 316 309 301 306 301 297 301 304 306 305 303 306 310 314 312 308 311 315 323 324 321 320 322 324 328
313 314 314 313 312 312 306 306 305 306 299 308 311 312 317 317 312 315 317 311 310 303 305 301 297 304 308 308 306 305 301 301 308 315 311 309 309 316 319 320 318 318 320 322 327
313 313 312 312 311 309 307 308 312 307 298 304 308 307 308 311 309 313 313 311 308 305 304 299 303 309 306 304 302 299 297 299 300 306 311 308 304 311 315 318 317 320 324 327 328
312 312 311 309 306 304 306 311 310 308 293 300 303 307 309 310 305 321 316 312 307 304 305 303 309 307 306 303 302 294 303 303 302 300 294 304 292 304 309 309 316 319 321 324 327
311 311 310 309 300 304 309 309 310 305 284 306 304 312 308 306 307 310 318 310 304 305 304 303 306 305 305 306 306 300 304 302 303 298 295 298 293 297 309 307 309 318 322 323 329
310 310 309 305 301 307 308 305 304 293 286 303 305 304 302 304 306 309 311 312 311 306 306 305 311 308 307 310 308 308 303 300 299 294 290 295 294 294 305 308 311 316 320 319 330
309 308 306 306 297 303 304 301 290 287 301 299 298 300 299 300 302 304 306 303 301 296 296 303 305 309 311 304 305 303 294 288 288 289 289 296 299 300 311 314 315 315 318 320 322
307 307 305 306 303 304 302 295 285 296 296 302 301 300 297 300 300 302 303 301 304 302 298 296 296 305 310 304 300 298 295 290 285 287 292 299 295 304 316 319 321 318 322 337 335
306 301 302 305 307 303 298 288 289 295 302 300 299 296 296 301 301 300 300 303 306 305 298 295 298 309 310 308 305 299 295 298 292 290 290 293 302 310 315 317 330 331 331 330 329
298 299 300 309 307 302 294 291 295 301 301 299 294 297 293 297 296 296 297 302 305 310 304 300 295 305 309 309 306 302 302 293 291 287 285 292 300 299 308 312 328 330 326 326 329
299 298 306 310 304 296 289 291 297 301 302 298 295 295 295 296 295 293 296 303 305 305 307 300 297 302 305 301 298 300 296 294 294 292 288 288 296 308 312 315 318 323 328 327 329
295 293 305 308 295 291 291 297 300 299 302 300 299 297 296 297 294 295 297 301 307 307 301 303 297 295 299 305 308 303 300 296 291 289 293 295 299 311 312 318 321 324 330 332 333
290 295 307 303 289 289 293 297 299 299 299 299 298 300 299 295 291 297 301 307 307 308 301 302 295 291 295 298 303 300 300 298 295 294 292 291 296 315 316 315 320 322 321 330 333
293 294 299 300 297 294 293 295 297 304 301 301 299 298 296 294 294 294 297 304 307 308 322 310 295 295 292 295 301 301 305 303 297 292 292 294 302 309 313 312 317 319 318 327 331
296 295 296 291 295 296 296 299 297 297 301 302 299 298 296 289 293 293 297 300 304 312 306 303 296 299 301 306 307 306 305 307 299 298 296 298 305 310 313 313 316 318 318 325 321
294 293 295 293 296 294 295 296 299 301 299 298 296 301 298 293 295 294 295 294 299 307 303 302 295 303 300 306 308 306 308 309 309 309 301 307 306 313 314 317 318 317 321 322 323
297 297 294 294 291 290 292 299 301 303 305 307 306 299 298 298 300 304 302 301 301 305 304 305 298 297 295 304 304 299 304 308 309 310 307 302 308 316 314 318 320 317 319 319 323

GFSSW_sfc_thetae_009.txt.gz
Theta_e
321 321 321 321 321 321 321 321 321 321 320 319 320 319 321 321 321 317 307 314 315 349 346 332 330 318 320 318 318 319 307 307 312 314 316 323 322 328 330 327 330 330 332 338 345
320 320 320 321 321 321 321 321 321 320 320 319 319 319 321 321 317 312 327 342 344 352 316 317 318 320 316 314 312 307 303 309 318 320 319 324 324 325 323 324 327 334 342 343 347
319 319 320 320 320 320 320 321 320 320 319 320 320 320 321 320 317 320 342 347 347 346 313 320 319 319 312 309 309 308 305 314 317 322 323 321 324 327 321 318 321 331 336 341 343
318 319 319 319 320 320 320 320 320 319 319 320 321 320 321 317 310 327 349 348 349 325 312 311 311 306 305 303 307 303 311 312 314 316 321 319 320 319 321 319 325 339 341 342 341
318 318 318 318 319 319 319 319 319 319 318 320 321 321 315 310 313 336 351 348 323 313 309 310 311 309 303 303 305 303 306 311 313 316 319 323 319 320 320 329 341 342 342 341 342
317 317 317 317 317 318 318 318 319 318 318 320 321 320 315 304 328 332 324 314 312 310 310 312 313 311 306 305 304 307 309 312 312 317 320 317 318 321 324 341 341 341 340 341 342
316 316 316 316 317 317 318 317 317 317 318 319 320 319 314 304 326 323 315 311 310 311 312 315 316 308 307 306 311 312 308 310 312 314 314 317 313 311 323 341 339 339 340 336 336
315 315 315 316 316 316 316 316 316 318 317 319 320 316 307 319 322 316 308 308 310 307 312 317 317 310 306 311 310 307 305 302 310 314 316 312 305 318 327 335 334 334 334 334 336
314 315 315 315 315 315 314 315 319 319 319 320 315 314 309 323 313 314 311 312 311 308 310 320 312 306 310 304 300 300 296 301 307 314 314 311 306 321 329 330 326 326 328 332 334
314 314 315 314 314 314 313 314 319 319 320 322 323 306 307 316 316 313 312 317 314 311 310 309 305 302 301 299 291 297 300 302 303 310 311 309 310 319 326 325 324 324 326 328 329
314 314 313 313 313 313 309 305 302 302 312 305 303 306 311 318 319 314 316 316 314 307 299 303 299 295 300 302 304 303 301 300 305 309 309 306 309 316 321 320 319 320 325 323 328
312 313 313 312 312 312 306 306 303 303 298 306 309 312 315 315 308 313 317 310 308 302 303 299 295 301 305 304 304 302 299 298 302 308 309 306 309 317 320 320 319 318 321 325 328
312 312 311 311 310 306 302 305 308 305 297 302 305 305 305 309 307 308 313 309 306 302 301 297 301 307 305 302 301 298 295 296 297 301 306 306 304 309 314 318 318 319 320 324 325
311 311 310 309 303 302 305 308 304 304 291 297 301 305 306 308 304 315 313 310 306 303 303 301 306 306 304 302 301 294 301 300 299 297 292 302 291 303 307 311 313 315 319 322 326
310 310 310 309 299 301 308 305 304 303 283 302 302 309 303 305 307 311 314 309 304 303 302 300 304 303 303 304 303 300 303 300 301 296 293 295 291 294 305 305 311 314 318 323 324
310 309 308 303 299 303 306 302 302 290 284 299 303 301 300 301 304 309 309 310 309 304 303 302 308 306 305 308 307 307 301 297 296 292 288 292 292 294 303 306 307 314 319 323 324
309 308 305 305 295 301 301 299 289 285 298 297 296 297 296 298 301 304 304 302 299 293 293 300 302 305 309 303 304 299 293 287 287 286 287 295 296 299 307 312 313 313 317 320 329
307 307 306 305 302 302 299 294 283 292 293 300 299 297 296 298 298 301 301 299 302 299 296 294 294 303 307 304 301 296 294 289 284 285 288 296 293 302 314 316 318 317 318 323 326
306 298 299 303 305 301 296 285 286 292 299 298 297 294 294 298 298 298 299 299 301 302 297 293 296 307 307 306 304 298 293 295 289 287 288 291 300 310 313 323 326 324 333 331 330
297 297 299 305 305 300 293 288 290 298 299 297 292 294 291 294 294 294 295 300 302 305 302 298 294 300 306 306 305 301 301 293 289 286 284 289 298 299 307 317 326 326 325 328 330
298 296 303 305 301 296 289 289 295 299 300 296 293 293 293 294 293 291 294 300 304 304 305 298 295 299 302 299 298 297 294 292 292 290 287 286 293 305 309 313 324 325 327 327 324
291 294 303 301 291 289 289 294 298 296 297 297 297 296 294 295 292 293 294 299 304 303 300 300 294 293 296 303 305 299 297 294 291 289 290 292 294 311 312 314 319 325 326 329 330
289 292 304 301 288 287 291 296 296 295 296 295 296 298 297 293 290 294 298 304 303 301 297 299 293 290 293 296 300 298 298 294 293 290 290 289 292 314 314 316 321 324 328 330 330
293 293 297 298 293 293 293 296 297 303 299 299 298 298 296 293 292 293 295 301 302 303 321 307 292 293 292 294 299 300 303 299 294 291 290 292 293 307 310 311 318 318 325 330 331
295 292 294 290 293 293 294 298 298 298 300 299 297 297 295 289 291 292 295 297 302 309 306 299 294 295 296 299 304 304 305 303 298 296 294 296 299 303 311 312 316 317 322 329 326
292 292 293 291 292 291 292 293 297 300 298 297 298 303 300 291 293 293 293 292 295 302 303 303 293 300 297 304 305 304 305 307 306 305 300 300 301 308 312 314 315 316 318 322 322
293 294 293 292 290 290 290 296 299 301 303 305 305 301 298 300 303 300 297 300 300 301 300 303 296 294 292 301 301 295 303 306 306 309 307 302 304 311 311 313 314 315 318 320 323

GFSSW_sfc_thetae_012.txt.gz
Theta_e
320 321 321 321 321 321 321 321 321 321 321 320 319 319 319 321 321 315 302 312 315 342 346 331 324 316 319 317 317 318 304 307 310 312 313 320 319 326 328 325 330 329 335 339 350
320 320 320 320 320 321 321 321 321 321 320 320 320 319 321 321 316 311 323 335 338 350 314 319 314 318 314 313 311 306 302 308 316 319 317 322 322 323 322 323 326 330 340 346 353
319 319 319 319 320 320 320 320 320 320 319 320 321 321 321 320 315 317 341 339 343 345 311 320 316 318 309 308 307 308 303 312 316 322 321 320 323 324 321 317 323 326 335 343 348
318 318 318 319 319 319 319 319 319 319 319 319 321 321 321 316 309 325 346 347 344 332 310 311 309 305 304 302 306 302 308 310 309 317 320 318 320 321 323 322 326 335 339 342 344
317 317 318 317 318 318 318 318 318 318 318 319 321 321 313 307 310 337 349 349 327 313 307 309 308 307 301 302 305 302 305 308 311 311 315 320 318 321 320 326 332 339 339 339 342
316 316 316 317 317 318 317 318 318 317 318 318 320 320 313 298 326 337 328 314 312 307 307 313 312 310 305 304 303 306 307 309 311 312 317 317 317 319 325 337 337 338 338 340 340
315 315 316 316 316 317 317 317 316 317 318 318 320 319 310 301 325 321 312 309 309 307 308 312 315 307 305 303 308 310 306 309 310 312 312 316 312 313 328 338 336 336 338 340 342
315 315 315 315 315 316 316 315 316 321 318 319 320 314 302 317 323 317 309 306 307 306 310 314 315 309 304 308 308 303 302 301 308 312 313 311 304 315 333 336 334 336 338 338 339
314 314 314 315 315 315 314 314 318 319 320 320 312 311 301 320 312 312 309 308 308 306 307 316 310 304 308 301 297 298 295 299 305 311 312 310 305 319 329 335 332 334 334 335 337
313 313 314 314 314 314 313 314 320 319 319 322 322 300 304 313 314 311 309 313 311 309 308 307 304 300 300 298 288 293 297 299 300 306 308 307 307 319 325 329 328 329 331 332 331
313 313 313 313 313 313 309 303 301 301 305 301 302 302 308 315 317 310 313 313 310 306 298 301 297 294 298 301 302 301 299 298 301 305 305 305 309 317 323 322 324 325 325 326 326
311 312 312 312 312 312 304 302 302 302 296 303 305 310 313 313 306 311 316 309 307 301 301 298 294 300 302 302 301 300 298 297 300 303 306 305 308 314 319 319 321 324 322 324 328
311 312 311 311 311 305 301 303 305 300 295 300 304 303 305 308 305 308 313 309 304 301 299 296 299 304 303 301 299 296 294 295 296 299 303 305 301 309 314 319 321 321 320 323 325
311 311 310 309 301 302 304 307 302 302 289 294 299 303 304 305 303 313 313 309 305 302 301 300 304 304 302 301 300 293 300 300 298 295 290 299 291 296 306 309 314 318 317 321 326
310 310 309 309 300 297 305 303 302 301 283 300 299 306 302 304 306 307 312 308 302 302 301 298 302 301 302 303 302 300 302 299 299 294 292 295 291 295 305 305 307 314 315 321 325
310 308 308 302 297 301 303 302 300 288 283 297 301 298 298 299 302 308 307 309 308 302 301 301 306 304 303 306 305 307 299 296 293 291 287 291 291 294 299 305 308 314 317 321 323
308 308 305 305 294 301 301 298 288 283 295 295 294 296 294 295 298 304 303 301 299 293 292 298 300 303 306 301 302 298 292 287 287 286 286 293 294 297 304 310 313 313 316 321 325
306 306 304 304 301 300 297 293 281 290 291 298 296 295 293 296 297 301 301 298 300 298 294 292 292 300 305 301 299 295 294 288 283 284 288 294 291 299 311 315 318 317 318 327 329
305 296 297 300 305 299 294 284 284 289 297 296 295 292 292 295 297 296 298 298 301 301 295 292 294 304 305 303 303 296 292 294 288 287 287 290 297 306 313 322 314 319 322 327 330
296 296 298 303 303 298 291 286 287 295 297 295 290 292 289 293 292 292 295 298 300 303 300 296 292 299 304 303 303 299 300 292 289 284 283 288 295 297 305 316 323 325 324 327 330
295 296 301 302 298 295 287 287 293 298 297 293 291 291 291 292 291 290 292 298 302 301 302 297 294 295 300 297 297 295 293 291 290 289 286 285 291 303 307 314 321 323 327 328 328
291 293 302 299 291 287 288 292 297 295 295 294 295 294 293 293 290 291 292 296 301 300 298 297 292 291 295 300 303 298 296 293 290 288 289 289 292 309 309 314 324 324 328 329 323
291 293 303 299 285 286 290 293 295 294 295 294 294 296 295 292 290 293 296 301 301 298 296 298 292 288 291 294 298 298 296 293 291 291 291 290 292 311 312 314 320 325 327 327 329
294 293 296 296 292 292 293 295 296 302 298 298 295 295 293 291 292 292 294 299 301 300 321 305 290 291 288 292 296 299 301 297 294 290 289 291 294 303 310 312 318 323 326 328 329
294 291 292 289 292 292 293 296 296 296 301 298 296 297 297 289 289 291 294 296 300 308 302 298 294 291 293 296 301 303 303 299 297 296 296 298 296 301 309 312 317 321 327 328 328
292 291 291 290 291 288 292 292 296 299 298 296 298 302 300 291 291 292 294 291 294 299 300 300 293 298 295 303 304 303 305 304 304 301 299 300 299 305 309 315 316 318 326 326 327
291 292 292 290 289 288 290 294 298 299 301 303 303 300 298 297 305 306 301 297 294 298 298 301 295 293 291 299 300 294 302 304 305 306 305 301 305 311 310 313 315 316 324 323 325

GFSSW_sfc_thetae_015.txt.gz
Theta_e
321 320 320 321 321 321 321 321 322 322 322 321 321 320 319 321 321 318 307 316 319 336 344 331 323 322 326 324 322 324 318 316 316 316 317 326 324 329 331 328 330 335 337 343 354
319 320 320 320 320 320 320 321 321 321 321 320 321 322 320 321 318 314 328 334 336 345 324 319 318 325 323 319 319 317 317 317 322 323 318 324 325 327 327 327 328 330 341 349 354
319 319 319 319 320 320 320 320 321 320 320 320 320 322 321 322 320 323 344 338 339 344 316 325 321 321 316 317 315 315 315 317 317 324 325 321 324 329 326 324 329 329 338 350 352
318 318 318 318 319 319 319 319 320 319 319 319 320 322 322 320 312 328 344 343 348 331 315 318 316 314 312 310 311 310 313 315 314 318 322 319 325 326 328 328 331 334 343 349 350
317 317 317 318 318 318 319 319 319 318 318 319 320 322 319 312 311 339 349 345 332 319 312 315 314 314 309 310 311 309 310 314 316 316 316 319 321 324 326 332 332 337 343 347 349
316 316 316 316 317 317 318 318 318 317 318 318 319 321 319 305 328 337 331 321 319 314 312 318 317 316 312 310 310 312 314 315 317 317 321 320 321 323 327 332 334 339 341 345 347
315 315 315 315 316 316 317 317 316 318 319 319 319 320 314 307 328 327 319 316 316 313 312 316 320 316 314 310 315 315 312 315 317 319 318 321 317 319 329 336 335 338 341 344 346
314 314 314 315 315 315 316 315 316 321 319 319 320 321 308 321 326 320 315 314 314 315 317 320 321 317 313 315 313 310 311 308 314 318 319 318 311 319 336 336 335 338 340 342 346
313 313 314 314 315 315 314 314 318 320 321 321 322 321 306 323 318 320 316 311 312 312 314 317 318 314 315 309 306 308 305 307 311 316 315 317 313 323 338 337 335 338 341 342 344
313 313 314 314 314 314 313 314 321 322 322 323 323 310 311 315 317 315 315 315 314 312 313 313 313 312 312 308 298 302 304 307 307 311 312 311 313 320 333 337 336 338 341 341 340
312 313 313 313 313 312 313 313 311 309 310 309 309 305 309 317 319 314 315 317 315 313 308 309 306 303 306 309 308 307 305 304 309 311 309 311 313 320 327 333 334 337 339 340 336
311 312 312 312 312 312 310 309 307 307 304 307 307 309 314 316 311 314 319 315 313 307 307 307 303 307 307 308 307 305 304 305 308 307 312 312 313 319 324 328 331 333 336 337 335
311 311 311 311 310 309 307 309 309 309 303 304 307 307 309 313 309 313 317 314 311 307 306 305 305 307 307 306 305 305 304 304 304 306 311 311 309 315 320 325 328 329 331 333 333
310 310 310 309 305 305 309 310 307 308 300 300 304 307 309 311 308 316 319 315 310 308 306 307 309 306 306 305 306 304 307 306 305 304 301 307 300 310 312 317 320 326 328 327 330
310 310 309 309 305 302 308 307 308 306 291 302 305 311 308 308 310 311 318 314 309 307 308 304 306 306 306 307 308 306 307 306 305 304 303 303 302 308 311 314 316 323 327 328 332
309 308 308 306 303 305 307 307 308 296 290 300 305 304 304 307 308 311 313 315 313 308 307 307 310 309 308 310 310 310 305 304 304 304 298 301 302 305 310 314 317 319 326 328 330
308 307 306 307 302 306 306 306 295 290 300 299 300 302 302 303 305 309 308 308 306 302 303 305 306 309 310 306 309 307 305 301 297 297 297 303 303 307 312 316 319 320 323 327 330
306 306 306 307 308 307 306 301 289 293 294 301 300 300 300 302 304 307 306 305 307 306 303 300 298 306 309 308 306 306 307 301 293 295 298 303 301 308 317 322 324 325 325 327 329
305 304 304 307 308 307 305 293 293 293 299 298 300 298 299 301 302 304 306 305 308 309 303 301 300 308 309 310 310 304 303 305 301 298 299 302 305 313 320 324 321 322 324 327 331
302 305 306 309 309 307 302 292 294 297 300 299 296 298 297 298 300 302 303 305 306 309 312 306 299 305 308 310 308 308 308 302 302 296 294 299 301 305 314 320 322 322 324 331 338
302 304 307 308 306 305 296 295 297 301 300 298 297 297 298 297 299 299 300 303 306 306 310 308 305 302 306 306 305 304 304 303 304 301 298 297 302 316 317 321 325 326 328 333 335
300 299 309 306 300 297 297 297 298 299 300 300 300 299 298 299 298 299 299 302 305 307 304 308 305 301 302 307 308 307 306 307 302 300 301 302 302 313 319 320 329 327 331 334 336
301 302 310 306 293 296 297 297 299 300 300 300 299 300 301 299 298 299 300 305 305 306 307 307 304 299 300 304 306 306 306 306 306 306 303 300 303 314 321 321 328 330 333 331 332
303 299 304 304 300 298 299 299 298 305 302 302 301 303 302 300 300 299 300 303 304 306 320 312 306 305 298 301 306 305 304 305 307 303 303 303 306 313 316 321 326 333 335 332 332
302 298 298 296 299 299 299 300 300 300 305 306 301 305 303 299 298 298 300 302 304 313 310 311 306 304 305 303 304 306 308 304 306 309 305 309 307 316 318 320 325 333 336 333 330
300 299 298 298 296 297 298 299 300 301 303 302 303 305 305 301 300 300 304 303 302 308 310 310 306 306 305 307 304 303 307 309 308 307 307 308 310 317 319 323 326 331 333 334 332
298 300 299 293 296 296 298 300 300 303 305 307 305 305 304 304 308 310 310 310 308 304 306 310 310 306 301 306 307 303 308 310 311 313 312 309 316 319 319 321 326 331 333 333 334

GFSSW_sfc_thetae_018.txt.gz
Theta_e
320 321 321 321 321 321 321 321 322 322 322 322 322 321 322 322 322 324 315 319 322 343 346 325 322 322 333 329 327 328 323 318 317 316 318 326 324 332 335 332 333 337 337 345 354
320 320 320 320 321 321 322 322 322 322 321 321 321 321 323 322 324 320 329 333 333 339 325 318 316 324 329 326 326 324 322 318 321 321 320 323 325 328 330 330 331 334 342 351 353
319 319 319 320 320 320 321 321 322 321 321 321 321 322 323 324 325 325 341 337 338 341 323 324 325 322 322 325 322 323 320 320 318 320 322 323 324 329 328 326 331 333 340 350 350
318 318 318 319 319 320 320 321 321 320 320 320 320 322 323 328 313 331 344 341 343 324 324 323 320 316 317 319 318 318 318 317 318 320 320 321 326 326 328 329 334 336 344 349 349
317 317 317 317 318 319 319 319 320 319 319 319 320 322 325 318 317 340 347 344 333 321 321 319 317 317 314 316 316 316 316 318 320 321 322 323 322 325 327 332 336 337 344 346 349
316 316 316 317 317 318 318 319 318 319 319 319 320 321 322 310 328 336 327 324 322 319 322 322 319 319 316 315 315 317 318 319 321 322 323 322 322 325 329 335 333 337 341 344 347
315 315 315 316 316 317 318 317 317 318 321 320 320 324 317 313 330 329 325 322 321 318 320 323 323 319 318 315 318 318 316 320 321 321 319 324 320 321 329 335 334 337 340 343 348
314 314 314 315 315 316 316 315 317 321 320 320 322 326 312 324 331 324 324 321 321 320 324 326 324 319 317 319 317 315 316 313 318 319 320 320 314 323 332 334 333 337 339 344 349
313 313 314 314 315 315 314 315 319 320 321 323 327 324 311 326 322 326 324 318 317 319 322 321 322 318 317 312 309 311 308 308 311 318 316 316 314 323 334 335 333 339 341 344 347
313 314 314 314 314 314 313 315 322 322 325 327 327 317 316 314 321 324 324 319 314 317 318 318 317 314 313 310 303 305 306 308 309 315 314 312 314 319 329 334 334 339 342 344 347
312 313 313 313 313 313 316 322 320 317 317 315 314 310 313 322 323 321 320 319 317 317 312 314 310 308 309 312 311 310 308 307 310 315 312 312 314 318 328 333 335 339 343 345 345
311 312 312 312 312 312 316 315 312 313 309 314 313 313 316 320 316 319 322 317 315 311 313 311 307 311 310 311 310 309 309 308 312 312 312 313 313 317 324 329 332 337 341 343 344
311 311 311 311 311 314 316 313 315 315 310 310 312 311 313 318 316 317 320 319 314 311 311 309 310 311 310 309 308 309 308 308 308 312 313 312 311 313 322 327 331 335 340 344 344
310 311 310 308 310 311 315 315 316 315 306 306 307 311 313 316 312 323 322 319 315 311 311 310 313 310 309 308 310 307 311 310 309 309 305 311 303 312 316 319 325 330 334 339 343
310 309 309 308 312 310 314 314 316 314 296 306 308 316 314 312 314 315 324 319 313 312 312 309 310 309 308 309 312 310 312 311 310 309 307 308 305 310 314 314 321 327 332 335 339
309 308 308 311 313 311 313 314 315 302 295 304 309 307 307 310 312 316 318 320 318 313 313 311 314 313 312 313 314 314 311 311 311 308 302 307 305 308 312 317 321 324 330 334 336
308 308 308 312 310 313 314 313 301 296 304 303 305 308 308 307 310 313 313 312 309 306 307 310 311 314 314 310 313 312 309 302 301 301 301 310 306 309 314 318 323 325 329 334 338
307 307 309 313 315 315 314 306 296 299 300 305 305 306 305 307 309 310 311 309 313 311 309 304 302 309 313 311 309 310 309 303 297 299 303 308 302 311 320 323 327 328 329 334 336
306 314 313 316 316 314 310 299 300 299 303 302 304 303 304 305 306 309 309 310 312 313 306 305 303 312 313 313 312 309 306 312 307 307 302 305 308 314 320 322 326 328 330 331 333
310 314 314 316 316 311 306 299 300 303 303 303 301 303 302 305 304 306 308 310 310 313 315 309 303 309 310 312 313 312 314 305 307 299 298 303 304 310 315 319 326 325 328 332 337
311 309 311 314 313 308 300 302 300 305 304 303 302 302 304 303 306 306 307 307 310 311 314 312 308 307 309 308 308 309 308 310 310 308 302 300 305 315 316 320 326 328 329 339 343
311 304 313 316 302 305 301 302 300 304 305 303 305 304 304 303 304 305 305 308 308 312 309 313 310 304 306 311 312 312 311 312 305 306 307 306 306 316 320 325 329 330 332 340 342
310 308 315 314 298 299 303 301 302 302 303 302 302 305 305 304 302 304 305 308 308 311 312 313 308 303 305 309 311 308 311 312 313 314 307 304 306 321 322 326 329 331 335 340 342
311 302 306 309 310 303 301 300 300 306 304 304 304 305 304 304 307 304 305 306 308 310 320 316 312 307 302 306 310 307 308 311 312 307 307 308 310 315 317 321 331 334 337 339 338
312 306 305 300 304 304 305 303 300 302 305 306 304 303 303 302 304 304 305 306 308 311 314 314 309 310 309 309 309 308 308 309 310 311 308 310 310 315 323 324 328 337 339 336 336
307 307 308 307 304 304 301 302 301 303 305 304 304 306 307 304 304 303 307 308 307 312 313 315 310 311 307 309 310 307 308 311 312 312 312 312 312 324 326 329 329 338 339 335 337
309 310 307 299 304 301 303 304 303 306 308 310 308 308 306 308 311 313 315 316 314 311 309 312 311 309 303 309 309 305 308 309 312 314 313 309 316 325 325 327 329 336 340 338 335

GFSSW_sfc_thetae_021.txt.gz
Theta_e
321 321 321 322 322 322 322 323 322 323 322 323 323 323 324 324 323 328 320 321 324 345 339 326 324 323 327 333 332 333 322 317 317 318 320 326 325 329 334 333 334 336 338 343 351
320 320 320 321 322 322 322 323 323 323 322 322 322 322 323 324 328 325 326 339 341 339 329 321 317 320 326 330 330 326 318 319 323 322 321 323 323 325 328 330 333 335 343 348 350
319 319 319 320 320 321 322 322 322 322 322 321 322 322 323 325 329 327 338 337 338 336 327 324 322 322 324 329 326 327 320 321 321 322 322 323 324 327 325 324 333 335 342 346 348
318 318 318 319 319 320 321 321 321 321 321 321 321 322 324 330 317 331 343 341 343 333 324 323 321 318 320 322 325 321 322 321 321 322 321 321 324 324 325 329 335 338 345 347 347
317 318 318 318 318 319 319 319 320 320 320 321 321 322 326 324 324 334 345 338 330 323 321 321 318 319 318 321 322 321 320 322 323 323 324 324 323 322 324 331 337 340 344 346 346
316 317 317 317 318 318 319 319 319 319 320 322 322 321 327 314 332 331 327 328 324 322 322 322 320 321 320 319 320 322 321 323 324 323 324 321 323 324 329 334 335 338 342 344 346
315 315 316 316 317 317 318 317 317 319 323 323 321 326 320 317 333 332 327 325 323 322 321 325 324 319 321 319 322 321 319 322 322 322 321 323 319 321 328 334 333 336 341 343 347
314 314 315 315 316 316 316 316 317 322 322 321 323 328 317 325 333 328 328 324 324 323 326 327 326 322 319 322 319 318 319 313 321 320 321 320 315 323 330 332 332 337 339 342 347
314 314 314 315 315 315 315 315 320 324 323 324 330 324 316 325 322 329 328 321 321 323 325 325 324 320 318 313 311 314 309 313 313 320 318 317 314 323 331 332 333 338 339 343 347
313 314 314 314 314 314 314 315 323 324 326 331 328 319 318 314 322 327 328 322 318 319 319 320 319 315 314 312 305 308 309 310 309 316 317 315 315 319 326 330 333 338 341 343 346
313 313 313 313 313 313 315 324 323 321 324 317 318 314 315 324 325 323 325 320 320 316 313 317 312 309 312 313 314 312 310 308 312 315 314 314 314 317 323 325 331 337 342 343 346
312 313 313 312 312 312 316 319 316 316 311 318 317 317 319 324 316 320 324 316 315 311 316 313 308 314 313 312 311 310 309 309 312 315 314 314 314 318 320 324 329 335 342 342 346
311 312 312 311 311 314 320 318 321 320 312 314 316 314 316 320 317 317 320 318 315 312 313 310 313 314 311 310 309 310 309 310 309 314 315 313 312 315 319 324 329 332 339 343 345
311 311 311 309 310 316 316 321 321 321 307 309 310 313 316 318 315 324 322 320 317 313 313 312 315 311 311 310 311 308 314 311 310 310 307 314 303 314 317 320 326 330 333 338 345
310 310 310 308 313 312 319 320 321 319 298 311 311 319 317 314 316 317 324 321 315 314 314 311 311 311 309 310 312 311 315 312 312 310 310 310 307 312 317 314 321 324 332 335 343
310 309 309 315 317 316 317 319 319 304 297 307 312 310 310 312 314 318 320 323 321 316 316 314 316 315 313 314 314 315 313 313 313 310 303 309 308 307 314 318 318 325 331 335 340
309 308 309 315 313 317 317 316 303 299 309 306 307 310 310 309 311 314 314 314 312 308 309 312 313 315 315 311 315 314 310 303 303 303 302 312 307 310 316 319 320 323 330 335 338
307 307 312 313 318 316 315 308 299 305 305 310 309 310 307 310 311 312 313 311 315 313 310 307 305 313 316 313 311 312 311 304 299 299 302 311 305 312 319 321 325 328 332 335 338
305 317 314 317 317 316 311 301 303 306 307 306 307 306 307 309 310 311 312 312 314 315 309 308 306 314 314 315 314 311 307 313 307 308 304 307 310 316 319 320 324 327 331 333 336
312 313 315 319 318 313 306 301 307 307 307 307 304 308 305 307 306 309 310 314 313 316 317 312 306 313 313 314 315 313 316 307 307 300 299 305 307 309 316 319 325 326 329 332 336
314 309 314 316 315 308 301 305 308 308 308 305 304 306 308 307 308 308 309 311 315 315 316 314 311 309 312 310 309 311 309 311 310 309 301 300 304 319 317 320 324 326 330 333 336
314 305 315 316 303 306 303 307 301 307 308 307 308 306 307 308 307 308 308 311 314 314 311 314 312 307 309 314 314 313 312 312 306 306 308 307 305 319 320 322 322 327 331 338 342
312 310 315 314 300 303 307 305 306 306 306 306 306 308 309 306 306 308 309 312 311 313 312 315 309 304 306 310 313 309 311 312 314 314 309 305 306 321 322 322 326 328 332 341 342
313 303 308 308 310 307 305 304 303 307 306 307 307 308 308 307 310 307 307 309 310 312 324 319 312 309 303 306 311 309 309 311 311 307 308 307 311 318 320 321 330 331 335 342 344
313 309 310 301 305 306 307 305 303 303 307 309 306 306 306 305 307 306 309 309 310 311 313 315 310 311 311 310 310 310 309 310 309 311 308 310 309 312 323 325 330 334 340 340 342
309 309 309 310 309 306 303 305 304 305 307 305 305 306 307 305 307 306 309 310 310 313 312 316 310 312 309 311 309 308 309 310 311 311 312 313 312 313 328 331 328 335 339 339 340
311 315 311 304 305 305 306 306 305 307 309 311 309 308 307 309 313 316 317 318 317 315 313 314 312 309 305 309 309 305 309 309 311 314 314 310 316 324 323 329 330 334 339 338 339

GFSSW_sfc_thetae_024.txt.gz
Theta_e
321 321 322 322 323 323 323 323 324 323 323 323 323 324 325 325 324 328 322 322 326 346 338 328 325 323 323 321 331 332 321 315 316 317 318 325 324 327 330 330 334 336 337 343 348
320 320 320 321 322 323 322 323 323 323 323 322 323 323 324 325 328 325 322 345 343 339 319 323 318 320 319 326 329 325 319 317 321 321 320 322 322 325 327 327 330 336 343 345 348
319 319 320 320 320 321 322 322 322 322 322 322 322 323 324 325 329 327 334 340 338 331 327 324 322 321 320 327 327 322 316 320 320 321 322 321 323 326 325 324 325 333 340 343 345
318 318 319 319 319 320 320 321 321 321 321 321 322 323 324 327 318 326 341 342 343 329 327 323 321 318 319 321 326 320 324 321 320 321 321 320 323 322 325 329 335 340 343 344 343
317 317 317 318 318 319 319 319 320 320 320 322 323 324 324 326 326 327 343 335 328 328 321 321 318 318 316 322 322 321 320 321 323 323 323 323 321 322 322 333 336 343 344 343 343
316 316 317 317 318 319 319 319 318 319 321 324 325 322 326 316 334 327 328 324 328 322 322 322 320 322 319 319 319 323 322 321 323 323 323 320 322 323 327 331 334 340 343 344 344
315 316 316 316 316 317 318 318 318 319 323 325 324 325 320 317 333 332 328 325 324 322 321 324 325 320 320 318 323 321 316 320 321 322 319 324 318 320 327 332 333 335 340 344 347
314 315 316 316 316 316 317 316 317 321 326 325 325 327 318 325 331 329 328 325 324 323 325 327 325 321 318 322 319 315 317 312 319 322 320 318 313 322 327 329 330 333 337 341 346
314 314 315 315 315 315 315 315 317 324 328 328 329 325 316 326 319 328 328 322 322 322 325 325 322 318 318 312 310 313 308 311 315 320 317 316 313 322 326 328 330 334 337 339 344
314 314 314 314 314 314 313 314 323 321 328 330 328 318 320 317 320 325 328 324 319 319 319 319 317 313 313 310 303 307 308 309 311 315 317 314 313 318 324 324 330 335 337 340 343
313 313 313 313 313 313 314 320 322 322 320 316 317 313 317 323 324 323 326 321 319 315 311 317 311 307 310 313 313 311 310 308 312 314 313 313 313 316 320 321 324 338 339 341 344
312 313 313 313 312 312 313 317 317 317 310 319 319 319 319 323 316 319 325 315 314 310 313 313 307 313 315 313 311 310 308 308 312 314 314 313 312 317 318 322 325 334 340 340 343
312 312 312 311 311 313 316 319 322 320 310 313 316 315 317 319 316 316 321 316 314 310 312 309 312 315 312 310 308 309 308 309 309 314 315 313 310 315 318 323 324 324 342 340 343
311 311 311 309 310 318 314 322 321 321 305 308 312 314 316 317 313 323 322 317 315 311 312 312 315 312 311 308 311 307 314 311 309 308 304 313 303 316 317 319 323 326 332 337 344
311 311 310 309 311 313 320 321 320 319 296 310 312 320 316 313 315 317 323 318 313 313 315 311 311 310 308 310 312 309 315 313 311 309 308 308 305 313 321 315 320 324 329 336 344
310 310 309 315 315 315 318 319 317 303 295 307 312 310 310 312 313 317 318 320 321 316 316 314 318 314 313 314 313 315 312 311 311 308 302 308 306 308 313 315 318 324 330 339 341
309 308 308 314 313 318 317 312 301 297 308 307 308 310 309 308 310 313 314 312 311 307 308 312 312 314 316 311 315 312 309 302 301 301 301 308 306 311 316 319 320 324 330 335 340
307 307 312 313 317 318 314 307 297 303 304 311 310 309 306 309 309 311 312 310 314 313 309 306 304 312 315 312 310 311 310 303 297 298 301 311 303 309 319 322 324 324 332 335 337
306 317 314 317 316 316 308 299 301 306 309 308 308 306 306 308 309 309 310 310 313 314 308 307 307 315 316 316 313 309 306 311 306 307 301 305 311 317 319 319 323 325 331 333 336
309 314 314 318 318 312 304 299 305 310 309 308 304 307 304 306 306 308 309 313 312 316 317 313 306 312 314 315 314 312 314 305 307 299 298 302 307 306 311 311 323 325 329 334 337
311 310 317 319 316 306 297 301 306 311 309 306 305 306 307 307 308 307 308 313 315 315 317 314 311 310 313 310 309 309 309 309 308 307 300 300 305 318 313 313 324 326 329 333 335
314 305 317 315 302 303 300 304 306 309 310 308 309 309 308 310 308 307 308 311 316 316 312 315 311 306 308 314 315 312 310 311 305 306 307 307 306 318 320 322 327 325 328 334 336
312 311 316 312 297 300 304 304 307 308 307 307 306 309 310 308 306 308 309 313 314 313 312 315 309 303 306 310 313 309 311 310 311 314 309 305 303 316 321 323 323 326 331 340 342
313 303 307 307 307 305 305 304 305 308 307 309 308 309 308 307 309 309 308 311 311 311 324 318 313 308 302 306 310 308 310 311 310 306 307 306 312 316 319 321 321 327 338 342 343
313 310 311 300 301 304 307 307 304 304 307 309 306 307 306 305 306 306 310 311 310 315 313 314 310 310 309 310 310 310 310 310 308 309 306 308 311 315 316 315 318 324 343 342 343
307 308 312 308 310 306 303 305 304 306 307 305 305 307 308 306 308 307 308 310 308 311 312 315 310 310 307 310 310 307 309 310 309 310 310 310 311 319 319 319 319 324 339 343 344
311 312 310 306 306 305 304 304 305 308 309 311 309 308 307 309 313 316 317 318 318 315 315 315 312 310 304 309 309 305 308 309 310 312 311 308 316 320 317 320 320 336 340 339 342

GFSSW_sfc_thetae_027.txt.gz
Theta_e
321 321 322 322 323 323 323 323 323 323 323 323 324 324 324 324 323 324 319 325 325 339 337 316 320 322 317 315 318 329 317 313 315 316 317 321 323 329 332 328 335 339 337 340 345
320 320 320 321 322 322 322 322 322 322 322 323 323 324 324 324 325 323 334 342 340 337 312 318 318 315 309 312 324 321 315 316 322 317 314 319 324 326 323 323 325 337 342 344 345
319 319 319 319 320 321 321 321 321 321 321 322 323 324 324 322 326 323 340 342 338 332 316 323 321 317 312 313 321 317 310 317 319 317 318 315 324 328 323 319 324 333 337 341 342
318 318 318 319 319 319 320 321 320 320 321 322 324 325 325 323 315 323 341 341 339 328 322 322 317 311 309 311 324 315 318 321 317 317 319 317 318 325 326 326 328 338 340 341 341
317 317 317 317 318 318 319 319 319 319 320 322 325 326 319 317 323 327 342 336 327 323 322 318 314 312 309 314 319 315 319 319 318 319 318 321 319 321 327 331 331 339 341 340 340
316 316 316 316 317 318 318 318 318 319 320 323 326 323 321 313 326 323 322 320 322 322 317 318 317 317 313 314 313 318 317 317 318 319 322 318 319 323 328 333 333 337 339 340 340
315 315 315 315 316 316 317 318 317 318 321 325 326 323 317 314 327 323 323 320 322 317 314 320 320 314 313 310 318 317 311 314 316 317 316 318 314 318 327 336 337 338 339 340 342
314 314 314 315 315 316 316 316 317 318 322 328 328 322 315 324 322 327 324 320 320 317 316 321 320 315 311 314 314 309 307 303 314 318 317 315 306 319 323 328 332 337 340 341 340
313 313 314 314 315 315 315 314 317 319 324 329 322 318 314 324 317 322 323 320 318 317 316 323 315 310 311 305 301 303 298 303 311 317 315 311 308 319 321 325 327 331 334 340 339
313 313 314 314 314 314 313 315 320 319 322 327 325 313 318 316 317 319 323 322 317 314 314 315 310 304 304 300 294 299 300 304 309 314 313 308 308 317 322 323 329 331 335 339 339
313 313 313 313 313 313 310 309 315 315 312 312 312 312 316 320 321 318 323 320 317 311 304 310 302 299 303 305 306 306 303 303 308 312 307 306 308 311 315 318 329 330 334 337 339
312 312 313 313 312 312 309 307 310 310 303 313 315 319 320 320 314 317 322 312 311 305 307 304 301 307 311 311 307 304 302 302 306 312 308 306 307 310 313 316 331 332 335 338 339
312 312 312 311 311 311 308 311 317 312 302 309 312 311 314 314 314 314 316 314 309 306 306 302 307 313 312 307 305 301 299 302 304 308 307 306 305 307 312 318 334 335 336 339 340
311 311 311 309 308 309 310 316 314 314 297 304 305 310 313 313 308 318 319 315 310 306 307 305 312 312 309 307 304 297 310 309 307 302 296 306 294 303 310 313 317 334 334 339 341
311 311 310 308 305 306 311 313 313 310 291 308 307 316 311 308 311 312 320 314 307 308 307 306 308 307 307 306 308 304 311 309 308 301 297 301 296 303 309 311 315 325 331 341 344
310 310 309 311 308 310 312 312 310 297 292 306 309 306 305 307 309 313 314 314 314 310 311 309 315 311 309 310 310 311 307 306 303 298 292 300 298 301 306 311 315 323 326 339 343
309 308 306 310 308 311 312 307 295 291 305 302 303 305 303 303 305 308 310 305 302 299 301 309 309 310 313 306 309 307 298 292 292 292 293 302 301 302 313 315 316 315 335 337 343
307 307 309 310 309 311 309 299 291 300 300 306 306 306 302 304 304 306 307 304 308 306 302 300 299 307 311 306 304 303 300 293 288 290 294 303 296 305 315 318 317 330 333 337 338
306 312 310 312 313 310 302 293 296 303 306 305 305 302 301 305 304 303 304 306 308 308 300 300 303 314 312 312 308 302 297 303 295 295 293 296 305 312 316 318 321 323 324 334 337
305 307 311 314 313 306 298 295 300 307 307 305 300 304 302 302 301 301 303 308 309 312 310 304 301 307 312 311 310 303 306 296 296 291 290 296 301 302 310 313 317 320 321 330 336
308 307 311 315 312 302 293 296 302 307 308 304 301 301 303 303 303 301 302 309 311 311 311 305 303 305 311 303 302 302 299 301 297 296 290 290 296 312 312 315 315 317 321 331 334
310 304 315 312 299 300 295 300 301 304 307 305 305 304 303 305 304 302 303 309 312 312 305 308 303 298 303 310 311 307 303 303 297 295 298 297 299 315 313 316 320 322 327 330 334
304 310 314 309 293 295 299 300 302 302 303 305 304 306 305 304 302 308 308 309 311 310 305 307 300 294 297 303 307 304 305 301 300 300 295 294 299 314 318 317 320 324 330 326 333
305 303 306 306 303 299 299 301 302 306 305 307 305 306 303 303 304 304 306 309 310 310 323 314 305 302 295 300 304 303 306 306 301 295 296 297 302 310 314 312 313 320 324 325 331
309 307 308 298 298 299 300 302 301 301 306 306 304 304 302 299 303 301 306 307 309 313 308 308 300 302 305 306 306 305 307 308 303 303 298 300 306 310 312 316 319 319 325 324 325
305 302 305 303 308 301 302 299 302 304 304 302 302 305 304 300 302 304 308 308 308 308 304 306 300 301 303 307 306 305 307 308 306 305 303 307 309 312 316 317 319 323 325 324 323
309 307 304 304 304 302 302 303 303 305 307 308 306 306 304 310 312 310 309 310 309 306 309 305 303 299 297 306 305 299 305 307 307 310 307 299 309 316 314 319 319 320 319 325 325

GFSSW_sfc_thetae_030.txt.gz
Theta_e
320 320 321 321 322 321 321 321 322 322 322 322 322 323 324 324 323 323 313 324 324 338 334 312 318 318 317 311 316 328 311 311 312 315 315 320 323 330 334 333 338 338 337 340 349
319 319 319 320 320 321 321 321 322 322 321 322 322 324 324 324 323 322 335 336 337 334 310 313 318 317 308 309 318 318 309 312 319 319 318 323 325 323 325 332 333 335 340 343 347
318 318 319 319 319 319 320 321 321 321 321 321 322 324 324 322 324 326 338 336 335 327 313 315 319 315 309 310 318 317 313 318 322 324 321 321 323 325 321 323 332 331 336 340 342
317 317 318 318 318 319 319 320 320 320 320 320 323 325 325 321 313 322 341 336 337 322 321 320 317 309 307 307 316 311 316 318 317 316 316 319 323 323 322 321 338 338 339 340 339
317 317 317 317 317 318 318 318 319 319 319 320 324 325 316 312 320 329 339 334 321 320 320 319 312 310 307 309 317 314 316 317 319 317 316 320 318 323 325 327 340 341 340 339 339
315 315 315 316 316 317 318 318 318 318 319 320 325 324 316 309 324 324 316 317 317 318 318 314 313 314 310 309 309 314 315 314 314 316 319 316 319 325 327 335 337 339 338 339 339
315 315 315 315 316 316 317 317 317 318 319 320 327 324 316 306 321 318 317 314 317 318 311 314 317 312 311 308 313 312 309 311 313 314 315 315 312 318 327 336 335 336 337 339 341
314 314 314 315 315 316 316 316 317 318 320 322 328 319 306 323 319 322 319 319 319 315 313 314 316 312 309 311 309 305 303 300 310 314 315 310 302 317 329 332 331 336 337 338 341
313 313 313 314 314 315 314 314 317 320 321 325 319 315 311 326 315 319 320 318 316 314 313 318 312 306 308 302 299 299 296 299 305 315 314 308 304 316 329 331 331 334 336 337 339
313 313 313 314 314 314 313 315 317 319 321 323 325 305 313 315 314 316 320 321 316 311 311 312 307 302 300 298 292 296 297 300 305 311 311 306 305 311 319 331 332 334 336 336 337
312 313 313 313 313 313 309 305 305 305 308 308 307 308 313 319 317 313 319 318 314 309 300 305 301 297 300 302 304 302 300 299 304 312 307 304 305 308 316 324 326 330 334 334 335
311 312 312 312 312 312 306 303 307 306 300 309 312 313 317 319 311 314 319 310 309 302 305 300 297 304 307 307 304 303 300 298 303 310 305 303 305 308 311 325 328 332 333 334 335
311 312 311 311 311 308 303 305 311 308 298 305 308 307 309 313 311 311 314 311 307 303 303 300 303 311 309 306 302 297 297 299 300 305 303 304 301 303 309 325 329 335 336 336 336
311 311 310 309 306 303 304 309 306 307 294 300 303 307 309 310 306 316 315 313 308 303 306 303 308 308 306 306 303 293 304 308 305 299 294 302 292 300 305 320 327 332 335 336 342
311 311 310 309 300 299 307 308 307 306 284 307 303 311 308 306 308 309 316 312 306 306 306 304 306 305 305 305 305 300 308 306 305 297 295 297 294 298 310 313 316 327 334 337 344
310 309 309 306 302 305 309 305 304 294 288 302 306 303 302 303 307 310 312 313 313 308 306 306 312 309 307 308 307 309 304 301 299 294 290 296 297 297 303 310 320 328 335 339 342
309 308 305 307 301 305 304 301 291 288 301 298 298 301 299 299 303 304 307 304 300 297 298 305 307 309 311 304 306 303 295 289 289 290 290 298 297 299 308 314 322 321 334 339 342
307 307 304 306 304 304 301 295 286 296 296 301 300 299 298 299 300 302 304 301 303 303 299 297 297 306 310 304 301 299 296 290 286 287 292 298 293 303 314 316 323 332 331 327 335
306 302 302 304 307 303 297 288 290 297 303 301 300 297 297 300 300 299 301 302 304 303 298 297 300 310 310 308 306 299 296 299 293 292 291 293 302 308 314 317 326 328 330 331 336
298 299 300 308 306 299 293 291 294 303 303 301 296 298 295 299 296 296 298 305 306 307 305 301 296 304 310 309 307 302 303 294 291 288 288 293 297 299 307 310 319 318 320 323 335
301 300 306 307 303 296 289 290 296 303 303 299 296 297 299 300 299 294 297 305 309 308 305 301 298 301 306 300 300 300 297 295 293 291 288 287 293 305 309 312 313 316 323 325 327
297 298 307 305 293 290 289 294 299 299 301 299 300 299 300 302 300 301 298 302 309 309 302 302 298 295 299 307 308 302 299 295 293 291 292 292 295 311 311 314 316 319 327 329 328
293 301 306 302 287 287 292 297 298 297 298 297 299 302 301 300 297 303 304 307 310 307 305 303 295 292 296 299 304 301 303 297 295 293 291 290 293 311 313 316 321 321 322 323 326
296 298 298 298 294 292 289 295 297 305 300 300 300 301 298 298 300 298 301 308 308 308 320 310 298 295 292 295 301 300 303 303 297 292 292 294 298 306 310 314 319 319 322 322 324
298 299 297 293 293 293 291 295 295 296 302 301 298 299 296 292 296 301 304 305 308 310 305 302 297 298 299 303 303 303 304 304 300 299 296 300 301 306 311 312 319 318 318 319 319
296 294 296 295 298 297 294 293 296 298 299 298 298 301 304 300 300 299 303 303 302 308 299 300 296 298 296 306 305 303 305 306 305 307 302 305 304 310 314 313 319 319 323 324 327
299 300 297 296 295 295 297 299 300 301 303 309 306 302 304 305 307 306 302 303 304 304 303 303 297 294 291 303 304 297 302 304 307 311 308 299 304 312 314 314 314 319 321 322 325

GFSSW_sfc_thetae_033.txt.gz
Theta_e
320 319 320 320 320 320 321 321 321 321 321 321 322 323 324 324 323 322 308 320 323 336 335 310 320 318 313 310 315 323 309 306 309 312 313 317 320 330 334 332 336 337 335 339 346
319 319 319 319 320 320 320 320 321 321 320 321 322 323 324 324 321 320 330 337 333 332 308 314 314 316 307 307 314 310 307 308 315 316 315 322 323 326 329 330 332 334 343 348 349
318 318 318 318 319 319 320 320 321 320 320 320 321 324 325 323 321 323 345 337 335 324 311 313 317 313 307 307 317 314 309 315 319 321 320 317 322 322 328 324 330 331 340 345 345
317 317 317 317 318 318 319 319 320 320 319 320 321 324 324 320 310 321 343 338 334 317 319 318 314 307 305 305 311 312 315 316 317 315 319 316 321 319 324 324 336 337 343 345 343
316 316 316 317 317 317 318 318 318 319 319 319 321 325 314 309 316 330 343 332 318 318 317 315 310 309 305 307 310 312 314 315 317 315 314 319 321 321 321 335 338 339 339 342 342
315 315 315 316 316 316 317 318 318 318 319 319 321 325 313 302 321 323 314 314 314 316 315 314 310 312 308 308 307 311 311 312 312 314 316 315 317 323 326 337 336 337 337 338 341
314 314 314 315 315 316 316 317 317 318 319 319 322 323 313 303 319 316 311 311 315 315 312 312 313 310 310 307 310 308 306 309 310 311 312 317 314 318 327 336 334 335 336 337 339
313 314 314 314 314 315 315 316 316 318 320 321 325 319 309 317 316 317 314 317 317 314 312 313 313 309 308 310 307 302 301 299 308 310 311 311 302 318 332 333 332 334 336 337 338
313 313 313 313 314 314 314 314 316 320 321 324 316 316 307 323 315 317 318 316 315 314 311 316 311 304 306 300 298 298 294 297 301 309 311 308 303 318 330 332 330 333 335 336 337
312 313 313 313 314 313 313 315 316 319 320 322 323 299 308 311 315 315 319 318 315 310 309 308 303 300 298 297 292 294 295 297 299 308 309 304 303 318 326 330 330 331 333 334 336
312 312 313 313 313 313 309 303 304 302 305 303 303 303 309 316 316 311 317 315 312 307 298 302 299 295 297 300 301 300 298 297 301 306 307 303 303 306 324 326 327 329 331 333 335
311 312 312 312 311 311 305 303 304 301 298 306 308 311 314 315 310 311 317 309 307 300 303 299 295 301 305 305 303 300 297 297 300 306 303 301 303 306 315 325 329 330 332 333 333
311 311 311 311 310 305 300 303 306 303 297 302 306 305 306 311 308 310 313 310 305 301 300 297 301 307 306 304 302 296 295 297 298 302 302 301 299 301 306 319 325 330 333 334 335
310 311 311 309 303 300 302 306 305 301 292 297 300 305 307 309 305 316 314 312 308 303 303 301 305 305 304 304 302 294 301 304 303 298 293 299 290 297 307 318 326 329 331 333 335
310 310 310 308 300 299 303 305 303 302 283 301 300 308 303 306 305 307 313 309 305 303 301 301 303 305 304 304 304 300 305 303 302 295 292 295 292 296 309 315 322 328 331 333 339
310 309 309 304 299 304 306 301 302 292 285 299 303 300 300 301 304 307 308 311 310 305 303 303 308 308 307 307 305 306 302 298 296 292 289 293 293 295 305 311 318 328 333 339 341
309 308 305 305 296 302 301 300 289 286 297 297 295 296 296 298 300 302 303 301 299 294 294 303 304 309 310 303 304 301 294 288 288 289 289 295 295 297 306 313 324 331 334 330 327
307 308 305 305 301 302 299 295 283 292 294 299 299 295 296 297 298 300 301 299 302 302 297 295 296 306 308 302 299 296 295 289 285 286 290 296 291 300 313 316 330 331 330 321 323
306 299 300 303 306 300 296 287 288 294 301 299 298 294 293 297 298 297 297 299 302 303 296 295 298 308 309 307 305 298 294 296 290 288 289 292 300 306 320 324 326 319 320 320 324
297 299 298 305 304 298 292 289 291 299 301 298 293 295 293 295 295 294 295 302 302 305 303 299 295 301 307 306 304 300 301 293 290 286 286 290 292 298 310 315 316 319 318 322 326
300 299 304 305 299 294 287 288 294 300 300 296 294 294 296 297 295 292 295 301 305 304 303 299 296 298 303 299 299 298 295 293 291 290 286 286 291 301 308 312 313 317 321 323 325
296 295 303 300 291 286 288 292 298 296 297 296 297 296 296 298 296 298 295 300 306 305 301 300 295 293 298 303 305 300 296 294 291 291 289 289 292 307 308 311 313 314 324 324 328
293 296 306 299 288 286 289 294 296 294 295 294 295 299 298 296 295 300 301 305 306 304 301 301 294 291 295 298 301 300 299 296 292 290 289 289 292 309 310 312 315 318 323 324 328
297 297 296 295 291 290 288 291 294 302 298 298 297 297 296 296 298 298 300 305 306 309 320 308 293 294 293 295 299 298 301 299 294 291 290 292 295 305 309 312 317 316 317 320 324
298 296 296 292 292 292 291 292 292 293 299 299 294 297 295 291 296 299 303 306 308 313 303 300 296 295 296 301 301 301 302 302 297 296 294 296 297 301 309 312 316 315 317 319 320
293 292 295 292 295 295 294 290 293 294 295 297 294 302 301 298 299 297 299 300 301 306 298 298 296 295 295 303 303 302 303 304 304 307 301 303 301 308 310 313 316 316 319 321 323
296 298 295 295 293 291 292 294 296 298 300 308 305 302 301 304 306 304 303 301 303 302 304 302 295 292 290 301 300 294 301 304 309 311 307 297 303 310 309 313 315 316 318 319 323

GFSSW_sfc_thetae_036.txt.gz
Theta_e
319 319 320 320 320 320 320 321 321 321 321 321 321 323 324 324 323 319 306 316 322 334 338 310 316 316 311 308 320 320 308 306 308 310 312 317 322 330 334 331 336 338 336 339 346
318 318 319 319 319 320 320 320 320 321 320 321 321 322 324 324 319 318 330 342 337 334 307 313 312 314 307 306 315 309 304 307 312 314 313 321 323 326 327 328 331 337 340 343 347
317 317 318 318 319 319 320 320 321 321 320 320 321 322 325 322 319 318 345 338 336 325 309 312 315 311 306 306 315 311 306 313 316 318 318 318 322 323 326 324 329 333 337 342 344
317 317 317 317 318 318 319 319 320 320 320 320 321 322 325 319 307 321 343 336 336 314 317 315 312 306 303 304 308 307 314 316 315 316 318 316 320 321 328 323 334 341 342 343 342
316 316 316 316 317 317 317 318 319 319 319 319 320 322 315 305 312 331 340 333 314 316 314 313 308 308 304 305 307 310 311 313 314 315 314 319 319 319 326 333 339 344 343 342 341
315 315 315 315 316 316 317 318 318 318 318 319 321 324 308 297 317 323 312 311 312 314 313 312 309 310 306 306 305 308 308 308 309 313 314 314 316 320 326 335 337 342 341 342 342
314 314 314 315 315 315 316 317 317 317 318 320 321 323 309 302 317 315 310 309 312 313 311 310 310 308 308 306 308 305 304 306 307 309 310 317 312 315 329 335 334 336 338 342 342
313 314 314 314 314 315 315 315 316 318 320 321 322 318 308 313 316 313 311 313 314 313 312 314 310 307 306 309 304 301 299 297 305 308 310 309 301 314 331 331 331 333 335 337 339
313 313 313 313 314 314 314 314 317 319 321 325 315 314 305 319 313 314 316 314 313 312 310 315 308 303 304 300 296 297 293 295 300 307 307 308 304 310 331 331 329 332 333 335 335
312 312 313 313 314 313 313 315 315 318 319 322 320 298 304 309 313 313 315 317 313 309 307 307 302 299 298 296 292 294 294 295 297 303 307 304 302 317 327 329 329 330 332 334 335
312 312 313 313 313 312 309 303 302 301 301 301 299 299 306 313 315 309 315 314 310 305 297 300 297 293 295 298 299 298 296 296 298 303 304 303 303 306 321 326 326 328 330 332 334
311 311 312 312 312 312 303 301 300 299 297 303 304 307 311 312 307 310 314 309 305 299 300 297 293 299 303 302 301 299 296 295 299 303 302 300 302 305 319 323 326 327 329 331 333
311 311 312 311 310 303 298 301 303 298 295 300 303 303 304 309 306 307 311 307 303 299 298 295 298 305 303 301 300 295 293 295 298 300 300 300 298 300 306 313 321 328 331 333 334
310 311 311 309 301 300 300 302 302 300 289 295 298 303 305 308 304 314 312 310 306 302 301 298 303 304 302 300 301 293 300 302 301 298 294 298 291 296 302 317 324 327 330 331 335
310 310 310 309 297 299 301 302 300 298 282 298 298 305 301 304 304 306 312 308 304 302 300 299 301 301 301 302 302 300 302 302 300 294 292 294 291 295 307 314 319 326 330 336 329
310 309 309 303 297 301 303 300 300 289 283 296 300 297 298 299 302 305 306 308 308 303 302 301 306 305 304 306 304 304 300 297 294 291 289 293 292 294 302 305 310 330 337 334 331
309 308 305 304 294 300 299 298 289 284 294 294 293 295 293 295 299 301 301 299 297 292 292 300 302 306 307 301 302 299 293 287 287 287 288 293 294 297 304 312 319 331 331 335 332
307 307 305 305 301 300 298 294 281 290 291 297 297 294 294 297 296 299 299 296 299 298 294 293 293 303 306 302 298 295 293 288 284 285 289 294 291 301 315 319 332 335 333 325 325
306 299 299 302 305 299 296 286 287 290 298 297 296 292 291 295 296 295 296 296 299 300 295 293 296 306 307 304 304 298 293 294 289 287 288 291 299 306 321 324 323 319 319 320 323
296 300 300 304 303 296 291 288 289 296 298 296 291 293 291 294 292 293 294 298 299 303 301 297 294 300 305 304 303 300 300 293 289 286 285 289 291 297 309 317 319 318 316 320 324
298 296 301 301 296 293 287 286 291 298 297 294 292 292 293 294 293 290 293 299 302 301 301 297 296 298 300 298 297 297 294 291 290 289 286 286 291 299 308 315 315 319 320 322 324
294 293 303 297 290 285 287 290 296 294 295 293 295 294 293 295 294 292 294 297 303 302 299 299 295 293 297 302 304 299 296 294 291 289 288 288 291 303 309 315 317 317 321 325 326
292 294 304 298 287 285 288 292 294 293 293 292 293 296 296 293 291 298 299 302 303 303 300 299 293 290 294 297 300 300 298 294 291 290 289 289 293 306 310 311 313 314 317 324 324
296 294 295 293 289 288 288 290 291 299 296 296 294 295 293 292 295 295 299 303 306 305 320 306 292 293 291 295 298 298 300 297 294 292 290 291 296 300 309 309 312 317 318 322 322
295 292 293 291 291 292 289 291 291 291 296 296 292 294 293 290 294 297 302 304 306 311 301 299 294 293 295 299 300 300 301 300 297 296 295 297 296 301 303 310 313 315 318 319 319
292 291 293 291 293 292 292 292 292 293 292 294 293 296 297 296 297 297 298 299 300 305 297 297 294 296 296 303 303 301 303 302 303 301 300 302 300 304 310 313 316 316 318 320 323
294 295 292 293 293 291 291 294 294 295 298 301 305 300 299 302 304 302 301 299 301 301 304 299 295 293 291 302 299 294 301 304 308 310 306 299 302 310 309 313 314 316 318 318 321

GFSSW_sfc_thetae_039.txt.gz
Theta_e
320 319 319 320 320 320 320 321 321 321 322 322 322 322 323 324 324 324 312 319 326 339 338 316 321 320 321 317 329 326 318 316 315 316 318 327 327 332 336 334 336 339 338 344 351
318 318 318 319 319 320 320 320 321 321 322 321 322 322 323 325 324 324 336 342 338 335 313 316 317 319 316 316 323 317 318 314 318 321 321 326 328 330 332 331 334 337 344 349 350
317 317 318 318 318 319 320 320 320 321 321 321 321 322 323 325 324 323 348 339 336 325 314 317 320 317 315 316 321 319 316 319 321 323 324 326 328 333 331 328 334 336 341 346 348
316 317 317 317 318 318 318 320 320 320 320 320 321 322 324 324 310 326 346 340 336 321 322 319 317 314 313 312 314 313 318 321 321 323 324 325 329 328 332 331 335 341 345 347 347
316 316 316 316 317 317 318 318 319 319 319 320 321 322 322 310 315 334 343 334 319 321 319 317 315 315 313 313 314 316 316 317 319 320 323 325 326 327 330 335 341 343 345 345 346
315 315 315 315 316 316 317 318 318 318 318 319 321 322 314 305 321 328 316 316 318 321 319 317 314 316 314 313 312 313 312 313 315 318 320 318 321 326 329 340 342 342 343 345 346
314 314 314 315 315 316 317 317 317 318 319 320 321 323 314 309 322 321 316 317 319 320 318 317 316 315 315 313 314 312 312 315 316 317 317 322 318 321 332 339 340 340 342 344 346
314 314 314 314 314 315 315 316 316 318 322 321 322 323 310 318 323 318 317 320 321 321 319 320 317 315 314 314 311 309 310 309 311 313 315 320 312 320 333 336 337 339 341 343 346
313 313 313 314 314 314 314 314 317 320 324 325 324 320 308 321 318 321 322 321 320 320 318 317 317 312 312 310 310 308 307 305 308 314 312 315 313 316 334 334 335 337 340 342 344
312 313 313 313 314 314 313 315 318 321 322 324 321 308 310 312 317 317 321 322 319 315 313 314 312 311 310 310 305 305 304 305 305 310 312 313 313 319 332 333 334 336 338 340 341
312 312 313 313 313 312 313 312 311 310 310 310 308 304 307 316 318 315 321 320 316 313 307 308 307 304 307 308 307 306 305 303 307 308 310 311 312 312 329 332 333 335 337 339 340
311 312 312 312 312 312 309 307 305 305 304 308 307 308 312 315 310 314 320 314 312 307 307 306 303 306 307 307 306 306 304 304 307 309 310 309 309 312 322 329 331 333 336 338 341
311 311 312 311 311 308 305 307 309 306 303 306 307 308 310 314 310 311 317 314 310 306 305 303 305 307 306 306 306 306 304 304 306 308 308 309 309 309 313 327 333 329 337 339 339
310 311 311 309 305 305 307 308 307 307 300 301 303 307 310 312 309 316 318 315 310 306 305 305 308 307 307 306 307 305 307 305 306 307 303 307 301 312 310 324 330 333 335 338 336
310 310 310 309 303 303 307 308 307 305 290 301 304 311 309 309 310 311 316 315 309 307 307 304 306 306 305 308 309 307 308 308 306 306 305 306 304 309 317 317 320 333 336 337 337
310 309 309 305 304 306 307 306 308 298 289 299 305 304 305 307 307 310 312 315 314 308 308 307 310 309 309 309 308 309 307 306 306 305 300 304 303 307 311 315 318 334 337 337 337
309 308 306 307 302 306 306 308 298 291 300 299 300 303 303 303 305 307 308 308 305 302 302 305 307 311 312 307 308 308 306 300 297 298 298 303 303 309 313 320 321 333 338 338 335
307 307 308 308 308 307 307 303 291 295 296 301 302 302 300 303 305 304 305 304 306 306 303 300 299 308 312 311 308 306 306 301 292 296 300 303 302 309 318 328 332 339 341 340 338
306 306 306 307 309 308 305 296 295 295 301 300 302 299 300 301 302 304 304 304 307 308 303 302 302 310 311 310 310 305 305 306 301 299 300 303 309 315 321 325 332 331 334 338 339
304 308 306 308 310 305 301 294 296 298 301 300 297 300 298 300 300 301 301 305 305 308 312 307 302 307 309 310 308 309 308 303 304 297 295 300 302 305 314 321 331 327 329 328 328
306 304 307 307 304 304 296 296 296 300 301 299 299 298 300 299 300 299 301 304 306 307 310 309 306 305 308 306 306 305 305 303 305 302 299 297 302 314 315 320 326 330 326 326 327
303 302 311 303 300 295 296 296 297 299 300 299 300 300 300 300 301 300 301 303 307 309 305 309 307 303 304 308 307 307 307 308 302 301 301 302 303 311 316 320 328 330 330 330 332
304 305 311 305 294 295 296 296 298 298 298 298 299 301 302 301 299 304 303 307 308 308 308 308 305 300 303 306 307 307 305 305 306 307 304 300 304 312 318 319 324 327 326 325 330
306 301 304 302 298 298 297 297 296 301 299 301 300 301 301 301 305 304 306 308 310 309 319 314 307 306 299 304 307 305 305 305 308 304 303 305 307 314 316 319 320 323 325 326 330
302 300 300 299 299 300 300 298 296 296 300 302 302 301 301 300 303 306 308 310 310 313 309 313 308 305 305 304 306 307 306 304 306 308 305 308 307 313 314 317 320 324 325 327 327
300 300 300 300 299 298 297 298 297 299 299 299 300 303 302 301 306 305 307 308 309 311 308 308 307 307 304 305 306 305 307 307 307 306 307 308 310 318 319 321 323 323 325 326 327
302 303 300 298 298 298 298 297 297 299 303 303 304 307 305 305 310 311 311 308 310 311 312 308 306 305 302 306 306 303 307 309 313 314 312 308 314 319 319 320 323 324 323 325 327

GFSSW_sfc_thetae_045.txt.gz
Theta_e
320 320 320 321 322 322 322 322 323 323 323 323 324 324 324 324 324 330 323 324 329 344 336 331 327 336 332 334 333 329 316 313 317 318 322 329 326 331 334 331 335 337 338 346 353
319 319 319 320 321 322 322 322 322 322 322 323 323 324 324 324 332 327 331 345 350 341 324 321 321 325 323 327 326 326 316 319 323 323 322 326 328 329 330 329 335 338 343 349 351
318 318 319 319 319 321 321 321 321 321 322 322 323 324 324 326 330 325 346 342 341 334 322 323 325 325 321 325 326 327 319 322 322 324 325 325 326 330 328 325 331 336 341 345 347
318 318 318 318 319 319 320 321 321 321 321 322 323 324 324 330 317 331 345 340 341 325 324 323 322 321 320 320 325 321 325 324 324 324 324 323 328 326 328 329 334 342 343 344 345
317 317 317 318 318 318 319 320 320 320 320 321 323 324 324 323 325 333 343 331 326 327 323 322 321 322 319 323 323 323 323 323 324 323 324 325 323 325 326 336 338 342 342 343 344
316 316 316 317 318 318 319 319 319 319 320 322 324 322 327 314 331 332 325 324 326 325 323 323 322 325 322 322 322 325 323 322 323 323 323 321 322 326 328 335 339 340 340 342 343
315 315 316 316 317 318 318 318 318 319 320 323 326 326 319 316 325 332 327 324 326 326 322 323 324 322 325 322 326 324 320 322 322 321 320 323 319 320 327 333 338 339 339 341 344
315 315 316 316 316 317 317 316 317 319 323 326 325 327 318 323 327 326 329 325 327 327 326 326 326 322 322 326 323 320 321 315 320 319 320 320 314 321 329 332 335 339 338 340 344
314 315 315 315 316 316 315 315 317 322 325 329 328 327 315 320 319 323 327 323 324 325 326 324 323 320 323 318 317 319 312 313 315 318 317 318 316 323 326 330 332 337 339 339 343
314 314 314 315 315 314 314 315 323 321 325 330 327 317 318 314 321 323 326 325 322 321 320 319 318 315 317 316 309 313 313 315 312 316 316 315 316 321 326 326 329 336 339 340 341
314 314 314 314 314 313 316 324 320 321 321 315 317 315 314 319 323 320 324 322 321 319 313 317 312 310 314 317 317 316 315 313 315 316 315 315 316 319 324 325 327 332 339 341 342
313 313 314 313 313 313 316 318 316 315 311 317 316 317 318 319 315 319 324 317 316 312 315 313 308 313 315 316 316 314 313 313 316 316 315 315 315 319 322 325 325 327 336 340 343
312 313 312 312 312 315 319 317 321 320 311 313 316 315 316 317 314 316 320 318 314 311 312 310 311 314 312 312 312 313 312 313 312 315 317 314 313 317 320 325 330 332 334 341 342
312 312 311 309 311 316 317 320 321 320 306 309 310 313 316 316 312 319 322 318 314 311 312 311 314 310 310 309 313 310 315 314 312 310 307 315 305 316 319 322 327 332 333 338 344
312 311 311 309 313 313 319 320 321 320 297 310 311 319 317 312 315 315 322 318 312 311 312 309 310 309 309 310 313 310 315 312 312 311 311 310 308 314 319 319 322 332 337 341 347
311 310 310 316 318 316 318 320 319 304 296 306 311 309 310 312 313 316 316 320 319 314 314 312 315 313 311 313 314 315 313 313 313 311 304 309 309 309 315 319 320 334 341 343 345
310 309 310 316 314 318 318 316 304 299 309 305 307 310 309 309 310 312 312 311 310 307 308 310 310 314 315 312 315 313 310 304 303 302 302 312 308 311 318 323 325 334 341 344 346
309 308 313 315 319 318 317 309 299 305 306 309 308 309 307 310 309 310 310 309 313 312 308 306 303 310 315 313 312 310 310 305 300 300 303 311 304 310 321 328 332 339 344 346 345
307 318 317 319 318 318 311 301 302 306 308 305 308 305 307 309 309 309 309 310 312 313 308 306 306 314 314 316 315 313 308 313 308 309 305 308 311 317 319 326 330 336 343 344 345
314 315 316 319 319 313 307 300 306 308 308 308 304 307 304 307 307 307 308 311 311 314 316 312 306 312 313 316 316 314 317 307 308 300 299 303 307 310 316 321 328 332 338 345 348
314 312 316 318 315 308 302 305 308 310 308 306 306 306 307 307 308 307 307 311 312 313 315 313 311 310 314 311 310 311 310 312 311 309 303 299 304 318 318 322 326 330 339 341 337
313 307 315 316 304 306 305 309 297 307 308 307 307 308 307 308 307 308 307 310 314 314 309 314 311 306 310 315 316 315 313 312 306 306 309 306 304 316 322 325 328 334 337 337 338
313 313 316 313 301 304 308 306 306 305 306 306 305 307 309 307 305 309 310 313 313 312 312 314 309 305 306 311 314 312 314 315 315 314 309 304 305 321 324 326 330 334 335 339 339
314 305 308 308 309 307 305 304 303 307 305 306 306 308 306 306 310 308 309 313 313 313 323 318 312 309 304 308 312 310 310 312 312 308 309 307 311 314 320 325 331 336 339 339 338
313 310 312 302 304 306 307 305 303 303 306 307 305 305 305 304 306 307 310 313 315 315 314 314 309 311 311 311 312 311 311 311 310 312 308 306 310 311 323 326 329 335 337 335 336
311 309 311 313 309 306 302 305 304 305 306 304 303 306 307 305 307 308 312 312 313 316 315 315 309 311 308 311 311 309 311 312 311 312 312 312 313 317 325 330 330 332 334 333 335
316 316 312 306 308 306 306 306 305 307 308 309 308 306 306 308 313 314 316 318 319 319 316 315 312 310 305 309 309 305 310 312 313 314 314 310 320 325 326 329 331 332 331 332 333

GFSSW_sfc_thetae_048.txt.gz
Theta_e
321 321 321 321 322 323 322 323 323 323 324 324 324 324 325 324 324 330 320 327 331 353 346 336 336 331 336 328 331 332 319 317 316 317 320 324 321 328 331 329 330 333 336 343 348
320 320 320 321 322 322 322 322 322 322 322 323 323 324 324 325 326 326 334 352 347 348 325 322 321 324 322 324 326 325 316 317 324 322 322 327 324 327 327 325 331 334 341 346 349
319 319 319 319 320 321 321 321 321 321 322 322 323 324 324 325 325 322 346 351 346 339 324 322 323 322 320 324 323 324 318 324 326 322 324 324 326 327 323 319 329 333 339 343 345
318 318 318 319 319 320 321 321 321 321 321 322 323 324 325 327 316 325 348 347 348 328 321 320 322 319 319 319 324 320 324 324 323 323 323 323 327 325 326 326 331 339 342 342 343
317 317 318 318 318 319 319 320 320 320 321 321 323 325 321 323 323 327 351 341 323 322 323 322 320 320 317 320 322 320 324 324 324 323 322 324 323 324 326 332 336 341 341 340 342
316 317 317 317 318 319 319 319 319 319 320 322 324 324 325 314 331 328 326 324 323 324 323 323 321 323 320 321 321 324 324 323 322 323 322 320 321 323 326 334 333 338 339 340 341
316 316 316 317 317 318 318 318 318 319 320 322 326 325 319 316 325 331 327 323 326 324 322 324 324 321 322 319 325 324 319 321 321 322 319 323 319 318 325 327 331 336 338 340 343
315 315 316 316 316 317 317 317 317 319 322 325 329 324 316 325 326 324 329 326 325 326 325 327 326 321 320 323 322 318 319 312 318 321 319 318 314 322 326 325 330 335 337 338 343
315 315 316 316 316 316 315 315 317 321 325 328 327 324 317 324 318 321 325 322 324 324 326 325 322 318 319 315 314 316 311 312 314 322 317 316 316 323 326 327 328 333 336 337 341
315 315 315 315 315 315 314 316 325 322 324 328 326 317 319 315 319 322 325 324 321 322 320 319 316 312 314 313 306 309 308 313 312 318 316 313 315 321 325 325 325 331 337 337 339
314 314 314 314 314 314 313 320 319 320 318 316 317 315 316 319 323 320 323 321 320 318 312 316 310 307 311 315 315 314 313 312 315 320 314 313 315 318 322 322 324 328 338 339 340
313 313 314 314 313 313 314 319 317 317 310 317 319 317 320 320 314 317 322 316 315 310 314 312 308 313 314 315 314 314 312 313 317 318 315 313 313 318 320 322 322 322 333 337 344
313 313 313 312 312 313 317 318 322 321 310 312 315 315 315 317 313 314 319 317 313 310 310 309 311 315 312 311 311 312 311 311 311 315 316 314 311 315 320 322 326 329 330 339 345
312 313 312 310 311 318 314 322 322 321 305 308 311 315 316 316 311 318 321 317 314 310 311 310 314 312 311 309 310 307 313 313 312 310 305 314 304 314 317 321 326 329 331 338 349
312 312 311 310 311 314 320 322 321 318 295 311 312 320 316 312 314 314 320 318 312 312 312 309 310 309 308 309 311 310 314 313 312 309 308 309 306 313 319 319 323 330 335 343 349
312 311 310 316 316 316 318 320 318 303 295 307 312 310 310 312 312 316 314 319 318 312 314 311 316 313 311 312 313 314 311 312 312 309 302 308 307 311 313 317 327 334 339 343 345
310 309 309 315 314 320 318 315 302 297 309 306 307 310 309 308 309 312 311 310 308 305 306 311 310 314 314 309 312 312 308 302 301 301 300 311 307 313 319 321 328 335 338 342 345
309 308 312 314 317 319 315 307 297 304 305 311 309 310 306 309 309 309 310 308 311 310 307 305 303 309 313 310 310 311 309 303 299 299 301 311 305 312 323 325 334 338 341 344 344
307 317 315 320 317 316 309 299 301 306 310 309 309 305 306 309 309 309 308 308 311 312 307 305 306 314 313 314 312 310 306 311 306 307 303 306 309 318 321 324 330 336 340 341 343
311 313 316 319 319 313 305 299 305 310 310 309 303 307 304 306 307 307 307 311 310 314 315 310 305 312 313 314 314 312 315 306 306 301 299 304 307 308 315 322 329 332 337 340 344
310 311 318 319 317 308 301 303 307 311 311 306 305 305 306 306 308 307 307 311 313 312 315 312 309 309 312 309 309 310 309 312 310 308 300 300 302 316 313 316 326 331 337 341 343
313 307 318 316 303 305 303 308 308 310 311 308 308 307 307 308 307 308 307 310 314 314 309 313 309 305 307 314 316 313 311 311 304 307 308 307 306 318 319 324 328 333 338 339 337
312 312 317 313 299 301 306 307 311 309 308 308 305 308 309 307 305 309 310 313 314 312 311 313 308 302 305 310 314 311 311 313 314 315 309 302 306 321 323 323 326 332 335 338 339
314 306 309 309 307 305 305 306 306 310 308 309 307 308 307 305 310 308 309 313 314 313 323 316 311 309 301 307 310 309 310 312 312 308 308 308 311 317 320 316 316 334 338 339 339
313 310 313 302 303 304 308 307 305 304 308 308 306 305 305 303 305 306 309 311 314 319 314 314 311 309 309 310 310 310 310 311 308 309 306 310 312 315 317 315 319 336 337 337 337
311 310 312 310 310 306 303 304 304 306 307 305 304 306 306 304 306 305 308 310 310 315 313 313 310 310 306 310 309 308 310 309 312 311 310 311 312 317 321 320 318 334 336 335 337
314 314 310 307 307 306 305 306 305 308 309 309 309 307 306 308 310 311 313 314 317 316 318 315 311 311 303 308 308 305 309 311 311 314 312 309 316 319 318 321 324 336 334 334 335

GFSSW_sfc_thetae_051.txt.gz
Theta_e
321 321 320 322 322 322 322 322 323 323 323 323 323 323 324 324 323 326 318 327 329 353 353 327 335 335 332 327 327 324 312 310 314 315 318 320 320 329 328 327 331 337 338 340 343
320 320 320 320 322 322 322 322 322 322 323 323 323 323 324 324 322 319 338 345 352 353 323 319 318 317 312 316 319 319 310 312 319 321 320 323 322 323 320 322 326 338 342 343 344
319 319 319 319 320 321 321 321 321 321 321 322 323 323 324 324 321 318 349 353 350 344 324 321 318 315 312 314 318 318 313 319 321 322 325 322 323 326 322 318 323 333 338 342 342
318 318 318 319 319 319 320 321 321 321 321 321 322 324 324 322 312 323 350 349 349 332 322 317 315 311 310 310 318 316 321 322 323 321 326 323 325 323 324 323 328 338 341 342 341
317 317 317 318 318 318 319 320 320 320 320 321 323 324 319 316 319 331 354 347 330 319 315 315 314 314 310 313 316 316 322 324 324 319 320 327 324 324 325 330 330 340 341 340 339
317 316 316 317 318 318 319 319 319 319 320 321 324 325 320 309 326 324 327 321 318 317 317 319 316 317 313 314 313 317 320 320 320 320 319 318 320 322 325 328 331 333 337 338 340
316 316 316 316 317 318 318 318 318 318 320 322 325 325 315 311 321 323 321 317 319 318 317 320 319 313 314 311 317 317 313 316 318 319 318 317 314 316 326 327 325 328 336 337 340
315 315 316 316 316 317 317 317 317 318 320 323 328 320 310 322 320 320 322 321 319 318 318 319 320 315 312 315 314 311 311 306 317 319 319 316 307 319 323 322 323 326 335 338 334
315 315 315 315 316 316 315 315 317 321 323 326 319 314 313 324 316 317 316 319 319 318 318 323 315 309 311 305 303 309 303 308 312 319 318 316 308 319 322 321 321 325 334 338 335
315 315 315 315 315 315 314 316 320 321 322 322 323 311 316 314 317 318 315 318 317 316 316 314 309 303 302 299 296 303 306 309 310 315 316 313 310 319 321 322 322 329 333 336 335
314 314 314 314 314 314 310 308 312 314 311 309 312 311 315 318 319 316 318 317 316 312 305 310 301 298 301 305 308 309 309 310 313 316 312 310 308 316 318 320 322 323 324 337 337
314 314 314 314 313 313 309 308 310 310 304 313 314 315 319 317 312 315 317 309 310 304 307 305 299 307 310 309 308 308 310 309 314 316 312 310 307 314 316 316 319 327 339 340 339
313 313 313 312 312 312 308 312 316 313 302 308 311 310 312 312 310 311 312 311 309 306 305 301 306 313 310 307 306 302 307 309 309 313 315 309 304 307 316 324 326 331 342 343 339
312 313 312 310 308 308 311 315 315 313 297 304 306 309 312 311 307 316 315 313 309 305 307 304 309 309 307 306 305 297 308 309 308 304 297 306 295 306 315 316 319 326 341 342 343
312 312 311 309 306 305 312 314 313 310 289 308 308 315 311 308 309 310 315 310 307 307 305 303 306 305 305 306 307 302 309 307 308 301 302 301 296 303 312 311 314 324 341 345 346
311 311 310 311 308 310 313 313 310 297 292 304 309 306 305 306 309 311 310 311 313 308 308 306 311 308 306 309 309 309 306 305 303 298 292 299 299 300 307 310 315 323 343 345 345
310 309 307 311 306 310 310 307 295 291 305 302 302 305 303 303 305 307 306 303 301 296 298 305 307 309 311 305 307 304 299 292 292 292 292 302 301 302 313 316 318 324 337 340 343
309 308 310 311 310 311 308 300 291 301 300 307 306 305 302 304 304 306 304 301 306 303 299 297 297 306 310 305 301 301 299 292 289 292 297 304 299 309 318 326 334 337 338 341 341
307 312 310 311 313 312 303 293 296 301 306 305 305 302 300 304 304 304 302 302 306 305 298 296 300 311 311 309 306 300 298 303 294 293 294 300 305 312 319 323 331 336 338 338 341
304 308 308 317 315 306 299 295 300 306 307 306 300 304 300 302 301 300 302 306 306 309 307 302 296 306 311 308 308 303 306 297 296 289 289 298 300 302 313 313 318 329 328 336 338
305 304 312 316 312 304 294 297 302 307 308 304 302 301 302 302 303 302 302 307 308 308 306 304 300 302 307 303 301 301 298 301 301 297 291 292 298 311 313 313 314 316 323 336 336
312 303 315 312 300 301 297 302 303 306 309 306 305 304 301 303 302 303 303 307 310 308 303 304 302 297 301 308 310 306 303 301 296 294 298 296 299 314 315 315 323 317 317 328 338
307 309 314 310 294 295 300 302 305 305 307 304 304 305 305 301 299 305 307 312 311 308 303 308 299 292 296 301 307 304 304 301 302 300 296 295 299 316 319 318 320 315 321 327 336
308 306 307 307 304 299 298 301 302 308 307 307 305 305 302 300 302 303 305 310 312 310 322 311 301 299 292 298 305 305 307 305 301 298 298 299 306 311 312 313 318 325 331 328 335
309 308 311 300 300 300 301 302 302 302 307 306 303 303 300 296 301 301 305 306 311 316 309 304 298 302 303 305 306 305 306 307 304 301 297 304 307 310 312 317 320 324 328 332 333
306 306 307 305 309 306 301 301 302 304 305 303 301 304 303 297 300 300 302 302 305 314 312 307 298 305 299 305 306 304 307 309 308 309 307 306 307 315 316 316 318 321 330 332 332
313 312 309 304 303 303 302 305 304 306 307 308 307 304 303 305 310 309 308 306 305 305 308 311 302 301 296 305 304 299 304 307 310 309 309 302 309 314 313 313 314 328 329 330 331

GFSSW_sfc_thetae_054.txt.gz
Theta_e
320 320 321 321 322 322 322 322 322 323 323 323 323 323 323 324 323 325 316 321 326 353 355 337 339 331 331 329 326 325 311 310 312 314 317 320 320 326 326 333 337 339 336 338 343
319 320 320 320 321 321 321 322 322 322 322 322 322 323 323 324 320 317 332 347 352 353 323 318 315 319 317 312 315 314 306 309 318 321 318 322 321 323 317 323 334 335 339 341 343
318 318 319 319 319 321 321 321 321 321 321 322 322 323 324 323 319 319 346 347 352 347 323 321 317 313 307 308 310 315 309 315 318 323 323 320 321 324 318 316 327 332 335 339 340
318 318 318 318 318 319 320 321 320 320 321 321 322 323 324 321 309 321 352 351 350 329 323 316 312 308 307 307 312 310 317 320 320 324 321 320 322 322 322 322 336 339 339 339 338
317 317 317 317 318 318 319 320 320 320 320 320 322 324 318 309 318 332 354 348 330 319 314 312 310 309 307 309 311 313 315 321 323 324 323 325 323 323 323 328 341 341 340 338 335
316 316 316 316 318 318 318 319 319 319 319 321 322 324 314 303 322 334 325 324 316 314 312 312 313 314 310 309 308 312 313 314 318 324 325 322 322 322 325 331 338 339 339 334 335
315 316 316 317 316 318 318 318 318 318 319 321 323 325 314 305 316 320 318 315 315 313 312 316 317 310 311 309 313 311 310 313 315 317 320 318 317 317 325 326 335 337 338 333 335
315 315 315 316 316 317 317 316 317 318 320 322 325 318 303 318 316 319 316 316 315 313 315 316 315 311 309 311 308 310 308 304 313 316 316 314 304 316 322 323 325 335 336 333 333
314 314 315 315 316 316 315 315 317 321 323 326 317 310 309 325 315 314 316 316 316 316 314 319 312 307 308 302 298 302 301 305 309 316 316 313 308 315 321 321 321 332 335 334 331
314 314 315 315 315 315 314 315 317 319 321 324 322 303 309 312 315 316 314 314 312 313 312 311 305 301 299 296 292 296 302 305 306 313 315 311 309 314 319 318 321 333 334 333 330
314 314 314 314 314 314 309 304 305 305 307 305 311 308 311 316 317 314 314 314 312 310 301 306 300 297 300 300 302 303 304 306 310 314 311 309 309 312 316 318 320 331 332 332 331
313 313 314 313 313 313 306 300 308 305 300 308 310 311 315 316 310 312 314 306 308 302 304 300 296 304 306 305 303 302 302 306 310 315 309 308 308 314 315 317 320 331 332 333 333
313 313 313 312 311 308 303 305 312 307 298 304 308 307 308 310 308 309 310 307 305 302 302 298 302 309 307 305 303 299 303 305 307 310 311 307 304 314 320 326 323 329 336 337 334
312 312 312 309 304 302 303 309 306 306 293 300 302 306 308 308 304 313 312 309 305 303 303 301 306 306 304 303 302 293 308 311 310 303 295 305 294 307 314 315 333 336 337 337 336
312 312 311 310 300 300 306 310 309 305 284 305 305 311 305 304 306 308 313 307 304 304 302 301 303 303 302 303 305 301 305 303 304 299 295 298 293 303 310 309 317 334 339 340 338
311 311 310 305 302 305 309 304 304 294 288 302 305 302 301 302 305 308 307 307 309 305 303 303 308 305 304 307 306 306 303 300 298 294 291 295 297 297 306 310 312 331 340 342 341
310 309 307 308 298 304 304 301 291 287 301 298 298 298 299 300 301 303 302 299 297 294 294 301 303 306 308 303 304 301 293 288 289 289 290 296 299 303 308 315 316 335 341 343 344
308 308 305 307 304 304 301 295 286 296 296 301 301 300 298 299 300 302 300 297 300 299 295 294 294 303 308 303 299 296 294 289 285 288 293 298 294 306 318 318 329 335 334 338 339
307 302 303 305 308 304 297 288 289 296 303 301 300 296 296 299 300 299 298 298 301 301 295 292 295 307 308 307 304 298 294 297 291 289 290 294 302 319 324 329 326 324 327 331 339
299 301 301 310 308 299 293 290 293 301 303 301 295 298 295 298 297 296 296 301 303 305 301 298 293 300 307 306 304 301 302 294 291 287 285 293 297 305 314 320 323 320 321 326 335
299 297 306 310 304 296 289 290 297 303 303 299 297 296 297 297 297 296 298 304 304 304 302 298 295 300 304 299 297 298 295 296 295 292 288 288 294 307 315 318 316 320 327 329 333
300 297 308 309 295 293 291 296 301 301 304 301 301 299 297 299 296 297 300 304 308 305 299 300 295 293 298 304 308 301 298 294 292 291 293 293 296 313 314 317 317 320 324 324 331
296 300 307 304 290 290 294 298 301 300 301 300 299 301 300 296 292 299 303 308 308 305 298 303 293 290 294 296 300 300 301 298 296 294 292 292 296 314 317 315 315 317 321 322 323
298 299 301 298 294 292 291 294 297 305 302 302 301 300 298 296 295 295 299 306 309 312 323 307 295 292 290 293 301 300 303 302 298 294 294 295 303 310 311 313 313 316 321 320 325
299 298 301 296 295 295 293 295 295 297 303 302 297 299 296 291 294 295 300 301 305 314 310 300 293 300 298 301 302 302 302 304 300 298 296 300 306 310 315 312 313 314 318 323 328
298 299 302 298 299 296 294 292 296 299 299 299 297 301 298 294 293 293 299 295 297 304 304 305 296 298 295 302 303 302 304 305 305 305 303 307 305 314 315 315 316 320 324 327 336
305 304 302 300 296 296 296 300 302 303 303 303 303 300 302 304 305 303 302 301 299 303 300 304 301 298 291 300 301 294 301 304 306 307 304 301 308 314 313 315 316 318 324 329 337

GFSSW_sfc_thetae_057.txt.gz
Theta_e
320 320 320 320 321 321 321 322 322 322 322 322 323 323 323 323 323 320 312 319 327 354 353 345 343 334 335 328 330 326 312 308 311 312 315 318 316 325 330 332 336 336 334 338 344
319 319 319 319 320 321 321 321 321 322 322 322 322 322 323 324 318 314 329 347 352 354 330 325 322 326 320 320 318 313 306 310 317 319 317 319 319 321 321 331 332 333 338 345 346
318 318 318 319 319 320 320 321 321 321 321 321 322 322 323 323 314 316 348 351 352 352 320 319 316 312 305 305 308 311 307 313 315 320 322 317 319 322 317 321 331 330 336 343 344
317 318 318 318 318 318 320 320 320 320 320 321 321 322 324 320 306 321 354 352 352 329 321 314 310 305 304 305 310 305 310 312 316 320 321 318 319 319 318 318 336 336 338 343 339
317 317 317 317 317 318 318 319 319 319 320 320 321 322 315 305 310 337 352 350 326 318 313 310 307 307 305 307 309 308 310 313 313 314 320 322 319 321 322 332 338 338 338 336 338
316 316 316 316 317 318 318 318 318 318 319 320 321 322 310 298 313 335 326 322 316 311 309 309 308 311 308 307 306 309 310 310 314 322 323 319 320 320 324 337 336 336 335 335 336
315 315 315 316 316 317 318 317 318 318 319 320 321 323 312 303 313 326 318 312 312 311 308 313 314 309 309 306 310 309 309 311 313 317 320 320 315 316 325 336 334 335 336 336 334
314 314 315 315 316 316 317 316 317 318 320 322 323 319 302 312 316 315 314 312 313 310 311 313 313 309 307 310 306 306 306 302 309 313 318 315 305 316 328 333 333 335 336 335 333
314 314 314 315 315 315 315 314 318 320 323 325 316 307 307 320 314 315 315 314 313 312 311 317 310 304 305 299 297 298 296 301 307 313 313 311 305 313 324 332 331 333 334 334 331
313 314 314 314 314 314 313 315 317 318 321 322 321 301 304 308 313 313 311 315 310 308 310 308 303 299 297 295 291 295 298 301 303 310 311 308 308 312 320 326 330 332 333 332 330
313 313 313 314 314 313 309 302 303 302 304 304 306 304 309 313 316 311 312 309 308 306 299 303 299 295 299 299 300 299 299 298 304 309 308 306 306 309 316 318 324 329 331 330 329
312 313 313 313 312 312 305 299 303 301 298 306 307 310 313 313 307 311 312 305 305 300 302 299 295 301 304 303 301 299 297 298 302 309 307 305 307 315 314 316 321 329 331 330 329
312 312 312 312 311 305 298 301 305 301 297 302 305 305 306 309 306 308 309 305 302 300 299 296 300 306 304 302 300 297 296 299 300 307 307 305 302 310 317 321 322 331 332 332 330
312 312 311 310 301 301 299 304 306 301 292 297 301 305 305 307 303 312 311 308 303 300 300 299 304 304 302 300 300 292 302 304 306 302 295 302 293 302 311 314 327 330 331 332 332
312 312 311 309 299 300 302 305 303 301 283 301 302 308 302 303 304 306 309 305 301 302 300 299 301 300 300 301 301 299 303 305 304 296 292 296 293 300 309 312 318 332 333 334 334
311 311 310 303 299 303 306 302 301 292 285 298 303 299 298 299 303 305 305 306 306 301 301 301 305 303 303 305 304 304 299 296 295 292 289 292 295 296 306 308 317 332 334 336 335
310 309 307 306 294 301 301 299 290 286 298 296 296 297 294 295 298 301 300 297 296 291 292 298 300 303 306 301 302 298 291 286 287 287 288 293 296 299 312 326 325 318 316 318 325
308 308 304 305 303 302 299 294 284 293 294 300 299 298 295 297 298 299 297 295 297 296 293 293 292 300 305 301 298 295 292 287 283 285 289 295 292 307 323 327 319 319 320 321 321
307 298 300 303 306 300 296 287 288 293 300 299 298 295 295 298 297 296 295 295 298 299 294 291 293 303 305 304 303 297 292 294 288 287 288 291 306 320 321 318 317 318 321 324 340
298 297 299 306 307 297 292 289 291 298 299 298 293 296 293 296 296 295 294 299 299 301 297 296 292 299 304 304 302 299 300 292 289 286 284 289 297 307 316 313 318 320 320 324 332
298 298 302 306 299 295 288 289 294 300 301 297 295 294 295 295 294 293 296 302 302 302 299 294 293 297 301 297 297 296 293 293 291 289 287 286 293 303 320 319 319 320 320 321 331
296 296 303 303 292 290 289 293 299 298 300 299 298 297 295 297 294 294 297 301 306 303 296 295 292 291 295 300 303 297 294 294 290 288 290 291 294 310 316 317 318 318 322 327 334
292 296 307 300 289 289 291 295 298 296 297 297 298 299 298 295 291 296 299 305 307 307 300 299 291 288 291 295 298 298 298 295 292 291 291 291 294 312 313 316 317 317 321 324 326
294 298 299 296 292 292 291 293 294 301 299 299 298 298 295 293 294 294 297 303 305 308 322 305 291 291 289 292 297 298 300 300 295 291 291 293 297 308 312 313 315 316 316 318 319
295 295 299 293 294 294 294 295 294 294 300 298 295 298 296 290 292 292 298 300 303 310 306 300 291 296 295 299 299 300 300 301 297 295 294 296 302 306 312 313 316 314 315 317 318
295 298 300 298 296 296 295 293 296 297 298 298 295 298 296 292 294 295 298 294 295 301 298 302 297 295 292 300 301 300 302 303 302 302 301 304 304 310 314 313 312 313 313 316 322
301 304 300 297 297 293 293 297 299 300 301 302 302 299 300 303 304 301 301 302 298 300 297 300 296 296 294 298 298 292 298 301 302 304 304 301 305 311 311 315 314 314 317 319 325

GFSSW_sfc_thetae_060.txt.gz
Theta_e
320 320 319 320 320 320 321 321 321 322 322 322 322 322 323 323 323 319 309 318 333 355 354 347 341 337 336 329 332 325 312 306 309 311 313 315 315 330 333 331 334 335 335 337 343
319 319 319 319 320 320 321 321 321 321 321 322 322 322 322 324 316 309 325 348 353 354 336 331 329 326 320 320 320 313 306 308 314 316 316 318 317 323 327 329 331 334 339 341 344
318 318 318 318 319 320 320 320 321 321 321 321 321 322 322 322 311 314 345 352 351 353 326 318 318 320 311 307 307 310 305 310 313 318 320 316 317 320 325 324 329 330 336 340 341
317 317 317 317 318 318 319 320 320 320 320 321 321 322 323 318 305 319 355 354 351 341 318 314 309 303 301 304 308 304 310 311 312 314 318 316 317 317 325 324 332 338 340 340 339
316 316 316 316 317 318 318 318 319 319 319 320 321 322 313 301 304 341 354 353 339 319 313 309 305 304 303 305 306 304 307 309 310 312 315 320 317 318 318 326 336 340 342 340 340
315 315 315 315 316 317 317 318 318 318 319 320 321 321 306 296 310 339 330 320 315 311 307 308 305 309 306 306 304 307 307 308 313 319 320 317 319 318 321 334 334 338 340 341 341
315 315 315 315 316 316 317 317 317 318 319 320 321 321 306 302 313 326 320 313 312 308 305 309 308 307 306 305 308 306 306 310 310 314 317 319 314 315 326 333 332 333 335 338 339
314 314 314 314 315 316 316 316 316 318 321 322 322 316 299 309 313 316 313 311 311 309 308 310 312 307 305 307 304 303 303 299 307 312 316 313 304 314 330 331 330 332 333 334 333
313 313 314 314 315 315 314 314 317 319 324 324 314 308 302 316 308 312 313 311 311 310 309 315 308 302 302 297 294 296 295 298 305 311 311 311 304 311 329 331 329 331 333 332 331
313 313 314 314 314 314 313 315 316 318 321 321 319 299 303 305 310 312 310 313 310 306 308 306 301 298 296 295 290 292 294 296 299 304 307 307 307 310 320 329 329 331 332 331 331
313 313 313 314 313 313 309 301 301 300 301 302 303 301 306 311 313 309 310 307 305 304 296 301 298 294 298 298 298 297 296 296 301 303 303 303 304 308 313 321 327 329 330 330 331
312 313 313 313 312 312 303 300 300 299 296 303 304 306 311 310 305 308 311 303 303 299 300 298 293 301 302 301 299 298 296 296 300 305 304 304 305 315 313 316 320 328 329 329 329
312 312 312 312 311 303 298 299 303 298 294 300 303 303 304 308 304 306 308 304 301 298 298 295 299 304 302 300 298 294 294 295 298 303 304 302 298 305 316 320 326 330 331 330 330
312 312 311 309 299 299 299 301 302 300 290 296 298 303 303 304 301 310 310 307 301 298 299 297 301 302 300 299 298 290 299 301 299 300 294 300 291 298 309 320 328 330 330 330 332
312 311 311 309 298 297 301 300 300 297 282 298 299 305 299 300 301 304 308 304 301 300 298 297 299 298 298 299 300 298 300 299 302 296 291 294 292 295 309 316 325 328 323 324 329
311 310 309 302 297 301 302 300 299 291 283 295 301 296 295 297 300 302 303 305 304 300 299 298 302 301 301 303 302 302 297 294 292 290 287 291 294 295 304 315 321 319 317 321 323
310 309 307 305 293 299 299 298 290 284 295 294 294 296 293 294 296 299 298 296 295 291 290 295 297 300 303 299 299 296 290 286 286 286 287 292 294 297 311 315 323 317 317 323 324
308 308 304 304 302 300 296 294 283 290 292 297 297 295 293 295 295 297 296 294 295 294 290 290 290 298 302 300 298 293 291 287 282 283 287 293 290 301 322 324 323 319 322 325 323
307 297 297 300 305 298 294 286 288 291 297 296 295 293 293 296 295 295 293 293 296 297 292 289 292 300 302 301 301 295 291 292 287 285 286 289 306 315 321 316 315 316 320 320 320
296 295 298 304 304 295 291 288 289 295 297 295 291 293 290 294 293 293 292 298 296 299 295 293 290 296 302 302 300 297 298 291 288 284 283 288 297 302 314 314 315 315 317 321 338
296 296 301 303 295 293 287 287 293 298 298 294 293 292 293 293 292 291 294 300 301 300 297 293 292 293 298 295 295 294 291 290 289 288 286 285 291 303 317 319 315 316 319 321 329
291 292 301 298 290 286 288 292 298 297 298 297 296 295 294 295 292 292 295 299 303 302 294 295 290 288 294 298 301 296 294 292 289 287 288 289 292 307 313 321 319 319 322 322 328
289 292 304 297 287 286 289 293 296 294 295 293 295 297 296 292 290 294 297 302 303 305 300 294 289 287 290 292 296 297 295 292 290 290 290 290 292 311 312 318 321 320 321 325 330
292 295 298 294 291 288 289 292 293 299 297 296 296 296 293 291 291 292 295 301 303 304 315 304 289 289 287 290 294 297 299 297 294 291 290 292 296 303 311 313 318 319 319 319 322
294 292 300 293 293 291 291 294 293 294 297 297 292 295 294 289 290 291 297 299 301 307 303 297 292 293 293 295 298 298 299 300 296 295 295 296 297 302 308 316 318 317 317 317 319
293 297 298 296 295 295 294 293 295 296 295 295 293 297 295 291 293 293 297 294 294 299 298 299 295 295 292 298 300 298 300 301 301 299 301 302 301 306 311 313 315 317 314 315 317
298 302 296 295 295 292 293 295 298 299 300 299 300 299 296 300 301 299 300 301 296 298 295 296 294 294 292 298 297 293 296 300 303 303 304 299 304 308 310 314 314 315 315 315 317

GFSSW_sfc_thetae_063.txt.gz
Theta_e
320 320 320 320 321 321 321 321 322 322 322 322 322 322 323 323 323 323 313 323 348 358 352 344 342 344 346 337 337 334 320 311 311 313 315 324 325 332 336 334 335 337 338 341 349
319 319 319 319 320 321 321 321 321 321 321 321 322 322 322 323 320 314 331 350 355 354 341 337 334 336 332 327 328 325 317 311 317 318 317 322 323 330 331 332 333 336 341 346 349
318 318 318 318 318 320 320 320 321 321 321 321 322 322 322 324 316 320 350 354 353 345 337 332 332 330 318 318 318 321 313 315 316 318 319 320 322 330 329 329 333 335 339 344 346
317 317 317 317 318 318 319 320 320 320 320 320 321 322 323 322 311 322 354 353 352 332 329 319 324 311 309 310 314 312 316 317 316 316 317 319 324 323 328 328 338 341 342 344 344
316 316 316 316 317 317 318 319 319 319 319 320 321 322 319 308 308 342 356 353 348 324 318 315 311 311 308 312 312 311 313 314 315 319 320 322 322 322 324 330 338 343 342 343 344
315 315 315 315 316 317 317 318 318 318 319 320 321 321 312 304 320 341 341 341 332 319 316 314 311 313 312 312 311 313 313 313 317 322 323 320 322 323 326 337 340 341 341 342 343
315 315 315 315 315 316 317 317 317 318 319 320 322 321 310 307 325 331 326 322 320 317 312 314 313 313 314 311 313 312 310 314 317 320 323 325 320 321 331 337 338 340 341 343 345
314 314 314 314 315 316 316 316 316 318 321 325 322 322 306 313 318 320 323 319 317 317 314 316 317 315 313 314 310 309 311 309 314 317 321 322 313 321 333 335 336 339 341 342 345
313 313 314 314 315 315 314 314 317 320 323 324 319 312 306 319 312 317 321 317 316 316 316 316 316 311 311 308 307 307 304 306 309 315 316 316 310 318 333 334 334 337 339 341 341
313 313 314 314 314 314 313 315 317 320 323 323 321 309 310 309 315 317 318 318 316 314 313 312 311 309 308 307 302 302 302 304 305 310 311 309 310 316 324 332 333 335 337 338 340
313 313 313 313 313 312 312 310 309 309 308 310 309 306 309 316 317 316 316 315 313 311 307 308 306 305 307 307 306 305 304 304 307 309 308 310 311 315 320 328 333 335 337 337 338
313 313 313 313 312 312 308 307 304 304 302 308 307 308 312 314 309 313 315 311 310 306 307 306 304 309 307 306 305 304 303 304 307 310 310 311 311 321 325 325 328 335 337 337 337
312 313 312 311 311 308 303 306 307 306 302 306 308 308 309 312 308 310 313 311 308 306 306 304 306 307 306 306 304 306 304 305 304 307 311 309 308 314 325 330 330 335 338 339 338
312 312 311 309 304 304 305 307 306 306 299 301 303 307 308 310 306 313 315 313 307 306 305 305 307 306 305 304 306 303 307 305 304 305 302 308 300 309 324 327 330 333 335 336 338
312 311 311 309 304 301 306 306 306 304 289 302 304 310 307 306 306 308 313 312 307 305 306 304 304 304 304 305 306 305 306 305 305 307 304 303 303 308 318 323 326 330 334 336 339
311 311 309 305 304 305 306 305 306 298 288 298 305 303 303 305 305 307 309 312 311 307 305 306 307 307 307 308 307 307 305 303 304 304 299 302 304 305 314 321 328 331 333 336 339
310 309 307 307 300 305 306 306 297 291 300 298 300 303 302 301 303 305 304 305 304 301 301 304 304 307 308 305 306 305 304 300 297 297 297 303 303 307 317 322 325 330 330 329 330
308 308 307 307 309 306 305 302 292 296 297 301 302 302 300 302 301 302 302 301 303 303 301 299 297 303 308 306 305 305 305 300 293 294 297 302 300 306 323 330 333 331 334 330 329
307 305 304 307 309 306 303 295 295 297 300 299 300 299 300 301 301 301 302 302 305 305 301 299 298 305 306 308 309 303 302 304 300 298 298 301 307 318 325 327 328 330 331 330 330
302 302 305 309 309 303 299 295 297 298 301 300 296 299 297 300 300 301 301 304 302 304 306 304 299 304 306 308 306 307 307 301 302 296 294 298 302 305 318 324 328 327 328 330 330
302 300 306 310 303 301 294 296 298 301 302 299 298 297 299 298 300 300 301 305 307 305 305 304 304 302 306 305 305 303 303 301 303 301 297 296 300 316 321 327 328 330 330 329 328
298 295 307 306 297 296 296 298 298 301 302 301 302 300 298 299 300 300 301 305 307 308 303 304 304 301 302 305 306 306 306 307 300 300 301 301 301 312 317 323 331 331 331 329 329
295 297 309 304 294 295 297 297 299 299 300 299 300 302 302 301 299 300 302 306 307 310 308 305 302 299 300 303 305 305 304 305 305 306 303 300 303 316 320 321 330 330 330 330 331
297 301 303 302 298 296 297 298 298 301 300 300 300 302 301 301 302 300 302 305 307 308 315 311 302 302 298 301 304 305 304 304 307 304 304 304 307 314 316 321 324 331 332 331 333
299 299 302 298 299 299 299 299 298 297 301 301 300 299 300 300 300 300 304 305 306 311 311 309 305 304 304 303 304 305 306 305 305 307 305 308 307 314 316 318 324 329 332 328 329
298 301 304 300 302 300 298 300 298 300 301 300 299 301 301 301 303 301 305 306 305 308 308 309 308 307 304 305 306 303 305 306 306 305 307 309 309 317 320 322 322 324 328 327 328
299 305 302 300 301 299 300 300 300 302 304 304 302 302 299 302 305 308 309 309 308 307 307 308 308 307 300 306 304 301 303 305 308 311 311 308 313 321 321 322 322 323 324 326 328

GFSSW_sfc_thetae_066.txt.gz
Theta_e
320 320 320 321 321 322 322 322 322 322 323 323 323 323 323 324 323 328 318 326 344 357 353 344 346 347 347 337 339 336 321 314 315 315 318 326 325 332 337 335 338 338 339 341 352
319 319 319 319 320 321 321 321 321 321 322 322 322 323 323 324 325 320 340 354 355 357 341 338 336 342 334 328 329 327 318 315 319 320 319 321 324 328 331 332 335 338 345 347 351
318 318 318 318 318 320 320 320 320 321 321 321 322 323 323 325 322 324 353 356 355 352 339 335 333 333 322 321 322 322 316 319 320 321 322 322 322 328 330 329 333 336 342 345 347
317 317 317 318 318 319 319 320 320 320 320 321 322 323 323 327 312 329 357 356 355 341 336 326 328 321 318 317 320 316 320 319 320 321 323 322 325 325 329 330 336 339 345 345 344
317 317 317 317 317 317 318 319 319 319 319 320 321 323 323 314 314 347 358 355 346 331 327 321 320 319 317 319 318 317 319 320 320 322 326 326 324 324 326 331 336 342 344 343 343
316 316 316 317 317 317 318 318 318 318 319 320 322 322 318 309 325 342 342 341 335 328 323 323 319 318 316 317 317 319 319 319 321 323 327 324 325 326 331 334 337 341 342 343 343
315 316 316 316 316 317 317 317 317 318 319 321 323 324 314 312 326 337 339 336 333 327 320 319 318 316 318 317 319 318 315 319 320 321 321 326 322 322 329 336 337 339 341 343 346
315 315 315 315 315 316 316 316 317 319 322 325 324 324 311 318 323 326 329 326 326 327 320 321 321 319 317 319 317 314 317 312 318 319 321 320 313 320 331 334 336 339 340 342 346
314 314 315 315 315 315 314 314 317 320 324 324 325 317 310 318 316 321 325 320 322 322 322 320 320 317 316 312 313 315 309 311 313 317 318 316 313 320 330 333 336 340 341 343 346
314 314 314 314 314 314 313 315 321 319 325 327 324 315 315 312 318 321 324 323 319 319 317 316 316 313 313 311 304 308 310 311 310 314 316 315 314 320 325 330 334 338 343 343 344
313 314 313 313 313 312 314 319 316 316 315 313 315 313 312 317 321 319 321 320 320 317 311 315 310 308 310 312 312 310 309 308 312 315 312 314 314 319 325 327 332 337 340 342 344
313 313 313 313 312 311 314 313 307 308 306 314 313 314 317 318 312 317 321 315 314 309 312 310 307 312 312 312 310 310 308 308 311 313 313 314 314 322 328 328 329 335 338 341 343
313 313 312 311 311 312 310 312 313 312 308 311 314 312 314 315 312 313 318 316 312 310 310 308 310 312 310 310 308 309 308 308 308 312 314 313 311 318 326 332 332 333 338 341 342
312 312 311 308 309 309 311 313 312 313 303 306 307 312 312 314 309 317 319 316 313 309 310 310 312 309 308 307 309 306 311 309 308 307 305 313 305 315 322 329 332 333 335 339 343
312 312 311 309 308 307 310 312 313 312 292 307 309 315 314 311 311 312 319 316 310 310 311 309 308 307 306 307 310 308 311 310 310 308 309 309 305 312 324 322 330 334 336 339 343
311 311 310 310 310 310 312 312 313 300 292 302 308 307 308 310 310 312 312 316 316 311 312 311 313 311 310 311 311 312 310 311 310 309 303 308 307 307 312 316 324 335 337 339 341
310 309 308 309 306 311 312 310 300 295 304 301 303 307 307 307 308 309 309 308 306 304 305 309 309 311 312 308 312 310 308 302 301 301 300 309 305 309 314 321 327 331 336 339 342
308 307 311 311 316 313 309 304 295 300 301 305 304 306 304 307 307 307 307 306 310 310 306 304 302 309 312 309 308 309 308 303 297 298 301 309 302 309 316 324 333 333 338 337 337
307 310 311 317 315 313 304 297 298 302 303 302 304 302 304 306 305 306 306 306 309 310 305 304 304 310 310 312 311 308 305 311 306 306 301 304 308 315 317 322 329 333 336 336 334
305 307 310 316 316 309 300 297 303 305 305 304 299 303 301 304 304 306 306 308 308 311 313 309 303 308 310 312 311 310 313 304 305 299 297 302 304 306 315 319 330 331 336 340 339
307 302 313 317 313 303 296 299 303 306 306 302 302 302 303 302 304 305 305 309 311 309 312 310 307 306 309 308 307 307 306 308 308 307 300 299 303 314 314 320 327 332 335 340 340
304 298 314 313 300 300 297 301 300 304 307 305 305 303 302 303 303 304 305 309 312 313 306 310 308 303 305 310 312 311 309 310 303 304 306 304 304 315 316 322 330 332 336 340 338
299 302 314 311 297 298 300 300 302 303 304 303 303 304 305 303 301 305 306 310 312 312 311 311 306 301 303 307 309 307 309 310 311 312 306 302 305 319 323 325 329 333 338 338 334
301 301 309 306 306 302 300 299 299 304 303 304 304 306 304 303 306 304 305 308 310 314 317 314 310 307 301 305 308 306 307 309 310 305 305 307 308 318 322 323 327 331 338 338 336
304 304 308 304 302 301 303 303 302 301 306 306 304 303 303 301 303 303 307 308 309 311 316 316 309 309 308 308 307 308 307 308 307 309 307 309 310 319 323 325 327 330 336 338 338
305 306 310 307 307 304 301 303 303 305 306 304 303 305 305 303 305 303 306 308 307 311 313 315 309 311 308 307 308 306 308 310 310 310 311 312 314 325 327 329 328 330 329 332 337
305 310 308 306 306 303 305 304 304 307 308 308 307 306 305 306 309 310 313 314 314 311 308 309 310 308 303 308 307 303 308 309 311 313 314 309 320 325 325 327 332 333 333 332 331

GFSSW_sfc_thetae_069.txt.gz
Theta_e
320 320 320 321 321 322 322 322 322 323 323 323 323 324 324 324 323 330 321 329 340 356 358 348 347 345 345 341 337 336 325 315 315 316 319 324 324 331 335 335 336 337 338 343 348
319 319 320 320 321 321 321 321 321 322 322 322 323 323 324 324 323 322 340 357 352 355 345 339 337 339 337 330 329 326 320 317 321 322 320 322 322 326 330 332 335 337 340 346 347
318 319 319 319 320 320 320 320 321 321 321 322 322 323 324 325 323 326 354 357 354 355 341 340 332 334 328 327 324 324 319 322 322 323 323 323 323 326 327 326 334 336 339 344 345
318 318 318 318 318 319 320 320 320 320 320 321 322 323 324 325 313 336 358 356 355 347 338 335 328 327 324 321 324 319 323 323 323 324 323 324 325 323 325 328 336 340 343 343 344
317 317 317 317 318 318 319 319 319 319 320 321 322 323 322 320 317 347 359 357 345 343 332 329 325 326 321 322 323 320 322 323 324 324 326 327 324 324 325 331 336 341 343 342 345
316 316 317 317 317 317 318 318 318 318 320 321 323 322 324 312 329 344 342 343 334 331 329 327 324 325 320 320 320 323 322 322 324 323 326 323 324 325 330 334 336 341 341 343 344
316 316 316 316 316 317 317 317 317 318 320 322 324 325 317 315 325 338 340 335 334 331 324 326 326 321 322 320 323 321 317 321 321 322 322 324 318 322 330 334 336 338 340 343 345
315 315 316 316 316 316 316 315 316 318 321 326 327 326 315 321 326 331 338 334 335 331 326 324 324 321 320 322 320 317 317 313 319 321 322 321 314 323 329 333 335 337 339 342 346
315 315 315 315 315 315 314 314 316 321 324 327 327 324 313 320 317 324 331 327 329 326 327 324 322 318 318 313 311 314 310 312 315 321 318 319 315 321 327 331 334 337 339 341 345
314 314 314 314 314 313 313 314 324 320 323 329 326 316 318 315 319 321 324 324 322 321 319 319 317 314 314 311 305 308 310 313 312 316 317 316 316 319 324 326 331 337 339 340 343
314 314 314 313 313 312 314 320 318 319 320 314 317 315 315 319 322 320 322 320 320 318 312 316 311 309 312 314 314 312 311 311 315 317 315 314 316 319 323 324 327 336 339 340 342
313 313 313 313 312 312 315 314 312 312 308 316 316 316 320 320 314 318 323 316 316 311 314 312 309 313 314 314 312 311 309 309 313 315 314 314 314 319 321 326 327 333 337 339 342
313 312 312 312 311 313 312 314 318 316 309 311 315 315 315 318 313 315 320 317 315 312 312 309 311 314 312 311 309 310 309 310 310 313 315 314 313 315 321 328 331 331 336 339 341
312 312 311 310 309 312 313 318 317 317 303 306 311 315 317 317 312 319 320 318 315 312 313 312 315 312 310 309 310 307 313 311 310 308 305 314 304 315 318 322 328 330 332 337 341
311 312 311 308 311 310 312 315 316 316 293 309 311 320 318 313 314 315 320 318 312 313 313 310 311 310 309 309 311 308 313 311 311 309 309 309 308 312 318 317 321 327 333 336 342
311 311 310 312 314 314 315 315 314 301 293 305 310 310 310 313 314 315 316 318 318 313 315 313 317 314 312 313 312 313 311 311 311 309 303 308 308 310 313 318 319 329 333 337 341
310 309 308 311 308 314 314 311 300 295 307 304 306 309 309 308 311 313 311 310 308 306 307 311 312 314 315 310 313 312 308 302 301 302 301 311 308 311 315 317 320 323 335 340 342
308 307 313 314 316 316 312 304 296 302 304 309 307 308 306 309 309 311 310 308 312 311 308 305 304 311 314 311 309 309 309 303 299 301 304 311 305 309 317 318 323 332 335 342 341
307 312 312 316 318 316 306 297 299 304 308 305 307 303 305 307 308 309 308 308 311 313 307 306 306 314 315 315 313 309 307 312 306 308 304 307 310 315 317 317 320 330 335 338 340
308 310 312 320 319 313 302 297 303 308 308 307 301 305 302 305 306 307 307 310 309 312 315 310 305 312 313 314 314 311 313 305 306 300 299 304 306 308 314 315 321 328 332 338 338
309 305 318 320 319 307 297 300 304 309 308 306 304 304 305 304 307 306 307 310 311 311 314 312 309 309 311 309 308 308 307 309 310 307 301 300 304 317 315 318 320 330 334 340 338
306 301 317 317 304 304 300 303 302 306 309 307 307 306 305 306 305 306 306 309 314 314 308 312 309 305 307 313 314 313 310 310 304 304 307 306 305 315 317 323 326 330 335 342 343
303 304 317 313 300 303 305 303 305 304 306 306 305 307 307 305 303 306 309 313 314 314 312 313 307 302 305 309 312 309 311 312 312 311 307 303 305 319 322 324 330 332 337 341 340
304 301 310 310 309 305 304 302 301 305 304 306 306 308 306 304 308 305 308 310 312 315 321 319 310 307 301 306 309 307 308 310 310 306 306 307 308 316 323 325 329 332 341 341 338
307 304 312 306 304 305 305 305 303 303 307 308 305 305 305 303 304 305 307 310 311 311 314 315 308 310 310 308 310 309 308 308 308 309 306 309 313 316 326 327 329 334 339 340 340
305 308 312 309 312 308 304 304 305 307 308 306 306 306 307 304 305 304 307 309 309 313 312 316 310 313 308 309 309 307 309 309 309 310 310 309 310 319 328 331 330 331 332 335 338
308 308 309 306 309 308 306 304 305 308 310 311 309 308 307 308 311 311 312 314 314 313 311 312 311 310 304 308 308 304 307 308 310 311 311 311 322 327 326 331 332 333 336 336 335

GFSSW_sfc_thetae_072.txt.gz
Theta_e
320 320 321 321 321 321 322 322 322 323 323 323 323 323 324 325 323 327 322 329 338 354 355 343 347 346 343 339 340 334 321 316 314 315 317 323 322 329 331 333 335 336 337 342 346
319 320 320 320 320 321 321 321 321 322 322 322 322 323 324 324 321 317 337 357 351 353 337 337 336 339 334 334 330 324 318 317 320 320 318 322 321 323 326 332 333 335 342 344 345
319 319 319 319 319 319 320 320 320 320 321 321 322 323 324 324 318 320 357 357 351 352 332 339 337 331 328 330 325 323 317 321 321 322 322 321 323 326 324 325 331 334 338 341 343
318 318 318 318 318 319 319 320 320 320 320 321 322 323 324 323 311 335 357 356 353 339 332 335 333 325 323 322 324 318 322 322 323 323 322 322 324 323 325 327 337 341 342 342 342
317 317 317 317 318 318 319 319 319 319 319 321 322 324 321 316 319 344 359 354 343 338 332 332 328 325 320 322 321 319 321 323 323 323 323 325 323 324 323 331 334 342 341 341 342
317 317 317 317 317 317 318 318 318 318 319 321 323 323 322 311 332 341 340 340 333 332 332 330 328 327 322 319 318 320 320 321 322 322 323 322 321 324 328 332 334 341 339 341 343
316 316 316 317 317 317 316 316 317 318 319 321 324 325 316 314 324 338 338 334 331 329 325 328 329 323 323 318 321 320 316 318 320 322 321 323 317 320 329 331 333 337 339 341 344
315 316 316 316 316 316 316 315 316 318 320 323 327 325 313 323 325 324 335 333 333 332 329 328 325 320 318 320 317 314 315 310 317 320 321 320 312 323 329 330 332 335 337 340 342
315 315 315 315 315 315 314 314 316 320 323 326 325 321 315 325 319 322 329 329 330 329 328 327 322 317 317 311 309 311 305 309 313 319 319 317 313 320 324 329 331 334 336 338 342
314 314 314 314 314 314 313 314 323 322 321 326 325 315 318 316 319 320 325 329 326 324 320 319 316 312 312 309 302 306 307 310 311 317 318 315 314 319 322 324 326 333 336 338 341
313 313 313 313 313 312 312 317 316 317 318 314 316 313 315 320 322 319 320 319 321 318 312 315 310 306 309 312 312 311 309 309 313 317 315 314 314 316 321 322 323 331 337 338 340
313 313 313 312 312 312 313 314 314 314 306 314 315 317 320 321 314 317 322 314 313 310 313 311 307 312 314 313 312 311 309 309 312 314 313 312 312 316 319 321 324 326 335 337 339
312 312 312 312 310 314 314 313 320 316 306 309 312 312 316 318 314 315 319 316 312 310 311 309 311 314 312 311 309 309 307 308 308 312 314 312 310 313 318 321 325 326 334 338 340
312 312 311 309 310 312 311 318 318 317 301 305 309 312 314 316 312 318 319 317 313 310 312 312 315 312 311 309 310 306 311 310 309 308 303 312 301 315 316 318 323 325 326 335 339
312 311 311 309 307 310 314 316 316 314 291 308 311 320 315 311 314 314 319 315 311 311 312 310 311 311 309 310 312 308 312 310 310 308 307 307 304 310 317 316 322 324 327 331 340
311 310 310 310 312 315 316 315 313 299 292 304 311 310 309 311 312 316 315 317 316 311 313 312 317 314 313 314 313 313 309 309 310 307 300 306 305 307 312 317 319 326 329 331 340
310 309 307 310 306 313 314 310 298 294 306 303 305 309 308 308 309 311 310 310 307 304 305 310 311 314 315 311 313 311 306 299 299 299 299 309 306 310 317 320 322 326 330 337 339
308 307 313 313 316 316 312 303 293 301 303 308 307 308 305 308 308 309 308 307 311 309 305 303 301 310 314 311 308 309 307 300 296 297 302 311 304 310 318 319 323 326 337 338 339
306 313 312 316 318 316 306 296 298 302 306 305 307 303 304 307 307 307 306 307 310 311 306 304 303 313 314 315 313 308 306 310 303 305 301 305 311 315 317 317 318 327 333 336 339
305 309 312 318 320 312 302 296 301 307 308 307 302 305 301 304 304 305 305 309 309 312 314 309 304 310 312 315 314 311 312 303 305 298 297 302 307 307 316 317 320 326 329 336 341
309 306 317 320 318 308 298 300 304 308 309 305 304 303 304 303 304 304 305 309 311 310 312 310 309 307 311 309 308 309 306 307 307 306 299 299 304 320 319 320 323 328 331 337 337
307 301 318 319 305 306 302 304 302 306 309 307 307 306 304 304 304 305 304 308 313 313 307 310 307 304 305 312 314 311 309 308 302 303 306 305 304 313 318 320 323 324 335 340 338
303 306 313 314 298 302 307 306 305 305 305 305 305 307 308 304 302 305 306 311 313 312 312 314 306 301 303 308 311 308 309 310 311 311 305 302 304 321 325 326 329 333 337 343 341
303 301 307 312 308 304 303 304 304 308 305 306 305 307 305 304 307 304 305 309 313 312 323 318 310 309 299 305 309 307 308 309 309 306 306 305 312 321 321 323 328 338 342 343 343
307 304 308 303 307 308 307 305 303 303 309 306 305 304 303 301 303 303 306 307 310 315 312 314 310 309 308 308 307 307 307 308 306 308 304 308 314 318 316 316 322 337 343 340 336
304 303 308 306 309 308 305 305 303 304 307 306 306 305 306 304 304 303 306 307 307 312 310 314 310 311 307 309 309 306 308 309 309 308 308 309 314 320 321 326 329 332 337 338 340
310 308 303 302 306 307 307 307 304 308 309 310 310 308 306 306 312 312 310 311 311 312 311 312 312 310 304 306 306 302 308 310 309 311 312 309 319 324 326 329 330 334 335 335 335

GFSSW_sfc_thetae_075.txt.gz
Theta_e
320 320 320 321 321 321 321 321 321 322 322 323 323 323 323 324 323 325 321 324 334 352 354 339 340 341 342 335 336 335 318 309 309 311 311 319 320 329 336 331 333 338 337 341 344
319 320 320 320 320 320 320 321 321 321 321 322 322 323 323 324 320 313 329 351 353 353 336 329 331 334 328 327 326 319 310 313 317 314 312 317 320 326 330 328 328 336 341 343 344
318 319 319 319 319 320 320 320 320 320 320 321 322 323 323 323 316 321 357 355 351 349 328 326 332 330 323 321 322 321 310 316 318 317 317 314 319 329 328 324 328 332 336 339 341
318 318 317 318 318 319 319 319 320 319 320 320 321 323 324 322 305 332 357 355 352 340 329 322 325 323 320 316 322 315 317 318 318 319 318 317 318 322 325 327 334 338 338 339 339
317 316 317 317 318 318 318 319 318 318 319 320 321 324 319 308 313 341 358 353 342 336 323 322 324 323 318 318 317 313 315 317 318 318 319 321 318 321 326 334 338 339 339 338 338
316 317 317 317 318 317 317 317 317 318 319 320 322 323 320 305 322 345 339 339 334 328 324 324 326 325 321 316 313 314 314 315 316 317 319 317 318 323 326 338 337 337 337 338 339
316 316 316 317 317 317 317 316 316 317 319 320 322 323 314 308 318 337 334 331 332 325 321 326 326 319 318 313 317 314 309 312 314 315 315 319 312 317 326 335 335 336 337 338 339
315 315 315 316 316 316 315 315 316 317 319 321 324 320 309 318 316 318 330 331 329 325 324 324 322 316 309 313 311 307 306 301 311 314 315 313 306 320 325 326 332 334 336 338 339
314 315 315 315 314 314 314 314 316 320 322 325 320 313 307 326 316 318 319 326 328 326 325 329 320 309 310 304 300 302 298 301 305 313 314 313 307 317 323 328 328 332 334 336 338
314 314 314 314 313 313 313 314 317 320 320 323 321 309 314 311 318 318 316 322 324 323 320 318 310 304 303 299 293 298 299 301 303 311 313 310 308 313 316 326 328 329 333 336 339
313 313 313 313 312 312 309 307 309 310 311 309 310 310 312 317 320 316 317 316 318 319 309 312 302 298 302 304 306 305 304 302 306 311 307 306 308 311 313 314 321 328 331 335 339
313 313 313 312 311 311 308 307 307 308 301 309 309 310 313 315 311 315 316 308 309 306 309 305 301 307 310 309 307 306 303 302 306 310 306 305 306 309 311 312 316 329 330 334 340
313 313 312 311 310 311 307 307 312 310 299 304 308 308 309 310 308 312 312 310 306 304 305 302 305 311 309 307 305 302 300 302 302 306 306 305 302 306 311 313 318 331 332 334 340
312 312 311 309 307 305 306 312 312 310 293 300 304 308 309 310 305 313 316 312 308 304 306 304 310 309 308 306 306 296 307 307 306 301 295 303 292 301 307 308 315 318 331 332 342
312 312 311 309 303 305 310 313 312 306 285 305 306 315 310 305 307 308 315 311 305 306 306 304 307 307 306 307 308 302 308 305 304 299 296 300 294 299 305 306 312 316 324 333 344
311 311 310 307 305 309 310 311 306 292 288 301 307 305 305 306 306 309 310 314 311 306 307 307 312 310 308 311 310 310 305 302 300 295 291 297 297 299 302 306 315 319 323 335 344
311 309 307 307 301 306 309 305 291 288 303 299 301 304 305 303 304 305 304 304 301 296 297 303 306 310 312 307 308 305 299 289 288 289 291 298 296 301 308 316 321 321 325 335 345
309 308 308 310 309 308 307 297 288 297 298 304 304 304 302 304 304 305 303 301 306 303 298 296 296 306 310 307 303 302 298 290 286 289 293 300 296 302 313 314 323 324 330 335 343
307 307 309 312 312 312 301 290 292 299 303 301 302 299 300 304 304 304 302 301 305 306 299 297 298 309 310 311 308 302 298 301 293 294 291 295 301 311 315 319 322 328 331 331 341
301 304 309 314 315 308 297 293 297 302 303 302 296 300 298 301 301 301 302 307 306 308 309 303 296 305 309 311 310 305 306 296 294 288 288 295 299 301 310 312 327 327 328 331 338
303 304 311 316 314 304 294 296 300 305 305 301 299 299 300 300 300 299 301 306 308 308 309 306 302 301 306 303 301 303 302 298 297 295 290 290 294 309 309 311 319 324 330 333 334
302 298 315 315 301 302 298 302 302 303 305 303 303 302 300 301 299 300 300 304 310 308 303 307 302 298 300 307 310 307 304 303 294 292 295 294 295 319 313 314 321 324 321 330 335
298 302 312 310 295 296 300 303 305 304 302 302 301 303 303 300 296 302 303 307 309 308 306 305 301 296 294 300 305 303 306 303 300 297 294 292 297 322 322 322 325 327 328 332 331
299 298 305 307 306 301 299 300 301 307 306 306 302 302 300 298 301 299 302 306 309 308 322 312 301 300 294 298 303 302 305 304 298 294 296 297 304 316 317 319 324 328 328 333 332
302 302 305 299 300 303 305 305 302 301 305 308 305 302 300 295 298 298 301 304 307 311 310 307 299 305 303 306 306 304 304 304 302 300 299 301 309 310 313 315 329 329 323 330 333
299 299 301 298 301 301 302 303 304 303 304 304 303 306 306 300 301 299 301 299 301 306 306 310 301 304 303 307 306 305 308 308 310 311 308 310 311 314 317 320 327 321 328 334 334
307 307 302 298 298 298 302 306 306 307 308 308 306 304 304 307 310 310 309 306 304 302 305 305 301 299 298 305 304 299 312 314 314 312 314 308 314 321 323 326 326 328 332 334 338

GFSSW_sfc_thetae_078.txt.gz
Theta_e
319 319 319 320 321 321 321 321 321 322 322 322 322 322 323 323 323 323 312 320 326 351 351 337 333 335 334 334 338 333 316 314 315 308 309 320 320 328 333 332 336 337 336 338 343
318 318 318 319 320 320 320 320 321 321 321 321 321 322 323 324 320 314 328 348 348 353 333 327 323 327 326 326 321 317 309 311 316 315 311 320 324 328 327 325 333 335 339 340 346
318 318 319 318 319 319 320 320 320 320 320 320 321 322 323 323 310 313 354 354 353 349 328 322 321 322 320 321 318 314 310 316 315 317 315 311 325 332 325 321 331 332 335 338 340
317 317 317 317 318 319 319 319 319 319 319 320 321 322 323 320 298 329 355 352 352 335 327 319 317 317 316 316 321 311 314 313 312 314 314 314 320 327 327 325 337 339 339 338 338
316 316 316 317 317 318 318 318 318 318 318 319 321 322 315 303 309 335 356 351 338 332 325 318 317 318 315 318 317 310 312 313 313 313 315 316 315 318 327 331 339 340 339 338 339
316 316 316 317 317 317 317 317 317 317 318 319 321 322 315 303 315 347 340 336 332 327 322 319 320 324 318 316 310 312 310 310 311 312 314 313 313 321 328 335 336 336 336 338 339
315 315 316 316 316 316 316 316 316 317 318 319 320 321 313 304 314 336 335 329 330 326 319 322 322 319 316 312 314 308 305 308 310 310 310 312 308 314 330 335 333 334 336 337 339
315 315 315 315 315 315 315 314 315 317 319 321 322 319 304 315 314 314 327 328 329 326 322 322 321 314 310 311 307 303 300 297 307 309 311 309 302 312 332 332 331 333 335 336 338
314 314 315 314 314 314 313 313 316 320 323 326 315 311 303 321 315 315 312 316 327 324 321 326 318 310 307 300 297 297 295 297 303 310 308 307 304 313 332 332 330 332 334 335 336
314 314 314 314 313 313 312 313 317 318 320 321 320 303 306 307 314 316 313 320 323 321 320 317 309 302 300 296 292 294 295 297 299 307 307 305 306 311 325 330 330 331 333 334 336
314 314 314 313 313 312 309 306 302 301 304 301 304 307 310 314 316 313 315 312 318 316 308 311 302 298 301 301 303 301 299 298 303 307 304 302 303 308 313 329 329 329 331 333 335
314 313 313 313 311 311 305 303 304 303 296 305 307 306 309 310 305 309 313 305 307 305 308 305 300 307 307 306 304 302 300 299 303 307 303 302 303 306 307 312 324 328 330 333 338
313 313 312 311 310 304 298 301 306 303 294 300 304 304 304 306 304 306 308 307 303 303 304 302 306 310 307 305 303 301 297 299 300 304 302 301 300 301 306 309 321 329 333 337 339
313 313 312 310 301 300 301 306 307 304 289 296 299 304 304 304 302 311 311 308 303 301 303 301 307 305 304 303 304 297 305 303 303 299 293 300 291 298 302 305 316 326 333 336 339
313 312 311 310 298 300 303 304 307 300 283 302 303 308 304 302 305 306 312 305 302 302 300 300 303 302 302 304 306 302 306 304 303 296 292 296 292 296 299 302 305 323 331 337 340
312 311 311 304 300 303 306 304 298 290 284 299 304 302 302 304 303 307 306 306 307 303 302 302 307 306 305 308 308 308 302 299 296 292 288 292 293 296 298 301 305 314 329 337 340
311 309 307 306 299 300 302 298 288 284 298 295 297 300 300 299 303 303 301 299 296 293 293 299 300 305 308 303 306 303 293 289 288 287 288 293 293 297 302 306 308 312 328 337 341
309 308 305 306 302 303 300 292 283 293 295 301 300 299 296 300 301 303 298 296 298 296 294 294 293 300 306 302 301 300 295 289 285 285 290 296 292 299 307 310 313 317 330 339 341
307 298 299 305 307 302 295 285 287 294 299 297 297 294 295 300 300 299 299 298 300 300 293 293 293 304 305 306 304 300 297 298 291 288 288 292 296 305 311 315 320 326 336 338 341
299 296 299 308 307 300 291 289 291 299 299 298 292 295 293 296 296 295 297 303 304 306 305 301 294 300 305 306 307 302 303 294 290 286 285 291 293 297 306 313 323 325 335 339 342
296 296 304 307 306 297 288 288 296 301 302 297 295 294 295 295 295 294 295 302 304 304 305 299 296 298 303 301 300 300 299 298 295 292 288 286 291 304 309 310 318 325 332 338 341
293 291 304 306 295 292 291 296 301 301 303 301 298 296 295 296 295 295 296 300 306 304 302 304 297 292 298 306 307 303 300 299 296 291 290 291 292 314 317 322 321 326 332 336 341
290 293 303 302 289 288 292 297 302 301 301 300 297 301 298 295 291 296 299 304 306 305 300 302 297 291 297 299 304 300 302 300 296 294 296 292 293 317 321 322 324 327 330 333 335
290 289 296 297 295 294 295 297 300 307 303 304 302 303 299 295 296 294 297 303 305 306 323 307 295 295 291 297 301 300 303 304 299 293 293 293 296 311 317 315 319 323 326 331 332
292 293 292 288 291 292 292 297 298 300 304 302 300 301 298 294 296 296 299 303 306 309 306 301 296 297 301 305 305 303 303 308 302 302 295 296 303 308 314 312 314 319 324 327 324
292 292 294 291 292 291 293 296 299 303 301 299 299 303 300 294 298 298 301 299 297 302 300 304 296 299 299 306 312 311 314 313 310 309 310 308 305 315 316 317 317 318 320 323 326
298 297 294 292 289 289 290 294 298 300 304 305 303 301 301 303 307 307 306 303 303 299 300 302 297 295 294 302 303 303 310 310 311 312 309 306 310 318 320 322 323 326 326 332 335

GFSSW_sfc_thetae_081.txt.gz
Theta_e
318 318 318 319 319 320 320 320 321 321 321 322 322 322 322 323 323 320 309 317 324 354 350 340 335 330 331 331 338 330 317 311 314 313 308 317 319 326 331 332 335 336 334 336 342
318 317 318 318 319 320 320 320 320 320 321 321 321 321 322 323 318 313 327 346 350 354 335 329 324 329 325 327 327 321 312 312 316 313 309 319 321 324 326 329 333 333 337 338 341
317 318 318 317 318 319 319 319 320 320 320 320 321 321 322 322 306 306 351 356 352 349 325 321 318 316 318 319 318 312 308 313 312 311 311 310 321 328 325 325 330 329 333 336 339
316 317 317 318 318 319 319 319 319 319 319 319 320 321 322 318 297 320 354 354 354 335 323 316 313 310 313 314 319 311 315 312 310 310 309 309 321 326 326 322 336 336 339 339 337
315 315 316 317 317 318 318 318 318 318 318 319 320 321 314 300 304 323 354 349 332 327 318 315 311 313 312 315 316 311 311 310 309 309 311 312 321 326 326 335 337 337 340 339 338
316 316 316 317 317 317 317 317 317 317 318 319 320 321 311 300 310 340 334 329 326 322 318 318 313 319 316 316 310 312 310 307 308 310 310 309 310 320 327 337 335 335 335 338 339
316 316 316 316 317 316 316 316 317 317 318 319 320 319 309 301 310 336 331 323 327 321 316 320 316 315 315 311 313 307 303 305 307 307 306 309 306 307 328 336 334 334 334 336 337
316 316 316 316 316 316 316 315 316 318 320 323 321 317 298 309 312 314 327 325 327 325 321 321 319 314 311 311 304 300 298 296 304 306 307 307 299 309 331 333 332 333 335 335 337
315 315 315 315 315 315 314 314 318 320 323 323 313 304 298 316 312 314 314 316 321 323 321 326 316 309 308 299 296 295 293 294 300 306 305 304 301 308 330 331 330 331 333 335 335
315 315 314 314 314 313 313 315 317 318 321 322 318 301 304 304 310 312 311 311 312 317 319 316 308 303 298 295 292 292 293 293 297 303 303 302 302 306 327 329 329 330 331 333 334
315 314 314 313 313 313 309 303 300 298 300 296 300 303 305 310 313 308 310 309 314 314 307 311 303 299 302 299 300 298 296 296 300 304 301 301 301 303 327 328 327 329 330 331 333
315 314 314 313 311 312 302 298 301 300 293 302 303 303 307 309 303 307 310 304 308 304 308 304 301 308 309 304 301 299 297 296 300 304 300 300 300 303 321 327 328 329 329 331 332
314 314 313 311 310 304 298 299 302 296 292 298 300 300 302 303 301 303 306 304 301 299 303 303 305 311 307 304 300 297 295 298 297 302 300 299 298 299 305 316 328 330 331 332 333
314 313 312 310 304 300 301 301 302 300 288 294 299 302 303 302 300 308 308 305 301 299 300 300 305 306 304 302 301 294 303 302 300 296 293 298 289 296 299 300 311 326 329 331 334
314 313 311 310 298 299 306 303 304 298 282 300 301 306 304 300 304 305 309 303 299 300 298 297 300 299 300 302 303 299 303 301 301 296 290 294 289 294 296 299 302 320 327 331 336
313 312 311 304 298 301 304 301 296 289 283 296 301 300 299 300 302 305 303 304 304 299 298 298 303 301 302 304 304 305 301 297 293 289 286 291 291 292 294 299 302 318 327 332 336
312 310 308 306 299 300 301 296 288 284 296 294 295 297 295 296 299 302 301 295 294 290 290 296 298 302 304 300 302 300 292 290 286 286 287 292 290 294 298 303 304 306 324 332 337
309 308 305 306 302 302 297 292 282 292 292 298 297 296 294 297 298 300 298 295 296 294 291 290 291 298 303 300 296 296 293 287 283 285 290 293 289 296 304 306 308 312 317 332 336
307 297 297 299 304 299 294 285 287 291 297 295 295 291 292 296 296 296 295 296 299 298 291 288 291 301 302 303 301 296 293 297 292 286 286 290 294 301 304 308 322 321 320 329 336
297 295 298 304 305 297 290 288 289 295 297 296 290 292 289 294 292 293 294 299 299 303 299 296 292 297 303 302 303 299 302 293 292 285 282 288 291 293 299 306 320 325 319 330 336
294 294 301 304 301 295 286 287 293 299 300 295 294 292 293 292 292 292 295 299 301 301 302 297 293 296 300 297 297 297 295 296 295 291 286 284 289 298 304 311 311 324 331 334 338
291 292 302 302 294 289 290 294 300 299 302 299 297 295 293 294 292 292 294 298 303 303 299 298 292 290 296 302 304 300 297 296 293 291 287 288 290 308 316 321 320 326 335 337 340
288 289 299 300 289 287 291 296 298 301 301 299 299 301 298 293 290 294 298 303 305 303 301 301 292 289 293 299 302 298 298 300 295 292 291 288 293 314 320 319 325 327 332 336 339
290 290 293 294 291 290 289 292 296 304 303 302 300 300 297 295 295 293 298 305 308 307 322 306 292 293 290 296 301 299 302 299 297 290 291 292 293 309 312 313 314 319 329 332 332
291 291 290 287 290 288 288 293 295 295 303 301 298 299 296 292 296 296 300 302 307 310 303 300 294 293 299 302 308 303 306 302 301 299 295 301 304 313 313 313 314 318 323 323 325
292 290 292 290 289 288 289 289 293 295 297 299 297 300 298 294 298 297 298 297 299 304 300 297 294 296 296 303 308 309 311 311 310 309 310 311 310 319 320 322 321 320 326 327 322
295 293 293 292 287 287 287 291 294 294 298 302 302 300 299 301 305 305 305 303 303 297 296 295 295 292 290 300 302 299 308 309 309 310 311 306 311 318 316 319 321 322 326 330 327

GFSSW_sfc_thetae_084.txt.gz
Theta_e
318 318 318 319 320 320 320 320 321 321 321 321 321 321 322 322 322 318 307 315 321 351 351 343 331 329 335 333 338 332 316 311 312 312 308 309 317 325 332 331 334 335 333 336 340
317 317 318 319 319 320 320 320 320 320 320 320 321 321 322 322 316 310 325 346 351 351 331 325 322 325 321 324 330 321 312 313 316 314 307 309 320 323 327 328 332 332 338 341 341
317 317 318 318 319 320 320 320 320 320 320 320 321 321 322 321 303 303 351 351 351 351 329 328 321 326 317 320 320 317 309 312 313 312 310 306 316 325 325 323 329 329 333 337 339
317 318 318 318 319 320 320 320 320 319 319 320 320 321 322 316 295 313 355 354 353 342 321 314 310 305 309 312 317 308 313 314 310 311 307 307 316 323 327 327 333 335 336 337 337
318 318 318 318 319 319 319 319 319 319 319 319 320 320 311 297 302 322 352 352 340 326 316 312 308 309 308 312 315 311 313 310 309 308 307 309 315 322 325 329 336 336 335 335 337
317 317 317 317 318 318 318 318 318 318 318 318 319 320 306 295 308 327 330 325 323 320 317 314 310 312 309 314 312 312 310 307 306 307 309 307 308 321 322 334 335 335 334 335 336
317 317 317 317 317 317 318 317 317 318 319 320 320 317 306 300 308 332 325 317 322 319 314 318 315 312 313 310 311 308 300 303 305 306 305 306 303 310 317 333 332 334 335 336 337
317 317 317 316 316 317 316 316 317 319 322 324 321 314 296 306 310 312 314 316 323 322 317 318 318 311 311 310 303 299 297 295 303 304 305 304 298 307 330 330 329 332 334 336 337
317 317 316 316 316 315 314 315 318 320 324 323 311 300 297 314 308 310 314 310 313 320 320 326 315 308 306 299 296 294 293 293 298 304 303 302 299 305 323 330 328 330 331 333 335
317 316 316 315 315 314 313 315 317 318 321 322 317 300 304 303 307 310 309 310 308 311 315 315 308 302 297 296 293 292 291 293 294 301 301 299 299 303 308 328 329 330 331 332 333
317 316 315 314 314 313 309 300 298 297 299 295 297 300 303 307 310 306 308 306 306 311 304 309 301 297 302 300 300 298 295 295 297 302 299 298 299 303 307 325 327 329 330 331 333
317 316 315 314 312 312 301 298 297 296 292 300 300 301 304 305 301 304 308 301 305 300 305 301 298 305 308 303 300 298 296 294 298 302 298 299 299 303 308 324 327 328 329 330 330
316 315 314 312 311 304 298 298 300 297 290 297 299 299 301 301 299 301 304 302 300 299 302 298 301 309 307 303 300 297 294 296 296 299 299 298 295 298 302 316 326 328 330 331 331
316 315 313 310 305 299 301 299 301 298 288 294 298 301 303 300 299 306 306 304 299 296 298 298 306 305 303 302 302 295 301 301 298 294 290 297 288 295 298 302 315 325 327 329 331
315 314 312 310 299 299 304 300 300 295 282 298 300 306 303 297 302 305 307 301 298 298 297 295 298 298 299 301 302 299 303 300 299 293 289 293 288 293 296 297 300 307 326 329 331
314 313 311 303 298 301 302 299 295 288 282 294 299 297 296 298 300 303 303 302 302 297 296 297 301 300 300 302 302 303 298 295 290 288 286 291 290 290 294 298 300 306 314 326 331
312 310 308 305 299 301 300 295 287 283 294 293 293 295 292 294 297 299 298 296 291 287 287 293 296 298 302 297 299 297 291 285 285 285 286 290 289 291 298 301 302 303 316 324 330
310 308 305 305 301 301 295 292 282 290 290 296 295 294 291 295 295 296 296 294 296 292 288 287 288 296 300 298 295 294 292 287 282 283 287 292 288 295 302 303 304 306 308 322 328
307 296 296 299 302 298 293 286 286 289 295 294 293 290 290 294 294 294 293 294 296 296 290 287 290 299 300 300 300 294 291 295 290 285 286 289 293 299 302 303 308 318 325 315 323
294 293 297 303 302 295 289 287 287 293 295 294 289 291 288 292 291 290 292 296 297 300 297 294 291 296 302 300 301 297 299 292 291 287 284 288 289 293 299 300 310 315 319 317 328
293 295 300 301 300 295 286 285 291 298 298 294 292 291 292 291 290 289 291 298 299 301 299 296 293 295 298 296 295 297 293 295 295 292 286 286 289 297 302 314 317 321 323 330 332
290 292 300 300 294 287 289 292 298 298 300 298 296 294 292 292 290 290 291 295 303 305 297 297 291 290 296 302 302 300 297 295 291 289 291 289 291 315 315 316 316 321 330 336 337
288 288 298 299 289 287 290 294 296 298 299 299 297 300 298 293 291 294 297 304 306 305 297 299 290 288 292 298 302 299 301 297 295 292 291 288 292 315 315 313 317 321 326 330 333
290 290 292 292 289 288 287 290 294 301 300 301 298 299 296 294 294 293 299 304 308 306 319 305 294 294 289 294 299 299 301 303 292 288 289 292 295 310 311 312 316 323 326 329 330
290 290 289 287 289 287 287 290 292 292 297 300 297 297 295 291 295 294 299 301 305 311 304 298 291 294 297 299 302 303 307 309 299 294 293 296 302 311 313 316 320 326 323 324 327
291 290 290 288 288 286 288 287 291 293 292 297 295 299 297 294 297 295 297 296 298 301 298 296 294 295 296 301 302 304 304 304 309 309 310 310 308 318 320 322 324 326 324 322 322
292 292 292 291 287 287 286 289 292 292 295 298 299 297 296 299 302 302 302 302 302 296 295 293 292 290 289 297 300 299 305 306 309 309 308 303 311 318 317 317 321 321 323 324 326

GFSSW_sfc_thetae_087.txt.gz
Theta_e
319 319 319 321 321 322 322 322 322 322 322 322 322 322 322 322 322 320 312 319 322 352 357 343 340 341 343 337 342 341 324 317 316 314 314 318 315 329 334 333 335 336 337 340 347
319 319 319 320 321 322 321 321 322 322 322 321 322 322 322 322 318 313 328 344 349 354 341 332 328 334 332 330 334 330 323 318 322 320 315 316 315 327 331 332 334 335 341 344 345
319 320 320 320 321 321 321 321 321 321 321 321 321 322 322 322 310 309 351 349 350 344 334 329 327 327 322 327 330 329 319 324 321 322 317 314 314 328 329 328 333 334 339 341 343
319 319 319 320 320 321 321 321 321 321 320 320 321 321 322 320 304 319 355 354 350 340 330 322 325 317 312 314 323 318 323 323 321 316 313 313 318 324 329 328 336 340 342 341 341
319 319 319 319 320 320 320 320 320 319 319 319 320 320 316 305 307 338 355 353 346 336 323 318 314 313 310 315 319 318 320 321 322 314 313 315 314 320 327 333 338 341 342 341 341
319 319 319 319 319 319 319 319 318 318 319 320 320 320 313 304 312 335 338 336 331 327 321 319 316 316 313 313 315 319 317 317 314 313 313 313 315 318 325 335 338 339 340 341 341
319 318 318 318 319 318 318 318 317 318 320 322 321 317 309 309 322 323 329 324 327 324 318 322 320 317 319 315 318 315 311 314 314 315 313 314 309 315 321 334 336 337 339 340 342
319 318 318 318 318 318 317 316 317 319 323 324 322 318 307 312 313 314 316 317 322 322 318 322 323 318 315 317 311 308 306 306 311 310 312 310 306 315 319 328 331 336 337 338 341
319 318 318 317 317 316 315 315 317 320 323 323 317 308 305 317 312 316 321 312 315 324 326 325 322 316 315 309 308 306 304 304 306 310 309 309 306 313 318 316 324 335 338 338 340
318 318 317 316 316 315 314 315 316 320 321 323 318 307 310 307 310 313 316 315 312 313 319 317 317 312 310 309 300 304 302 302 303 309 310 308 307 312 314 314 322 332 337 338 339
318 317 317 316 315 313 312 307 305 305 305 303 303 303 306 310 311 310 313 311 310 312 305 313 306 304 309 311 310 307 305 304 306 309 306 307 307 311 314 314 324 332 335 337 339
318 317 316 315 313 312 308 303 301 302 299 303 303 303 306 307 304 309 311 306 308 304 310 307 304 310 313 312 309 308 306 305 308 307 308 309 307 311 312 315 324 329 334 336 338
317 317 315 313 312 309 304 303 307 304 299 302 304 303 306 306 304 306 309 307 305 304 305 302 305 310 310 309 307 308 307 307 306 309 307 305 305 309 313 313 320 330 335 337 338
317 316 314 311 309 306 307 306 307 304 298 299 304 306 308 307 304 310 310 308 304 303 304 304 308 306 307 306 309 304 310 309 306 305 301 305 297 307 310 310 313 320 331 335 338
316 315 313 311 307 306 307 307 306 302 290 301 304 311 308 305 306 308 311 307 303 303 303 302 303 305 304 305 308 304 308 306 305 304 301 302 299 305 309 308 311 314 319 332 336
315 313 311 306 306 308 307 307 302 296 288 298 303 302 302 304 304 307 307 308 306 302 303 302 305 305 306 308 308 308 305 303 301 301 295 301 300 302 306 309 312 314 315 321 333
313 310 308 308 306 308 307 304 296 291 299 296 298 301 299 300 302 303 302 304 300 297 298 301 302 305 305 303 305 305 302 295 294 294 294 301 298 303 310 312 312 313 315 318 323
310 308 307 308 309 307 304 302 291 294 295 300 300 300 297 300 301 301 301 300 303 303 299 296 296 301 305 303 303 303 302 296 290 292 296 300 297 303 311 312 314 317 323 328 330
307 304 305 308 307 306 304 296 294 295 298 298 300 297 298 299 299 299 300 299 302 305 299 298 298 307 303 306 306 301 299 305 298 297 294 298 302 308 313 313 321 327 331 334 334
302 302 306 307 309 303 300 293 295 298 299 299 295 297 295 299 297 298 298 302 302 306 308 302 298 306 307 306 305 305 306 298 299 292 290 296 299 300 309 313 323 325 330 339 341
302 304 308 306 307 305 296 296 297 302 301 299 298 297 298 297 298 297 297 303 306 307 309 305 301 303 306 304 303 302 301 301 301 300 294 293 297 310 312 321 322 327 334 341 341
300 301 307 307 303 297 298 298 298 302 305 303 302 300 299 299 300 297 297 304 309 309 304 306 302 299 301 307 308 306 304 304 298 297 300 299 299 319 320 322 326 329 331 337 343
298 298 307 306 298 298 298 298 300 302 303 304 303 304 304 301 299 301 302 308 309 308 306 308 301 296 298 304 307 305 307 311 307 303 300 296 299 319 321 325 327 330 332 334 337
300 299 303 301 298 297 296 296 298 303 302 304 304 305 304 302 303 302 302 306 309 308 318 310 303 301 295 299 303 301 304 311 308 300 300 300 303 313 318 321 324 327 330 333 332
300 297 296 297 297 296 295 295 296 297 301 304 304 303 301 300 301 301 304 305 307 311 310 307 302 301 303 304 304 303 305 308 306 309 303 304 304 314 316 321 323 325 327 328 329
300 299 298 298 295 295 294 296 295 297 297 301 301 302 303 301 303 301 304 305 303 307 306 308 302 304 301 303 303 302 306 306 307 308 309 312 309 318 319 323 323 326 327 326 327
300 300 300 296 295 296 296 295 295 296 299 300 301 299 301 304 305 305 306 307 307 305 304 303 302 301 297 302 301 299 307 309 305 308 310 306 314 319 319 320 320 321 324 324 325

GFSSW_sfc_thetae_090.txt.gz
Theta_e
321 321 322 322 323 323 323 323 323 324 324 324 323 323 323 323 322 325 318 323 327 346 358 346 342 343 347 339 341 343 325 318 317 317 319 323 320 327 336 331 336 338 339 342 350
321 321 321 322 323 322 322 323 323 323 323 323 323 323 323 323 321 317 335 344 347 352 341 336 332 338 335 331 333 332 322 320 324 324 322 322 322 322 330 332 335 336 344 347 350
321 322 322 322 322 322 322 322 322 322 322 322 322 322 323 324 317 318 347 349 349 356 339 332 331 333 324 324 324 325 321 323 324 325 325 322 322 324 325 326 335 337 342 345 346
321 321 321 321 322 322 322 322 321 321 321 321 321 321 323 324 307 328 352 352 355 339 332 328 327 323 317 314 319 317 320 320 323 325 322 319 323 321 323 325 335 339 346 345 344
321 321 321 321 321 321 321 321 320 320 320 321 321 321 323 314 314 335 353 352 344 333 328 324 321 320 313 315 316 315 317 319 322 323 322 320 319 320 322 326 337 341 346 344 344
321 320 320 320 320 320 320 320 319 319 320 321 323 320 319 309 318 331 339 338 334 331 323 323 319 320 316 315 314 316 317 318 320 320 320 317 317 320 322 329 336 341 343 344 344
321 320 320 320 320 320 319 319 318 318 321 324 322 322 314 312 325 332 333 327 326 324 319 322 324 321 319 315 320 319 314 316 317 317 316 318 313 314 321 326 328 337 341 344 345
320 320 320 319 319 319 318 317 317 319 323 324 322 321 311 318 319 317 319 318 320 322 321 321 322 322 319 320 317 313 314 309 315 315 315 314 308 315 321 322 322 331 336 342 345
320 319 319 318 318 317 315 315 318 320 323 323 324 316 310 318 315 319 321 316 317 322 325 324 322 318 317 311 308 311 307 309 311 315 313 312 310 315 319 319 319 321 337 340 345
319 319 318 318 317 315 314 316 320 319 323 324 322 313 315 311 315 316 319 318 314 317 319 320 318 314 313 310 303 306 307 310 308 313 314 312 311 314 317 318 319 321 333 339 342
319 318 318 317 315 314 315 315 314 312 313 308 309 308 311 315 316 314 316 315 315 313 309 315 310 307 309 312 312 310 308 308 311 315 312 312 311 314 317 318 318 323 332 338 341
318 317 317 316 314 313 315 309 307 309 306 310 309 309 312 313 309 313 316 310 310 306 311 310 307 311 311 311 311 310 308 308 312 314 311 312 312 314 316 317 319 321 328 336 340
317 317 316 314 312 316 311 310 314 312 306 308 310 310 311 312 309 311 314 312 309 308 308 306 308 310 309 309 307 308 307 308 308 312 315 312 310 312 315 318 319 321 327 335 339
316 316 315 310 313 316 313 313 316 313 305 304 308 310 313 313 308 314 315 312 310 307 308 308 311 308 307 306 308 304 310 310 310 308 304 312 302 310 312 315 317 319 323 332 339
316 316 314 311 314 314 314 316 315 310 297 305 307 315 314 309 310 311 316 312 307 307 307 306 306 306 305 306 309 306 310 309 309 307 306 307 304 308 313 312 315 317 319 323 334
315 314 312 314 315 316 316 315 311 302 295 301 306 306 306 308 308 311 311 314 311 307 308 307 311 309 308 310 310 311 308 308 308 305 299 305 304 305 309 312 315 318 319 321 323
313 310 310 315 313 315 315 311 302 298 303 300 302 305 304 304 305 307 307 307 305 303 304 308 308 310 310 306 309 308 305 298 297 297 296 306 304 307 313 314 315 316 320 327 329
310 308 310 314 316 315 314 306 297 298 300 305 304 304 301 304 304 305 305 304 308 308 304 302 300 307 311 308 305 306 305 299 293 295 298 307 301 306 314 316 321 326 330 332 338
307 318 316 317 317 315 309 301 301 300 303 303 304 301 302 304 303 303 303 303 306 310 303 302 302 310 311 312 309 305 302 308 302 303 299 302 306 311 313 314 317 323 327 330 337
312 314 317 315 318 313 305 298 302 305 305 305 300 302 299 302 302 302 302 306 305 310 312 306 301 308 310 312 312 307 310 301 301 294 292 298 301 303 310 312 316 321 328 336 343
312 310 314 315 315 311 302 303 304 308 308 304 302 301 302 302 303 302 301 305 309 309 311 310 306 305 309 307 306 307 305 306 303 300 294 293 298 312 313 317 322 326 335 339 344
310 307 315 316 308 309 306 304 300 307 310 308 307 305 303 303 303 302 302 305 311 311 305 310 306 301 303 309 311 311 306 307 302 299 303 301 300 319 321 324 328 331 336 337 343
308 309 318 315 303 305 305 303 305 306 307 307 306 307 308 305 301 304 305 309 310 309 307 310 305 299 301 306 308 307 307 309 309 308 305 299 301 323 324 327 332 332 335 335 336
308 304 310 313 310 305 303 302 302 307 306 309 308 309 307 305 308 304 305 308 310 310 317 313 306 303 298 302 306 304 305 308 308 300 300 304 306 316 321 325 327 330 332 330 332
311 306 304 305 305 305 304 302 300 301 306 309 307 307 305 303 304 304 307 308 310 314 311 311 304 305 305 306 306 305 304 305 307 308 304 304 310 318 322 324 325 330 333 333 334
307 306 308 308 304 303 298 302 300 302 303 304 305 306 306 305 306 304 306 307 305 309 309 312 304 306 303 305 305 303 305 306 309 310 309 310 309 323 324 326 325 325 327 327 329
312 311 307 301 303 302 303 302 301 302 304 305 305 305 304 307 310 309 310 310 309 309 309 309 306 304 299 304 304 300 304 309 311 313 313 308 316 322 322 322 325 326 326 328 327

GFSSW_sfc_thetae_093.txt.gz
Theta_e
323 323 324 324 324 324 324 324 324 324 324 324 324 324 324 324 322 328 324 330 331 350 355 344 346 344 343 339 341 338 326 320 319 318 320 325 322 326 334 331 336 338 339 345 349
323 323 323 324 324 324 323 323 323 323 323 323 323 323 323 324 323 321 335 350 350 354 343 337 335 336 331 332 333 330 324 322 326 325 323 325 323 323 325 329 334 336 344 347 348
323 323 323 323 323 323 323 323 323 323 322 322 323 323 323 324 320 322 346 348 352 356 339 336 332 330 325 328 325 325 320 326 326 327 327 325 323 326 324 322 329 335 342 346 346
323 323 323 323 323 323 323 322 322 322 321 322 322 323 323 324 310 334 348 350 350 346 337 330 326 324 322 317 321 316 319 320 322 323 323 324 326 322 324 325 328 333 346 347 346
323 322 322 322 322 322 322 322 321 320 321 321 321 323 323 318 318 338 352 350 338 345 328 327 324 323 318 318 317 315 317 318 320 320 321 325 322 321 322 327 329 333 346 346 346
322 322 321 321 321 321 321 320 319 319 320 321 323 322 319 311 322 331 337 336 334 334 328 327 324 324 319 318 317 318 317 317 318 318 319 318 319 321 323 327 328 334 342 344 345
321 321 321 321 321 321 320 319 319 319 320 323 325 323 319 315 325 329 334 332 333 331 324 325 325 321 321 317 321 319 316 317 318 319 317 319 314 316 323 325 324 333 339 342 345
320 320 320 320 320 319 319 317 318 319 322 326 325 324 316 322 323 320 324 326 326 323 322 324 322 320 319 321 318 315 315 310 316 318 317 316 309 316 321 321 323 326 334 339 343
319 320 319 319 319 318 316 316 318 322 325 324 326 324 314 317 318 322 323 318 320 322 324 324 321 315 316 313 311 312 306 309 312 319 316 315 311 317 320 319 320 322 324 334 341
319 318 318 318 318 316 315 316 323 319 324 326 324 317 318 313 318 320 322 321 317 318 319 319 318 313 313 310 303 307 308 310 310 316 317 314 313 317 319 318 318 319 322 327 337
319 318 317 317 316 315 316 322 316 316 318 312 313 313 314 318 320 318 319 318 317 315 310 315 311 308 311 313 313 312 310 309 312 315 315 313 314 316 318 318 318 320 321 324 336
319 317 317 317 315 314 316 314 312 313 310 314 313 314 316 317 313 316 319 313 312 308 312 310 307 313 314 313 310 309 308 309 312 314 313 312 313 316 318 319 319 320 321 325 334
318 317 316 315 313 318 316 314 319 318 310 312 314 313 314 316 312 313 317 315 312 310 311 308 310 313 311 309 308 309 308 308 308 312 314 313 311 314 317 320 319 321 322 326 334
317 316 315 312 313 321 317 319 320 317 308 308 311 313 315 316 311 317 318 314 312 309 310 309 312 310 309 308 309 305 311 310 308 307 303 313 303 312 316 316 317 320 321 323 333
316 316 313 310 318 319 320 322 319 316 300 308 310 318 315 311 312 314 318 315 309 309 310 308 308 308 307 308 310 307 311 309 309 307 307 308 305 309 315 313 315 318 321 323 331
315 314 312 318 321 320 321 320 316 305 299 305 309 309 309 312 311 313 314 318 315 311 313 310 315 312 310 310 310 311 309 309 309 307 300 306 304 305 310 314 316 319 320 324 326
314 312 311 318 317 320 319 316 306 301 307 305 306 308 307 307 308 309 309 310 307 305 307 309 310 313 312 308 311 309 306 299 298 299 298 307 304 306 313 315 317 318 323 329 330
312 310 315 318 321 320 318 310 301 305 304 308 307 308 305 307 307 307 307 307 311 309 306 304 302 310 313 310 308 308 306 300 294 296 298 306 301 306 314 317 320 323 326 327 330
310 322 319 322 323 321 312 304 306 305 306 305 307 305 305 306 305 306 306 306 308 310 305 303 303 311 312 313 312 308 304 308 302 303 298 301 306 313 315 315 317 319 323 327 334
314 318 319 321 323 318 308 303 306 308 308 308 304 305 302 305 305 305 304 308 306 311 313 308 302 310 311 313 313 311 312 302 302 295 293 298 302 303 311 312 315 316 320 333 338
316 313 319 321 320 313 305 307 306 310 310 307 305 304 305 304 305 305 304 307 310 310 312 309 307 307 310 308 307 308 307 305 307 305 297 296 300 312 313 314 316 321 330 337 340
315 309 321 321 309 313 307 307 299 308 312 309 309 307 306 306 306 305 304 307 312 311 306 310 307 302 304 311 313 311 306 305 303 298 301 301 302 315 317 319 325 329 336 340 343
312 312 321 318 305 309 310 306 307 307 309 309 308 309 310 307 304 307 307 311 312 310 308 310 304 298 301 307 310 308 307 306 310 308 304 299 300 315 314 313 332 333 335 337 338
312 308 314 314 313 308 307 306 305 309 308 309 310 311 309 308 311 307 307 310 312 312 318 313 306 304 299 303 307 303 305 309 308 303 303 303 304 308 307 310 328 332 336 337 340
315 312 311 306 310 309 308 306 304 304 309 310 308 309 308 306 307 306 309 310 312 317 312 311 305 307 307 307 306 306 305 305 305 305 300 305 304 311 309 310 324 330 333 331 331
311 310 316 309 310 307 302 305 304 305 305 305 307 308 309 306 307 305 309 309 307 310 309 312 305 307 304 306 306 304 306 306 306 306 308 308 307 320 325 327 327 328 329 328 329
319 316 310 306 308 306 306 306 305 306 307 308 307 307 306 307 312 313 312 311 310 308 309 311 308 306 301 306 305 301 305 307 307 312 310 307 316 322 322 323 323 323 325 325 328

GFSSW_sfc_thetae_096.txt.gz
Theta_e
324 324 324 324 325 325 324 324 324 324 325 324 324 324 324 325 323 325 324 332 332 347 345 329 335 343 342 337 338 338 324 318 318 316 321 325 321 326 329 330 332 336 340 343 346
324 324 324 324 324 324 324 323 323 323 323 323 323 324 324 325 320 317 336 355 348 349 331 329 332 336 331 329 329 326 321 320 323 324 322 324 324 323 323 324 332 337 344 345 345
323 323 324 324 324 324 323 323 323 323 323 323 323 324 324 324 318 319 344 352 349 346 329 333 334 330 325 325 323 324 317 321 321 322 323 321 322 326 321 320 329 335 340 343 344
323 323 323 323 323 323 323 323 323 322 322 322 322 323 325 323 310 326 349 351 352 335 335 332 328 322 319 318 321 315 318 318 318 318 317 317 321 322 324 322 326 341 343 344 342
321 322 322 322 322 322 323 322 321 321 321 321 322 323 323 316 315 335 353 347 333 336 336 329 323 321 317 319 319 315 316 317 318 318 318 319 318 320 322 325 327 339 344 343 343
320 321 321 321 321 321 321 321 320 320 320 321 323 323 317 309 325 338 336 329 327 333 332 326 323 324 320 318 316 318 317 316 318 318 318 316 315 317 320 325 325 335 342 344 343
320 320 320 320 320 320 320 320 319 320 320 322 325 323 318 317 324 328 331 331 328 329 325 327 326 321 320 316 319 318 314 316 317 317 317 319 314 314 320 322 322 325 336 343 345
320 320 319 319 319 319 319 318 319 320 322 324 327 323 317 324 324 322 326 328 330 331 327 325 324 319 316 318 316 312 312 307 314 316 318 317 309 316 319 318 319 322 330 338 343
320 319 319 318 318 318 317 316 319 323 324 327 323 321 317 322 317 321 322 317 320 323 323 321 319 315 315 309 306 310 305 308 310 316 316 316 312 318 320 318 318 319 324 330 339
319 319 318 318 317 316 315 318 328 322 322 325 325 318 320 315 319 320 322 321 318 317 316 316 317 312 311 308 300 304 306 308 308 314 315 313 313 317 319 319 318 319 322 323 325
318 318 318 317 316 315 315 321 317 316 319 315 314 315 316 319 321 319 320 318 317 315 308 314 310 308 310 312 312 310 308 307 310 314 312 311 312 315 318 318 318 319 321 322 324
318 317 317 316 315 314 317 315 314 315 308 317 315 315 318 318 313 317 320 313 312 307 311 309 305 311 313 313 311 310 307 306 310 312 312 311 311 314 316 317 318 319 321 321 322
317 317 316 315 313 317 319 315 321 319 309 315 315 315 315 316 313 314 317 316 312 310 310 308 310 314 311 310 307 308 306 306 306 310 312 310 308 312 316 318 320 321 323 322 324
315 316 315 313 314 321 319 321 321 319 306 309 310 314 315 316 312 318 319 314 311 308 310 309 312 310 309 307 309 304 310 308 307 305 300 310 300 312 313 315 318 318 319 320 323
315 315 314 312 317 319 320 322 320 317 299 310 312 319 315 311 313 314 319 315 309 309 310 307 309 308 307 308 310 306 310 308 307 305 304 304 302 308 314 313 316 318 320 321 325
315 314 313 319 321 322 321 320 318 304 299 306 311 310 310 312 312 314 314 317 316 311 313 312 316 313 312 312 311 311 308 307 307 305 299 303 302 304 308 312 315 318 320 324 329
314 313 312 317 317 321 321 317 305 301 310 307 307 310 309 308 309 309 309 309 308 304 306 309 311 314 313 309 312 311 307 299 297 297 297 306 303 307 312 314 316 319 323 327 328
312 311 317 320 322 322 318 310 301 308 307 310 309 309 306 309 309 308 307 306 311 308 305 303 301 310 313 310 307 308 306 299 293 293 296 306 300 305 315 316 318 322 323 326 327
310 321 321 323 324 321 313 304 306 307 309 307 307 305 307 308 307 307 308 307 309 310 304 302 302 310 312 313 311 307 303 309 302 302 298 300 305 311 315 315 317 316 321 326 331
315 318 319 323 322 318 309 302 308 310 309 309 304 307 304 306 305 306 306 309 307 311 312 307 300 308 310 313 312 309 312 303 304 296 293 299 302 304 312 314 318 314 321 320 322
317 315 321 324 320 312 304 308 309 311 311 308 307 306 307 306 307 306 306 309 311 310 311 308 306 305 308 306 305 307 307 308 306 302 297 295 300 313 311 314 313 313 315 319 318
316 310 322 323 308 312 309 310 302 309 312 310 310 308 306 307 306 306 306 308 312 311 306 310 305 300 302 309 312 311 308 306 300 299 302 301 299 316 314 314 313 313 317 316 324
312 314 323 319 304 308 313 309 310 307 309 309 309 311 311 308 305 308 309 313 312 310 308 309 303 297 300 306 310 307 308 309 308 306 301 295 297 314 316 314 313 314 315 317 333
313 309 316 316 314 309 307 307 307 311 309 309 309 311 309 307 310 307 308 312 313 311 320 314 306 303 298 302 306 304 305 307 306 300 300 301 303 310 312 312 312 314 317 322 332
316 312 314 307 309 310 311 308 305 305 310 310 308 308 307 305 307 307 309 310 313 317 312 309 302 305 305 306 306 305 304 305 303 304 302 303 306 309 313 315 315 319 325 326 330
313 311 313 310 311 309 306 306 305 306 307 306 305 307 309 307 308 304 308 309 308 310 308 309 303 306 304 307 307 304 306 306 306 306 305 307 309 315 319 322 320 325 326 326 328
321 320 313 308 308 307 308 308 307 309 309 309 307 306 305 308 310 311 311 311 309 306 306 307 306 305 300 306 305 301 308 309 309 308 310 306 314 317 317 321 324 325 327 326 326

GFSSW_sfc_thetae_099.txt.gz
Theta_e
323 324 324 324 324 325 324 324 325 324 325 324 324 324 324 324 323 323 321 329 327 349 343 327 323 327 334 334 333 332 317 315 317 317 317 322 321 325 331 329 333 339 337 338 342
321 322 323 322 324 324 324 324 324 324 323 323 323 323 323 324 318 312 328 349 350 349 323 320 321 326 326 327 324 316 311 315 322 324 321 324 324 320 320 328 335 337 340 340 341
320 320 323 322 323 323 323 323 323 323 323 323 323 323 323 323 315 315 354 352 349 345 321 322 325 329 322 321 318 315 310 317 315 316 323 313 312 316 316 316 334 333 336 338 339
320 320 322 322 322 322 323 323 323 322 322 322 322 322 324 321 305 323 348 352 350 332 323 321 323 319 315 312 318 311 315 314 312 312 312 310 312 312 315 318 331 339 339 339 338
321 321 321 321 321 322 322 322 322 321 321 321 321 323 321 312 310 336 349 347 335 329 325 329 326 318 312 313 315 312 313 314 315 314 314 315 312 312 313 319 325 341 340 338 338
321 321 321 321 321 321 321 321 321 320 321 321 322 323 314 304 325 333 329 327 325 328 328 329 324 320 315 314 311 313 312 313 314 314 315 314 313 311 313 317 328 340 338 338 339
320 320 320 320 320 320 320 320 320 320 320 321 323 323 314 312 323 332 330 325 323 322 322 325 323 316 315 310 315 312 307 310 312 312 311 314 309 310 314 315 316 338 338 339 339
320 320 319 319 319 319 319 318 319 320 322 324 327 320 309 323 320 320 320 322 326 323 322 324 316 310 309 311 309 305 303 298 308 311 313 310 303 312 314 311 312 320 339 339 339
319 319 319 318 318 318 317 316 319 322 324 327 317 313 313 322 314 315 314 313 314 320 321 322 313 306 308 302 298 300 296 299 304 312 311 309 304 313 314 314 311 312 328 338 338
318 318 318 318 317 316 315 316 324 323 320 323 321 311 318 315 315 316 316 317 314 312 312 311 306 303 303 298 292 296 297 301 302 309 310 307 306 310 314 312 312 312 313 327 337
316 316 316 317 316 315 311 314 310 310 311 311 310 315 315 316 318 315 317 314 312 309 302 307 299 299 304 306 306 305 303 302 305 309 305 304 305 309 311 310 311 312 313 312 316
316 316 316 316 315 314 313 309 308 309 302 311 312 313 315 314 311 315 316 308 308 302 306 302 298 305 309 308 306 304 302 301 305 308 305 303 304 308 309 310 311 313 313 314 314
316 316 316 315 314 316 316 312 316 312 301 309 314 311 310 311 310 312 313 311 307 305 305 301 305 311 308 305 304 300 298 299 300 304 304 302 300 303 309 311 313 314 314 315 315
315 316 315 313 313 315 315 316 315 313 297 307 307 310 311 310 307 317 316 312 307 303 305 303 309 308 306 304 303 294 305 304 302 299 292 301 293 298 304 307 309 312 315 315 316
315 315 314 313 311 314 314 315 314 310 294 308 307 315 308 306 309 312 317 310 305 305 304 302 305 305 305 305 307 301 306 303 302 297 293 297 292 298 302 303 308 311 315 315 315
314 314 314 314 312 317 321 315 311 298 295 305 309 307 305 307 309 312 311 312 312 307 307 306 312 309 307 310 309 309 304 303 302 295 287 295 294 296 299 304 311 315 319 329 331
313 313 312 315 310 317 318 311 298 295 311 303 303 305 304 304 306 308 308 303 300 296 298 304 307 309 311 305 308 305 297 290 289 289 288 297 294 298 311 313 313 314 316 319 327
312 312 315 317 317 318 313 304 296 306 304 308 306 305 302 304 305 307 303 301 306 303 298 297 296 305 309 304 301 301 296 290 285 287 292 298 292 303 314 316 317 317 318 321 321
311 317 318 319 320 318 307 298 301 305 306 305 305 303 303 305 305 304 303 302 304 305 296 295 297 308 308 309 306 301 296 300 293 294 292 295 300 311 311 311 314 315 316 318 321
310 314 317 321 320 312 303 299 304 308 308 306 300 304 301 303 302 302 302 304 305 308 305 300 294 303 308 308 307 301 307 296 296 288 286 294 297 298 305 307 311 311 314 317 321
313 312 317 319 315 307 298 302 307 311 310 305 302 302 303 303 303 301 302 307 308 306 305 300 298 298 303 299 298 300 299 299 297 295 288 288 294 307 306 308 309 310 315 317 319
313 307 318 318 305 306 302 308 307 308 309 308 308 306 304 304 302 303 303 306 309 307 301 303 296 293 297 304 307 303 302 300 292 291 292 292 293 312 311 310 311 313 316 319 320
308 311 321 316 299 302 307 308 310 307 306 306 305 309 308 304 300 305 307 311 311 307 302 304 295 290 294 300 305 302 303 301 300 298 293 291 294 310 311 313 313 315 319 316 320
309 307 313 314 311 306 305 306 305 311 308 309 306 306 304 303 305 303 305 311 311 309 320 310 298 295 290 295 301 299 302 303 298 294 294 296 299 305 309 314 313 315 322 319 325
313 310 311 304 306 306 306 306 304 302 308 308 305 306 303 299 302 302 306 307 310 317 308 302 294 297 299 302 303 303 302 303 300 301 295 299 301 305 310 314 317 321 323 318 317
307 310 311 307 308 306 304 305 305 305 305 304 303 305 304 300 301 300 303 302 302 306 302 301 295 298 298 304 305 302 305 307 307 306 305 308 306 316 316 321 321 322 323 318 321
318 317 312 306 306 305 304 306 306 307 308 308 306 303 302 304 305 304 303 303 303 300 299 298 297 296 294 303 302 297 305 306 308 308 309 303 308 313 310 313 317 316 318 321 325

GFSSW_sfc_thetae_102.txt.gz
Theta_e
321 321 321 321 322 324 324 324 324 324 324 324 323 324 323 324 323 321 312 321 326 348 341 325 325 320 322 328 334 331 313 311 316 316 317 322 320 325 330 332 332 335 334 336 340
322 320 320 322 323 323 323 323 323 323 324 323 323 323 323 324 319 312 326 346 346 350 318 319 316 320 318 325 325 318 308 312 320 322 319 323 322 323 319 328 335 334 337 339 343
322 322 322 322 322 323 323 323 323 323 323 322 322 322 323 323 312 312 348 349 351 341 320 318 318 321 319 321 319 313 309 315 315 321 325 322 320 315 310 325 332 329 333 336 340
322 322 322 321 322 322 323 323 322 322 322 322 322 322 324 320 297 321 348 351 351 329 320 318 317 312 312 311 316 307 313 314 311 311 310 313 309 310 311 311 337 335 336 336 335
321 321 321 321 321 321 322 322 321 321 321 321 321 322 319 308 307 327 347 346 330 324 320 320 323 320 312 312 312 308 310 311 311 311 312 313 311 311 313 317 338 337 337 335 335
321 321 320 321 321 321 321 320 320 320 320 321 321 322 311 301 316 335 327 326 324 322 324 324 324 322 313 311 307 310 308 307 309 310 311 309 310 309 314 317 335 335 334 335 335
320 319 319 320 320 320 320 320 319 319 320 321 322 322 314 309 319 329 324 319 320 321 320 323 322 310 307 306 310 306 302 305 307 307 307 309 306 307 314 315 327 334 335 336 336
317 317 317 317 319 319 319 318 318 319 321 322 324 320 304 320 317 326 324 324 323 319 320 322 320 308 304 308 305 302 298 294 304 307 308 307 300 310 313 309 329 334 335 336 337
317 317 317 317 318 318 317 317 319 322 324 326 315 311 309 326 312 312 317 315 312 320 318 323 314 304 306 300 296 296 293 295 300 308 306 306 301 309 311 310 311 332 334 335 336
317 317 317 317 317 316 316 317 321 321 321 323 321 308 314 315 312 313 312 312 310 309 310 309 304 299 298 297 291 294 294 296 298 306 305 303 301 306 309 309 310 315 334 335 335
317 317 317 317 316 316 312 309 303 303 306 308 308 312 314 315 315 312 314 312 310 306 299 303 297 294 298 300 304 301 298 298 303 306 301 302 301 304 307 306 308 309 321 334 335
316 316 316 316 315 314 309 304 304 306 300 308 309 309 313 313 308 311 314 306 305 300 302 299 295 302 304 305 304 303 299 298 301 304 300 299 300 303 305 306 307 308 310 319 335
316 315 315 315 314 311 308 306 310 305 296 304 309 308 308 309 307 309 310 308 304 300 300 296 301 308 306 303 301 297 295 296 297 300 299 298 296 299 305 306 308 310 311 312 312
315 315 314 313 308 309 311 311 309 307 295 303 304 308 308 307 304 314 312 309 305 300 302 299 305 305 303 303 301 293 303 302 300 296 291 297 289 296 299 301 310 316 320 323 324
314 314 314 313 305 306 315 314 311 305 291 308 304 312 305 305 306 309 314 307 303 303 301 300 303 303 303 303 305 299 304 301 300 295 290 295 290 293 304 305 310 314 319 322 323
314 314 313 310 305 309 313 310 306 297 293 303 305 302 301 303 306 309 309 309 308 304 303 303 308 305 304 307 306 307 301 299 297 292 288 292 291 294 303 306 310 314 319 320 322
313 312 312 313 302 309 308 305 296 292 305 300 299 300 299 301 303 305 303 300 297 293 293 301 304 306 307 301 304 302 295 289 286 287 287 293 292 299 309 312 313 312 318 319 322
311 311 312 313 310 310 306 300 292 303 300 303 302 301 298 300 302 303 301 298 303 299 295 293 294 302 306 302 298 298 295 288 283 284 290 295 290 301 311 314 314 315 315 320 320
311 308 309 313 315 309 302 293 295 299 304 302 301 298 299 303 301 302 299 299 302 300 294 292 295 304 306 306 302 298 293 296 291 291 289 292 297 307 309 309 311 312 315 317 319
305 306 308 316 313 305 297 294 297 304 304 303 296 299 296 299 299 298 299 302 303 304 300 296 291 299 306 305 303 298 300 294 292 285 285 290 294 297 302 305 308 310 312 315 319
307 303 310 311 308 299 292 294 302 308 306 301 299 297 299 299 298 298 298 304 305 303 303 298 294 296 300 296 296 297 294 296 293 291 286 285 290 304 304 306 306 309 314 315 317
304 299 313 310 300 295 294 301 306 305 305 302 303 302 300 301 298 299 300 303 307 304 300 299 293 289 295 302 305 299 298 295 290 290 290 288 290 308 309 308 309 313 320 316 319
299 301 312 308 293 292 298 304 305 304 303 301 301 303 302 298 296 301 303 308 309 304 299 299 292 287 291 294 300 297 299 296 294 292 290 288 292 308 312 312 312 314 319 315 322
301 298 304 304 300 298 297 299 301 308 304 304 302 302 299 297 298 298 301 308 309 307 321 306 292 291 287 292 296 295 299 302 297 288 291 292 295 304 309 312 315 317 318 318 318
302 301 301 296 299 299 297 299 300 300 303 301 299 301 298 292 296 297 300 303 306 314 303 298 291 292 295 298 299 299 300 303 298 298 295 299 300 305 309 311 316 320 321 316 316
298 302 303 300 300 299 298 296 301 303 300 302 298 301 298 293 294 293 295 294 297 300 295 296 291 292 292 299 300 299 306 306 306 305 306 305 304 310 311 311 314 317 316 317 321
307 306 303 300 298 296 296 300 302 303 303 303 301 298 298 299 300 298 297 297 298 295 294 293 291 289 287 295 297 295 302 305 307 307 307 300 305 312 309 311 311 312 315 318 322

GFSSW_sfc_thetae_105.txt.gz
Theta_e
322 322 322 322 322 323 323 323 323 323 323 323 323 323 323 323 323 320 308 316 324 349 347 332 325 319 318 322 333 329 314 309 313 315 315 320 319 324 325 327 332 335 334 336 344
322 322 321 322 322 323 323 323 323 322 322 322 322 322 322 323 318 311 325 344 347 351 317 317 314 318 315 320 325 319 308 310 317 320 318 321 322 323 320 325 329 332 337 342 344
322 322 322 322 322 322 322 323 323 322 322 322 322 322 322 322 306 305 351 347 350 344 317 317 315 320 315 319 319 314 310 314 314 315 319 319 319 321 311 321 330 329 332 339 340
322 321 321 322 322 322 322 322 322 322 321 321 322 322 322 318 295 317 352 351 352 325 315 314 311 309 308 310 314 307 311 311 311 308 308 312 314 308 308 313 325 334 335 338 338
319 319 318 319 319 321 321 321 321 320 320 321 321 322 317 304 305 325 350 349 327 319 315 315 318 316 313 312 311 307 307 307 309 307 307 310 307 308 310 318 336 335 336 336 337
317 317 318 318 319 319 320 320 320 320 320 320 321 321 308 297 311 330 323 319 318 321 320 319 323 323 313 307 304 307 306 305 305 307 307 307 306 306 311 319 333 333 332 335 338
319 318 318 319 320 320 320 319 319 319 320 321 321 320 311 303 317 328 317 314 319 319 319 323 322 313 307 302 307 304 301 302 305 304 304 306 303 304 311 311 322 331 332 333 336
319 318 318 318 319 319 319 318 318 320 320 321 323 318 301 315 316 322 319 320 321 317 317 318 318 310 302 305 304 300 296 293 302 304 305 303 298 307 309 308 316 330 332 333 333
318 318 317 317 318 318 317 317 322 322 324 324 313 309 307 324 313 314 321 318 317 317 317 322 313 305 303 298 295 296 291 294 299 306 304 304 300 307 308 306 324 329 331 332 333
317 317 316 317 317 316 316 317 324 321 322 323 320 306 312 312 313 311 313 318 308 307 307 308 302 299 296 295 290 293 292 294 296 302 304 302 299 303 305 305 308 327 330 332 332
317 316 316 316 316 315 312 306 302 301 304 302 307 310 311 315 314 310 312 310 307 304 298 301 296 294 296 298 299 299 296 296 301 305 300 298 298 301 304 307 315 314 326 331 333
316 315 315 315 315 314 308 304 302 304 299 305 306 307 310 310 306 308 311 305 304 298 300 297 294 300 302 301 299 298 296 297 300 303 299 297 298 301 304 310 316 319 321 320 326
315 315 315 314 313 310 308 305 307 305 295 302 306 305 306 308 305 306 309 305 302 299 298 295 300 305 303 301 298 295 294 294 296 298 298 296 296 296 307 312 314 317 322 323 324
315 314 314 312 306 306 309 311 310 304 295 302 303 308 306 306 303 311 311 307 302 299 299 297 302 304 302 301 299 291 300 300 299 295 291 295 287 293 303 307 311 313 319 322 325
315 314 313 312 303 303 310 308 308 304 290 306 303 309 303 302 304 307 311 305 301 301 300 299 301 301 300 301 302 298 302 300 300 294 290 293 289 294 304 302 308 311 317 320 324
313 313 313 309 304 308 309 306 304 296 291 301 303 301 299 300 304 307 306 307 306 302 301 300 306 303 301 305 304 304 300 296 293 290 287 291 290 290 300 303 308 311 316 319 323
312 311 311 312 303 307 306 304 295 292 302 299 297 299 296 298 301 303 302 298 296 294 292 299 301 303 305 300 302 299 292 287 287 287 286 291 290 295 305 311 311 311 313 319 321
310 311 311 312 308 309 304 300 290 300 298 301 300 299 297 299 300 302 299 295 301 297 293 292 292 300 304 300 296 295 292 287 283 284 288 293 288 298 309 313 312 314 314 320 319
310 307 307 310 313 306 300 292 293 298 301 301 299 296 297 300 299 300 297 298 300 298 292 291 293 303 305 303 300 295 290 293 290 288 286 290 295 302 307 308 310 311 314 314 318
305 304 306 312 311 302 295 293 295 302 303 300 294 297 294 297 297 297 297 301 301 302 299 295 290 297 304 302 301 296 299 293 290 284 283 289 291 293 300 303 306 309 313 313 316
304 303 309 308 304 298 291 292 299 306 305 299 297 296 297 297 296 295 297 302 303 302 300 296 293 294 298 295 294 295 294 294 291 289 285 283 289 299 302 306 305 308 315 314 315
299 298 308 307 298 291 292 297 303 304 303 300 301 300 297 298 296 297 298 301 306 303 297 297 291 288 293 299 302 297 295 293 288 288 288 287 288 306 309 310 309 310 316 316 317
296 298 309 306 294 292 297 301 303 303 302 299 299 302 300 296 293 299 301 306 306 303 297 298 290 286 290 294 297 295 296 294 292 289 288 286 290 306 310 312 315 315 317 317 320
299 297 302 301 297 296 295 297 299 306 302 301 299 300 297 295 297 296 299 305 308 307 315 305 290 290 287 291 294 294 296 297 294 287 288 290 293 300 307 308 313 317 318 316 316
300 299 300 295 298 297 296 297 298 298 303 301 299 297 295 290 292 293 296 298 302 310 301 296 291 292 293 295 296 296 297 299 299 296 294 296 298 302 307 308 310 317 316 316 318
295 300 301 299 297 297 296 295 298 300 298 299 295 298 296 292 293 291 293 293 294 297 294 293 290 291 290 296 296 296 298 303 304 304 303 303 302 309 310 310 311 312 313 314 318
303 302 301 299 296 295 295 298 300 300 301 301 299 296 296 297 299 299 298 296 296 294 292 292 290 287 285 292 295 291 298 302 303 305 304 299 303 308 309 310 310 310 312 314 317

GFSSW_sfc_thetae_108.txt.gz
Theta_e
323 323 322 322 323 323 323 323 323 323 323 322 322 322 323 323 322 318 307 315 321 344 346 335 326 321 318 319 330 329 314 307 310 314 314 317 315 321 324 325 333 335 334 337 344
321 321 321 321 322 323 323 323 322 322 322 321 322 322 322 322 316 310 325 341 347 351 326 319 313 315 311 317 324 319 309 310 315 317 316 317 316 316 319 320 326 331 339 342 344
320 319 320 320 320 320 321 322 322 322 321 321 322 322 322 321 305 302 349 343 349 344 317 315 315 318 313 318 319 315 311 314 314 314 312 311 311 314 313 311 325 326 334 339 341
319 319 319 319 320 320 320 321 321 320 320 320 320 322 322 316 296 314 352 350 348 328 313 310 309 307 306 308 314 307 312 311 309 307 305 305 309 306 310 310 327 332 337 339 338
320 320 320 320 320 320 321 321 320 319 319 319 319 321 315 300 303 330 353 350 329 317 311 311 310 311 311 311 309 305 306 306 307 306 305 307 306 306 308 310 313 330 338 337 338
320 320 319 319 320 320 320 320 320 319 319 319 320 321 306 295 308 332 327 317 316 313 314 318 320 321 311 305 302 305 304 303 304 305 305 303 305 304 309 324 330 332 334 336 337
319 319 318 319 319 319 320 320 319 319 320 320 321 320 307 301 316 327 318 312 316 318 317 320 323 312 306 302 304 303 300 302 303 302 302 303 302 303 308 308 309 329 333 336 337
319 318 318 318 318 319 318 318 319 321 320 321 322 315 299 310 315 321 316 315 317 315 315 316 317 310 303 303 302 299 295 293 300 302 304 302 297 305 306 304 310 327 330 334 336
319 318 317 317 317 317 317 317 324 323 324 324 313 307 305 322 314 313 316 313 317 315 315 321 311 303 302 297 293 295 291 292 298 303 304 302 298 304 311 310 310 322 329 330 333
318 317 316 316 316 316 315 317 324 321 322 323 320 304 310 309 312 308 314 315 309 305 305 305 300 299 295 294 289 291 291 294 295 300 302 299 298 300 314 318 318 319 324 329 330
318 317 316 315 315 315 312 304 302 300 302 300 304 308 310 312 312 307 309 310 305 303 296 299 295 293 296 296 296 296 295 294 298 302 299 297 296 303 308 314 317 320 321 321 323
318 317 315 314 314 314 307 303 302 303 297 303 304 306 308 308 304 306 310 303 301 297 298 296 293 299 300 299 297 295 293 294 298 300 298 297 296 305 307 311 314 318 320 322 324
317 316 314 314 313 308 306 306 308 302 295 301 304 303 303 306 304 305 307 303 300 297 296 294 298 303 301 299 297 293 292 293 295 297 297 295 295 300 308 310 312 315 319 321 323
316 315 313 311 305 304 305 307 307 303 294 300 302 305 303 303 301 309 309 306 301 297 297 296 301 302 300 299 297 294 299 298 297 294 291 294 288 294 302 304 308 310 315 319 321
316 314 312 312 303 302 306 305 305 303 289 304 301 307 301 301 302 305 308 304 299 299 298 297 299 299 298 299 301 297 300 298 298 292 290 292 288 293 302 302 306 309 312 318 321
315 312 312 308 303 307 307 305 303 296 289 299 301 300 298 299 302 304 304 306 304 300 298 298 303 301 300 303 302 303 298 296 292 289 286 290 290 290 298 303 307 310 313 318 320
312 310 310 311 303 306 305 303 295 291 301 297 296 298 295 297 299 301 300 297 295 293 291 298 299 302 303 298 300 298 290 286 286 285 286 290 289 293 304 309 311 310 312 316 320
310 310 310 311 309 309 303 299 291 297 296 299 298 296 297 299 299 300 296 295 300 295 292 291 291 299 304 298 294 293 290 286 282 283 288 292 288 297 307 311 311 312 314 316 317
309 306 306 308 312 305 299 291 292 296 300 299 297 295 296 299 298 298 296 296 298 297 292 290 292 301 303 301 298 295 290 291 288 286 286 289 294 300 307 309 309 309 314 315 315
303 302 304 308 308 300 294 291 294 300 301 298 293 295 293 296 296 296 295 299 299 300 297 294 290 295 302 301 301 297 298 291 289 283 283 288 289 292 299 302 307 307 309 316 316
301 301 307 307 302 297 291 291 297 303 302 298 295 295 295 296 295 294 295 300 303 300 300 295 293 293 297 294 293 295 292 292 290 288 284 283 288 297 302 306 306 307 310 314 317
297 297 307 305 298 289 292 295 301 301 302 298 299 298 295 297 295 295 296 299 304 301 296 294 290 288 292 298 300 296 294 291 287 287 288 286 287 304 309 311 313 313 316 319 319
295 295 307 304 294 292 296 299 301 302 301 299 297 299 298 294 291 297 299 305 306 301 296 296 290 286 290 293 296 294 296 293 290 288 287 286 289 302 309 310 313 316 318 319 318
297 295 301 300 295 294 293 295 298 304 301 301 297 298 296 293 295 294 296 302 304 306 312 303 289 290 287 291 293 292 295 295 292 287 289 289 294 298 302 308 309 310 317 317 317
297 296 297 295 297 296 294 295 296 297 301 300 296 296 294 290 291 291 294 296 299 306 298 296 291 290 292 294 295 294 295 296 293 294 293 297 293 300 304 307 309 313 316 315 315
294 298 299 297 296 295 294 294 296 298 296 297 293 297 294 291 293 291 292 290 292 294 293 292 289 290 290 295 294 293 296 297 297 301 299 301 301 308 310 311 311 311 312 312 314
300 299 299 297 295 293 294 297 299 299 300 300 299 295 294 296 298 296 296 295 294 293 290 290 289 286 285 290 292 288 294 298 302 304 303 298 303 309 308 308 309 310 311 312 313

GFSSW_sfc_thetae_111.txt.gz
Theta_e
321 321 321 321 321 321 321 321 321 321 321 321 320 321 322 321 321 320 311 319 321 346 348 337 327 326 335 334 336 336 323 315 314 313 314 318 315 320 324 324 333 337 337 342 349
321 321 321 321 321 322 322 321 321 321 321 320 320 321 322 321 317 313 328 337 345 349 330 321 319 322 324 323 331 330 322 315 320 318 314 315 315 316 318 317 324 334 341 346 347
322 322 321 321 321 322 322 322 321 321 320 319 320 321 322 322 312 308 348 342 347 342 328 320 321 320 320 326 328 326 319 321 317 317 316 313 314 316 316 313 316 320 338 344 345
322 321 321 321 320 321 321 322 321 320 319 319 319 319 322 320 306 314 352 348 349 329 321 318 320 318 317 317 323 317 319 319 315 314 312 311 314 312 313 315 318 319 341 344 343
321 321 321 321 320 320 320 320 320 319 319 319 318 320 320 308 307 337 350 347 337 322 316 314 314 316 316 318 316 313 313 312 313 312 311 312 311 310 312 316 319 323 338 342 344
321 321 320 320 319 320 320 320 320 319 318 318 319 321 313 304 315 336 331 325 323 319 316 319 318 324 319 314 310 311 311 310 311 311 311 309 310 311 313 315 316 331 336 341 343
320 320 320 319 319 319 319 319 319 320 320 320 321 321 311 307 323 329 323 319 322 322 318 322 330 321 315 312 310 309 307 309 309 310 310 310 309 307 322 317 318 330 337 341 343
320 320 319 319 318 318 318 318 322 322 320 322 323 321 308 315 326 322 320 321 321 322 322 323 325 318 313 311 309 306 306 304 309 310 310 310 304 311 324 324 323 328 334 338 342
319 319 319 318 317 317 317 318 324 324 323 324 320 316 313 324 319 320 321 319 323 322 322 322 318 312 311 307 305 306 301 302 305 309 309 309 304 314 323 327 326 327 332 335 339
319 318 318 317 316 316 316 318 324 324 324 325 322 312 317 313 317 314 322 319 314 313 312 312 312 312 308 307 299 300 301 303 302 307 308 307 310 316 320 324 327 329 330 332 334
318 318 317 316 315 315 315 313 311 310 310 306 309 312 314 315 316 313 319 319 312 311 306 307 306 304 305 305 304 303 301 301 305 307 305 307 310 313 317 320 321 324 328 330 332
318 317 316 315 314 314 314 312 310 310 305 308 307 308 311 313 309 311 316 310 308 305 305 306 304 306 305 304 302 302 302 303 306 305 306 304 309 311 314 316 318 320 323 327 331
317 317 315 313 313 313 313 312 313 309 304 307 308 308 310 311 309 310 313 310 307 304 304 303 305 307 306 305 303 303 303 303 302 305 305 304 304 309 313 315 318 319 321 324 327
316 316 313 311 314 311 313 313 312 310 305 306 309 310 310 310 308 313 314 312 307 304 304 304 306 306 306 305 304 303 305 304 303 303 300 303 298 303 311 312 315 318 319 321 324
316 315 312 312 313 311 310 313 312 310 296 307 308 314 309 308 308 309 313 311 306 305 306 303 305 304 304 305 306 303 306 305 304 303 301 301 300 304 310 310 313 316 319 321 324
315 314 312 312 311 314 314 313 312 304 295 303 307 306 306 307 307 309 310 312 310 306 306 305 309 308 306 307 306 307 305 303 303 302 297 301 300 302 308 310 314 317 319 322 323
314 311 312 314 313 315 314 313 303 299 306 302 303 305 304 305 306 306 306 306 304 301 301 305 305 307 308 305 306 306 303 297 296 296 295 300 299 303 310 314 315 316 318 323 323
311 310 313 315 317 316 312 309 298 301 301 305 303 304 303 304 305 304 303 304 306 304 303 300 298 305 308 305 303 302 301 297 290 293 295 302 298 305 313 316 317 318 320 324 325
309 314 315 315 317 312 310 300 301 301 304 303 303 302 302 304 304 305 304 303 305 306 302 300 299 306 307 307 306 302 302 302 298 297 296 300 303 309 313 315 317 317 318 321 326
309 309 313 314 315 310 306 297 302 305 306 304 300 302 300 302 303 304 303 305 304 306 307 304 300 304 305 307 308 306 306 299 302 292 290 297 298 300 307 309 315 318 319 322 327
309 309 315 313 311 309 302 301 302 307 306 304 302 301 302 302 303 302 302 306 307 306 308 305 303 302 305 303 302 303 302 301 301 299 293 291 296 309 309 314 317 320 323 325 327
307 303 314 313 308 300 303 302 301 306 307 304 305 304 303 302 302 303 303 305 309 308 304 304 304 300 301 304 305 304 303 302 297 295 299 297 296 310 313 318 319 321 322 324 327
305 305 315 312 303 304 304 304 305 305 306 305 303 304 304 303 301 303 304 307 309 308 306 306 302 297 299 302 304 302 303 303 301 300 296 294 297 309 313 316 319 319 320 322 324
305 303 311 309 305 304 303 302 302 307 305 306 304 304 304 302 304 303 303 305 306 309 312 311 302 301 296 299 303 300 301 303 301 295 296 298 300 306 310 312 317 319 320 321 323
304 303 304 304 305 304 303 302 301 302 306 305 304 302 302 301 301 301 302 303 304 310 306 307 300 302 301 302 302 301 300 301 299 299 297 299 302 308 313 315 317 318 319 319 320
304 305 307 306 304 303 300 302 301 303 303 302 301 303 302 301 302 301 302 302 302 304 304 303 299 300 298 301 300 298 300 300 300 301 301 303 305 315 317 318 315 316 318 318 319
307 307 306 302 303 302 303 303 302 304 305 305 304 302 301 302 305 305 307 305 305 303 301 300 300 297 293 297 297 294 299 300 302 307 308 304 310 314 315 314 315 317 318 318 318

GFSSW_sfc_thetae_114.txt.gz
Theta_e
323 323 322 322 323 323 323 322 322 321 321 321 321 320 321 321 321 325 315 323 325 343 348 336 328 332 340 337 340 341 319 314 314 314 316 321 319 323 325 322 325 332 336 344 350
323 323 323 323 323 323 323 322 322 321 321 321 320 320 321 322 321 316 331 339 348 353 331 325 321 325 328 325 331 328 317 313 320 320 317 319 319 320 320 320 319 326 343 347 349
323 323 323 323 323 322 322 322 322 321 321 320 320 320 321 324 318 316 343 343 349 348 328 326 324 322 319 326 327 325 316 319 319 318 319 318 318 320 318 316 319 318 333 346 347
323 323 323 323 322 322 322 322 322 320 320 320 320 320 321 325 309 321 349 346 349 331 326 322 320 319 318 319 324 319 320 319 318 318 317 316 318 316 316 317 320 322 325 346 346
322 322 322 322 322 321 321 321 321 320 319 319 319 319 323 315 313 335 350 348 337 324 322 319 318 318 316 318 319 316 316 316 317 317 317 317 314 314 316 323 322 327 328 342 345
321 321 321 321 321 320 320 321 320 320 319 318 319 321 321 309 321 331 330 332 330 323 320 320 318 323 321 318 315 316 315 315 316 315 315 313 314 315 322 327 325 332 332 338 342
321 321 321 321 320 320 320 319 321 321 321 321 321 325 316 313 327 330 327 325 326 324 319 322 329 327 321 315 316 315 311 314 314 315 314 316 312 314 325 328 326 332 336 339 342
320 320 320 320 319 319 319 319 323 322 321 322 323 326 314 320 331 326 324 324 326 326 325 328 330 324 318 318 315 311 312 309 313 314 314 314 310 318 326 328 327 331 336 339 343
320 320 319 319 318 317 317 318 324 324 324 324 327 323 314 322 322 327 325 322 326 327 326 325 325 319 317 313 310 311 308 307 309 313 313 313 310 318 326 328 330 331 334 338 341
319 319 318 318 317 316 316 318 324 324 327 328 326 319 320 317 320 322 327 324 318 320 319 319 318 315 313 311 306 305 306 308 307 311 312 312 312 318 323 324 326 329 333 336 338
319 318 318 317 315 315 318 322 319 318 316 312 315 316 318 319 320 319 323 322 317 315 311 313 310 310 309 311 310 308 307 306 309 311 311 311 313 315 320 321 322 324 327 331 335
318 318 317 316 314 315 320 317 314 315 312 314 313 313 316 317 313 316 323 315 313 310 311 310 309 311 311 310 309 309 307 308 310 311 311 311 311 315 318 319 321 321 324 326 330
317 317 316 314 314 319 319 315 319 318 313 313 314 313 315 316 313 314 318 315 312 309 309 309 310 312 311 309 309 309 308 307 307 310 313 310 310 314 317 319 321 323 324 326 327
316 316 315 311 318 321 319 319 322 319 311 309 312 314 315 316 312 317 319 315 312 309 309 309 312 310 310 308 310 307 310 308 308 307 305 310 301 311 314 315 318 321 323 324 327
316 316 313 311 322 318 318 323 321 316 301 310 312 319 315 312 314 313 318 315 310 309 310 308 308 308 308 307 310 308 311 309 309 307 307 307 304 310 314 313 316 319 322 326 327
315 314 312 320 323 320 322 322 318 308 300 306 311 310 310 311 311 314 314 316 315 310 310 309 313 311 310 310 310 311 310 311 309 307 301 306 304 307 310 312 315 318 322 326 327
313 312 314 321 321 325 325 319 308 303 309 306 308 310 310 309 310 310 310 310 308 305 306 309 309 312 312 309 312 311 308 302 300 301 300 307 303 306 313 316 316 318 321 326 329
311 310 317 322 324 324 321 312 302 306 306 310 309 310 308 309 309 308 308 308 310 309 307 304 302 309 311 309 307 307 307 301 294 297 301 307 301 308 316 319 320 321 322 324 328
310 323 324 324 325 321 315 305 306 307 308 307 308 307 307 309 309 309 308 308 309 311 306 305 304 310 310 312 311 308 309 308 303 305 300 306 306 311 315 316 318 319 322 324 328
317 317 323 324 325 318 311 302 308 310 310 309 305 307 306 307 308 308 308 310 309 311 314 310 304 309 309 311 311 310 311 304 307 297 295 300 302 304 311 311 315 318 321 326 330
317 311 321 324 321 315 305 307 308 311 311 308 307 306 307 306 308 307 307 310 311 311 314 312 308 307 309 309 307 307 306 306 305 303 297 296 303 312 310 313 315 318 322 325 326
316 306 322 324 311 314 307 309 302 310 312 309 310 309 308 308 307 307 307 310 312 313 308 312 309 304 306 310 310 309 307 307 301 300 303 301 301 313 313 316 317 320 323 326 327
310 311 325 321 304 306 310 309 310 309 309 309 308 309 310 308 305 307 309 311 313 312 311 312 307 301 304 307 310 306 308 309 308 306 301 297 300 314 313 314 319 321 324 325 325
312 306 316 319 317 310 307 307 307 311 309 310 309 310 309 307 310 307 308 309 311 312 314 313 308 305 299 303 307 304 305 307 306 301 301 301 302 307 310 316 320 322 323 323 325
315 309 312 310 311 312 310 308 306 306 310 311 309 308 308 306 307 306 308 308 309 310 311 310 304 306 306 305 305 304 304 304 303 304 300 302 302 308 314 318 320 321 322 322 324
309 310 315 310 311 310 304 308 306 307 308 307 307 307 308 307 308 306 307 308 307 310 309 309 303 305 302 304 304 301 303 304 303 304 303 303 304 317 320 321 320 320 321 321 322
315 316 311 304 306 306 307 308 307 309 310 310 309 308 307 308 310 311 312 311 311 309 308 306 304 302 298 302 301 298 302 303 304 306 307 305 312 317 317 318 319 320 322 321 321

GFSSW_sfc_thetae_117.txt.gz
Theta_e
325 325 325 325 324 324 323 323 323 322 322 322 322 321 321 322 322 324 317 326 329 345 351 336 330 331 335 335 334 334 319 315 315 315 317 323 321 325 326 323 325 330 334 344 347
324 324 324 324 325 324 323 323 323 322 322 322 321 321 321 322 323 320 334 346 346 347 335 329 323 326 327 325 327 325 319 315 320 319 317 319 320 322 321 321 321 324 340 347 345
324 324 324 324 324 324 323 323 323 323 322 321 321 321 321 324 322 321 342 347 346 345 331 329 325 323 321 323 325 324 317 320 320 319 319 317 318 321 318 317 320 319 330 344 344
323 323 323 323 323 323 323 322 322 321 321 321 321 321 321 327 313 331 346 346 349 335 330 324 322 319 317 318 324 319 322 319 319 318 317 316 319 316 317 320 322 324 324 344 344
323 323 323 323 323 322 322 321 321 321 321 321 321 321 323 321 318 338 352 344 333 333 324 322 319 319 316 319 320 318 318 318 318 318 317 318 316 316 319 323 326 330 329 341 344
322 322 322 322 322 321 321 321 321 321 321 321 321 321 326 314 328 335 330 328 329 326 324 322 319 321 321 320 318 319 316 316 317 317 317 316 316 318 321 325 326 331 332 338 343
321 321 321 321 321 321 320 320 322 323 322 321 321 327 322 317 331 332 332 331 329 326 321 323 324 323 324 318 320 317 313 316 316 316 316 318 314 316 323 326 326 331 336 338 341
320 320 320 320 320 320 319 319 323 322 322 323 324 328 317 326 333 328 329 326 329 328 327 326 332 328 322 321 318 315 315 311 315 315 316 317 312 318 323 327 327 330 336 340 343
319 319 319 319 319 318 317 318 325 324 324 325 329 330 315 324 324 327 327 324 326 327 327 326 325 321 319 314 313 313 309 309 311 315 314 314 313 319 324 326 328 331 334 337 343
318 318 318 318 318 317 316 317 324 323 327 330 329 322 322 319 322 326 328 326 323 323 321 321 320 316 316 314 307 309 309 310 309 314 314 313 314 319 320 322 324 329 333 337 339
317 317 317 318 317 315 317 325 322 322 321 318 319 320 320 323 324 321 326 323 320 318 314 317 313 311 313 314 313 311 310 309 311 314 312 312 313 315 319 319 320 324 327 331 334
316 316 317 317 315 315 320 320 318 319 316 319 318 319 321 321 316 319 324 318 315 312 314 312 310 315 314 313 311 311 310 310 313 314 313 313 313 318 318 318 320 321 325 327 330
316 316 316 315 314 319 322 319 325 324 316 316 318 318 318 320 316 316 321 319 314 312 312 311 314 314 313 312 311 312 310 311 310 313 315 313 311 315 319 320 322 323 325 327 329
315 315 315 313 317 324 322 324 327 324 313 311 313 316 318 319 314 321 322 318 314 312 312 312 315 312 312 310 312 310 313 311 310 309 306 314 304 314 317 317 319 321 323 325 327
314 315 314 311 325 323 322 327 326 322 304 314 314 322 320 316 317 316 322 318 313 312 313 310 311 311 310 311 312 311 313 311 311 310 309 309 306 312 317 314 318 321 323 326 327
313 313 313 323 328 325 328 327 323 309 302 310 314 312 313 315 315 317 316 319 318 313 313 312 315 313 313 313 313 314 312 313 313 311 304 309 308 308 312 314 318 320 322 324 327
312 311 313 325 325 328 328 323 311 305 314 310 310 313 312 311 312 313 312 311 310 307 308 311 311 314 314 311 314 314 311 304 303 303 304 311 307 308 315 317 318 319 320 323 326
310 310 318 326 329 328 325 315 305 310 310 313 312 313 310 313 313 313 312 310 314 312 309 307 305 312 314 312 310 311 309 303 298 299 303 310 303 311 318 320 320 321 322 324 326
309 322 323 328 329 328 318 308 308 311 313 310 312 309 310 311 311 312 311 311 313 314 308 308 307 314 313 314 313 311 307 312 305 306 302 306 310 315 317 316 318 319 321 323 327
317 318 318 328 328 323 312 304 311 314 313 312 308 311 308 311 309 311 311 313 311 314 316 312 306 313 313 314 314 312 314 304 308 299 298 303 304 306 313 314 316 317 319 322 327
319 313 325 328 326 316 307 309 311 314 314 311 310 310 310 310 311 311 311 313 313 314 316 314 311 310 312 311 309 311 309 310 309 305 300 299 304 313 312 314 315 317 320 324 326
318 308 325 325 312 313 309 310 303 312 315 313 313 312 311 311 310 310 309 312 316 316 311 315 311 307 310 314 314 313 309 310 304 303 306 304 302 316 315 315 316 317 322 325 327
313 312 322 319 306 308 312 310 311 311 312 312 310 312 313 311 308 311 311 315 315 314 313 315 309 303 306 311 313 309 311 311 310 309 303 300 303 315 315 315 317 321 324 326 327
314 308 316 316 314 312 311 310 309 313 312 313 312 312 311 310 312 310 310 313 314 314 319 314 309 306 302 306 309 307 309 310 308 303 304 304 306 310 312 312 318 323 324 325 327
316 312 315 312 312 312 311 311 308 308 312 313 311 311 310 308 309 309 312 312 312 311 311 312 306 308 308 308 308 306 306 306 305 307 303 305 304 309 312 318 321 323 324 324 325
309 312 316 310 313 313 305 309 308 308 310 310 309 312 311 309 311 309 311 312 311 313 311 314 307 308 304 306 306 304 305 306 306 306 305 305 305 314 321 322 321 322 322 322 324
315 315 309 306 309 307 308 310 309 311 312 313 312 311 310 311 314 316 316 315 314 312 311 311 308 305 300 305 304 300 304 305 306 307 306 303 311 318 318 319 320 321 322 323 324

GFSSW_sfc_thetae_120.txt.gz
Theta_e
325 326 325 325 324 325 324 324 323 323 323 322 323 322 322 322 323 321 314 326 329 347 350 333 335 330 330 329 332 328 318 315 315 315 316 321 319 325 326 323 325 332 333 341 342
325 325 325 325 325 324 324 324 323 323 323 323 323 322 322 323 321 318 337 351 348 350 331 329 324 325 323 325 325 322 317 315 318 318 316 318 318 320 319 320 321 331 342 342 341
324 324 324 324 324 324 324 323 323 323 323 322 323 322 322 323 321 321 346 349 348 344 326 330 326 322 319 322 321 322 317 319 319 319 318 316 316 320 317 316 319 318 339 340 340
322 323 324 324 324 324 323 323 322 322 322 322 322 322 322 323 314 328 345 348 349 327 326 327 323 318 316 316 323 317 321 320 319 318 316 315 317 316 319 319 321 325 340 340 339
321 321 322 323 323 323 322 321 322 322 322 322 321 322 321 318 322 340 348 342 324 325 327 323 319 318 314 318 320 317 318 319 318 318 317 318 316 316 319 322 326 329 329 341 340
320 320 320 321 322 322 321 321 321 324 323 321 322 322 321 318 332 337 328 323 322 324 326 322 319 320 317 318 318 319 317 316 317 317 317 316 316 318 320 324 326 331 332 340 342
319 320 320 320 321 321 321 320 321 325 323 322 322 325 327 319 331 331 327 325 327 327 322 323 323 320 323 319 321 318 313 316 316 317 316 317 314 316 322 326 326 330 333 336 342
318 318 319 319 320 320 319 319 321 324 323 323 323 324 320 327 332 329 331 328 330 328 325 327 324 324 324 324 317 314 315 310 315 315 316 316 311 318 324 327 327 329 334 338 340
318 318 318 318 319 319 318 318 323 325 324 325 326 327 319 330 325 327 328 324 325 326 326 327 326 322 320 313 311 314 308 311 312 316 315 314 313 319 324 325 327 330 331 337 341
317 317 317 317 318 317 316 317 324 324 325 329 328 323 323 317 324 326 327 326 323 323 321 319 318 315 315 312 305 309 308 310 309 314 314 312 313 318 320 322 324 328 333 335 338
316 316 316 316 317 316 319 326 321 322 324 323 320 323 321 324 324 323 326 324 322 319 314 318 313 310 314 314 313 312 310 309 312 315 312 312 314 316 318 319 321 324 329 331 334
315 315 316 315 315 315 318 320 318 321 314 322 321 322 323 323 316 319 325 318 317 311 315 313 309 315 316 314 312 311 309 310 313 315 313 312 312 316 318 318 320 322 324 327 330
314 314 314 314 314 320 324 320 326 326 315 320 319 318 320 320 316 317 320 319 315 312 313 310 313 316 313 312 311 311 310 310 310 313 315 312 310 313 318 319 321 322 325 327 329
313 314 313 311 317 326 323 325 327 325 311 313 314 318 320 319 314 322 321 319 315 312 314 312 316 313 312 311 312 309 314 312 310 308 304 313 303 314 316 316 319 321 323 324 326
313 313 312 312 322 323 324 328 326 323 302 314 314 323 320 315 317 317 322 319 312 313 313 310 312 311 310 312 313 309 313 311 310 308 308 308 305 311 317 314 317 320 323 324 326
312 312 311 318 324 329 328 328 324 308 301 311 315 313 313 315 316 318 317 319 319 314 314 313 317 314 313 315 314 314 311 312 312 309 302 308 306 308 312 315 317 320 322 324 326
311 310 311 318 322 329 327 324 309 304 316 311 311 313 312 311 312 313 312 311 309 306 307 311 311 314 314 311 314 313 310 302 301 302 301 311 307 310 316 318 319 319 321 323 324
309 309 317 323 327 327 324 315 304 312 312 315 313 313 309 312 312 312 311 309 313 312 308 307 305 312 315 312 310 311 309 302 297 298 301 310 304 309 318 320 321 321 321 322 325
308 319 322 327 329 326 317 306 308 312 315 312 312 309 310 312 312 312 311 310 313 314 308 306 307 315 315 315 313 310 307 312 306 306 301 304 310 316 318 318 319 319 320 320 322
312 316 318 325 326 321 311 303 310 315 315 313 307 311 307 310 310 310 311 314 312 315 316 312 306 313 314 314 314 311 314 304 305 299 297 302 304 306 313 314 317 317 318 320 325
316 317 322 326 324 315 306 308 312 315 315 311 309 309 311 310 312 310 310 314 315 314 315 313 310 309 313 310 309 309 309 309 309 306 299 297 302 316 314 316 315 317 318 321 323
315 309 325 326 310 311 307 311 306 314 316 312 312 312 311 311 310 310 310 314 317 316 311 314 311 305 308 315 316 313 311 310 302 302 305 303 303 315 316 315 315 315 324 327 327
310 312 321 320 304 307 312 311 313 311 311 311 310 312 313 311 309 311 313 316 316 315 312 315 309 303 305 309 313 310 311 312 310 309 303 299 302 315 316 315 316 322 324 326 326
312 309 314 314 313 309 310 312 310 313 311 314 312 314 312 310 313 310 311 315 316 314 322 317 310 306 300 304 309 307 309 311 309 303 303 303 306 311 313 314 316 321 324 325 326
316 310 315 311 314 312 311 310 309 309 313 313 311 310 310 307 309 309 312 313 314 315 314 312 305 307 307 308 308 307 306 307 305 305 301 303 304 310 316 318 320 323 326 324 324
312 311 313 312 311 313 310 309 309 309 311 310 309 311 311 308 310 309 312 312 311 313 311 312 307 308 304 307 306 303 305 306 305 305 304 305 305 314 321 322 320 321 321 323 324
315 316 312 306 307 307 307 308 309 311 312 313 313 312 310 313 315 316 317 317 315 313 312 312 308 306 301 306 304 299 304 305 306 308 307 302 308 318 318 317 318 319 320 320 324

GFSSW_sfc_thetae_123.txt.gz
Theta_e
324 324 324 324 324 323 323 324 324 324 324 324 323 324 323 323 322 320 311 320 325 348 345 334 328 330 328 320 324 325 309 309 307 310 309 312 312 319 322 323 329 336 334 336 342
323 322 323 323 323 323 324 324 324 324 324 324 324 323 322 323 318 313 329 350 347 350 323 324 324 322 314 317 319 315 308 310 312 311 310 313 313 315 315 330 333 334 336 338 341
321 321 322 323 323 323 324 324 323 323 323 323 323 323 323 321 318 317 346 350 348 344 319 321 323 320 312 313 314 313 309 314 313 313 312 307 311 314 314 312 331 329 332 335 338
321 321 322 322 322 323 323 323 322 323 323 323 322 323 322 320 312 324 348 348 348 327 319 319 320 313 309 308 314 310 315 316 311 311 311 309 310 314 315 313 334 335 335 335 334
320 320 321 321 322 322 322 322 321 322 323 322 322 322 317 311 317 334 349 345 326 320 318 322 318 312 308 310 313 311 312 312 312 313 311 314 312 315 316 320 334 337 336 335 335
320 319 320 320 321 321 322 321 320 323 324 322 322 323 316 313 331 338 325 321 317 318 321 322 316 316 311 311 311 315 312 311 311 314 315 312 311 316 319 323 328 337 334 335 336
319 319 319 319 320 320 321 320 320 325 323 323 323 323 321 318 332 331 321 316 317 316 320 322 318 312 312 312 320 313 306 310 311 312 311 311 311 312 319 326 326 330 332 337 336
318 317 318 318 319 319 319 319 320 326 324 323 324 319 316 329 326 325 321 319 321 320 322 321 320 313 312 320 316 308 304 299 309 311 311 310 306 315 324 325 324 327 334 338 340
317 317 317 317 317 317 317 318 320 328 325 325 319 317 317 328 322 323 324 322 322 321 320 325 318 313 315 308 304 303 300 302 306 312 310 309 307 316 323 325 324 328 333 337 338
316 316 316 316 316 316 316 318 324 322 324 326 325 315 323 315 321 322 322 323 320 319 317 315 309 305 305 301 296 300 302 305 304 308 308 306 309 312 320 324 324 329 332 334 335
315 315 315 315 315 315 314 318 314 314 317 315 316 320 323 323 322 320 322 319 319 314 307 312 303 301 306 308 307 306 304 304 308 311 307 304 309 311 315 320 323 326 327 328 332
314 314 314 314 313 313 312 315 312 313 308 318 320 320 321 320 313 317 321 313 313 306 310 306 302 309 313 311 308 306 304 303 308 311 307 305 305 310 312 317 322 325 325 327 329
313 313 313 313 312 317 319 315 320 317 307 315 318 317 315 315 313 313 316 315 311 307 307 303 307 315 313 308 307 303 301 304 304 308 307 306 304 308 312 315 319 322 324 326 328
313 313 312 310 315 319 319 320 320 319 302 311 311 313 316 315 310 319 318 316 311 307 309 306 312 312 309 308 307 299 309 309 307 303 296 304 293 304 308 310 315 318 320 324 327
312 312 311 310 310 317 321 321 320 315 296 312 311 319 315 311 313 314 318 313 308 309 306 305 308 308 307 309 310 305 309 306 306 300 297 301 295 301 309 306 312 316 318 321 324
311 311 311 313 313 321 326 325 318 302 297 308 312 309 308 310 312 314 313 314 314 309 309 308 313 310 308 312 311 311 306 305 303 299 292 301 300 300 305 308 312 316 319 322 325
310 309 308 312 309 314 319 316 302 298 313 307 306 308 306 306 308 310 308 305 301 297 299 306 307 310 312 306 309 306 298 293 292 293 293 302 302 302 311 314 315 315 317 319 326
308 308 313 314 316 317 317 308 299 309 309 312 310 308 304 307 307 309 307 303 307 305 300 298 299 307 312 307 303 303 302 293 289 291 293 304 296 306 314 316 317 318 317 319 323
308 312 313 319 319 319 311 301 303 309 311 310 309 305 304 308 307 307 305 305 307 307 299 298 301 312 313 312 308 303 298 302 295 297 293 296 305 310 313 313 314 315 316 317 322
306 310 314 318 323 316 306 300 305 310 311 312 304 307 302 306 304 304 305 309 309 311 309 302 297 306 312 311 310 304 306 296 296 289 288 296 301 300 306 309 313 312 312 317 319
308 311 319 320 319 310 300 303 307 312 313 309 306 305 305 305 306 304 305 310 311 310 310 304 301 302 307 303 303 303 299 300 298 296 290 289 296 308 307 309 309 311 318 318 319
308 306 320 321 307 307 302 306 307 310 313 310 309 307 305 308 306 306 307 310 314 312 306 308 301 298 302 309 312 306 303 301 295 294 294 295 295 311 309 309 312 319 321 321 321
302 308 317 317 301 301 306 308 310 309 309 308 307 308 308 305 302 309 310 313 314 311 305 306 300 295 298 302 306 304 305 303 302 299 294 292 295 310 310 309 318 318 320 320 320
304 306 311 310 309 304 302 305 307 312 309 310 310 310 307 305 305 306 308 313 312 310 321 312 301 299 293 297 301 301 305 306 301 294 295 297 298 302 310 312 315 318 320 319 320
310 310 310 306 308 308 310 306 306 305 310 311 306 307 305 301 305 304 308 309 310 316 309 305 298 300 299 303 303 303 303 303 297 298 294 297 297 299 312 313 315 318 319 320 319
307 306 308 306 308 306 306 308 307 308 308 309 306 308 307 303 305 304 307 306 306 307 304 304 298 302 298 304 304 302 304 303 302 301 299 299 297 314 314 315 314 315 316 316 320
310 311 307 306 304 302 303 307 306 308 309 310 310 309 308 309 311 310 309 309 307 306 304 304 301 301 295 303 302 296 300 302 302 303 301 297 308 313 312 314 315 319 320 318 319